[[{"header":{"parameterUnit":"m.s-1","parameterCategory":1,"la1":31.0,"la2":29.5877,"lo1":-88.7671,"lo2":-86.6584,"dx":0.0162,"dy":0.0185,"nx":115,"ny":88,"refTime":"2022-12-31T18:00:00:Z","depth":0,"parameterNumber":2,"parameterNumberName":"U-component_of_WINDS"},"data":[0.0,0.0,0.0,0.0,0.0,0.0,0.0,0.0,0.0,0.0,0.0,0.0,0.0,0.0,0.0,0.0,0.0,0.0,0.0,0.0,0.0,0.0,0.0,0.0,0.0,0.0,0.0,0.0,0.0,0.0,0.0,0.0,0.0,0.0,0.0,0.0,0.0,0.0,0.0,0.0,0.0,0.0,0.0,0.0,0.0,0.0,0.0,0.0,0.0,0.0,0.0,0.0,0.0,0.0,0.0,0.0,0.0,0.0,0.0,0.0,0.0,0.0,0.0,0.0,0.0,0.0,0.0,0.0,0.0,0.0,0.0,0.0,0.0,0.0,0.0,0.0,0.0,0.0,0.0,0.0,0.0,0.0,0.0,0.0,0.0,0.0,0.0,0.0,0.0,0.0,0.0,0.0,0.0,0.0,0.0,0.0,0.0,0.0,0.0,0.0,0.0,0.0,0.0,0.0,0.0,0.0,0.0,0.0,0.0,0.0,0.0,0.0,0.0,0.0,0.0,0.0,0.0,0.0,0.0,0.0,0.0,0.0,0.0,0.0,0.0,0.0,0.0,0.0,0.0,0.0,0.0,0.0,0.0,0.0,0.0,0.0,0.0,0.0,0.0,0.0,0.0,0.0,0.0,0.0,0.0,0.0,0.0,0.0,0.0,0.0,0.0,0.0,0.0,0.0,0.0,0.0,0.0,0.0,0.0,0.0,0.0,0.0,0.0,0.0,0.0,0.0,0.0,0.0,0.0,0.0,0.0,0.0,0.0,0.0,0.0,0.0,0.0,0.0,0.0,0.0,0.0,0.0,0.0,0.0,0.0,0.0,0.0,0.0,0.0,0.0,0.0,0.0,0.0,0.0,0.0,0.0,0.0,0.0,0.0,0.0,0.0,0.0,0.0,0.0,0.0,0.0,0.0,0.0,0.0,0.0,0.0,0.0,0.0,0.0,0.0,0.0,0.0,0.0,0.0,0.0,0.0,0.0,0.0,0.0,0.0,0.0,0.0,0.0,0.0,0.0,0.0,0.0,0.0,0.0,0.0,0.0,0.0,0.0,0.0,0.0,0.0,0.0,0.0,0.0,0.0,0.0,0.0,0.0,0.0,0.0,0.0,0.0,0.0,0.0,0.0,0.0,0.0,0.0,0.0,0.0,0.0,0.0,0.0,0.0,0.0,0.0,0.0,0.0,0.0,0.0,0.0,0.0,0.0,0.0,0.0,0.0,0.0,0.0,0.0,0.0,0.0,0.0,0.0,0.0,0.0,0.0,0.0,0.0,0.0,0.0,0.0,0.0,0.0,0.0,0.0,0.0,0.0,0.0,0.0,0.0,0.0,0.0,0.0,0.0,0.0,0.0,0.0,0.0,0.0,0.0,0.0,0.0,0.0,0.0,0.0,0.0,0.0,0.0,0.0,0.0,0.0,0.0,0.0,0.0,0.0,0.0,0.0,0.0,0.0,0.0,0.0,0.0,0.0,0.0,0.0,0.0,0.0,0.0,0.0,0.0,0.0,0.0,0.0,0.0,0.0,0.0,0.0,0.0,0.0,0.0,0.0,0.0,0.0,0.0,0.0,0.0,0.0,0.0,0.0,0.0,0.0,0.0,0.0,0.0,0.0,0.0,0.0,0.0,0.0,0.0,0.0,0.0,0.0,0.0,0.0,0.0,0.0,0.0,0.0,0.0,0.0,0.0,0.0,0.0,0.0,0.0,0.0,0.0,0.0,0.0,0.0,0.0,0.0,0.0,0.0,0.0,0.0,0.0,0.0,0.0,0.0,0.0,0.0,0.0,0.0,0.0,0.0,0.0,0.0,0.0,0.0,0.0,0.0,0.0,0.0,0.0,0.0,0.0,0.0,0.0,0.0,0.0,0.0,0.0,0.0,0.0,0.0,0.0,0.0,0.0,0.0,0.0,0.0,0.0,0.0,0.0,0.0,0.0,0.0,0.0,0.0,0.0,0.0,0.0,0.0,0.0,0.0,0.0,0.0,0.0,0.0,0.0,0.0,0.0,0.0,0.0,0.0,0.0,0.0,0.0,0.0,0.0,0.0,0.0,0.0,0.0,0.0,0.0,0.0,0.0,0.0,0.0,0.0,0.0,0.0,0.0,0.0,0.0,0.0,0.0,0.0,0.0,0.0,0.0,0.0,0.0,0.0,0.0,0.0,0.0,0.0,0.0,0.0,0.0,0.0,0.0,0.0,0.0,0.0,0.0,0.0,0.0,0.0,0.0,0.0,0.0,0.0,0.0,0.0,0.0,0.0,0.0,0.0,0.0,0.0,0.0,0.0,0.0,0.0,0.0,0.0,0.0,0.0,0.0,0.0,0.0,0.0,0.0,0.0,0.0,0.0,0.0,0.0,0.0,0.0,0.0,0.0,0.0,0.0,0.0,0.0,0.0,0.0,0.0,0.0,0.0,0.0,0.0,0.0,0.0,0.0,0.0,0.0,0.0,0.0,0.0,0.0,0.0,0.0,0.0,0.0,0.0,0.0,0.0,0.0,0.0,0.0,0.0,0.0,0.0,0.0,0.0,0.0,0.0,0.0,0.0,0.0,0.0,0.0,0.0,0.0,0.0,0.0,0.0,0.0,0.0,0.0,0.0,0.0,0.0,0.0,0.0,0.0,0.0,0.0,0.0,0.0,0.0,0.0,0.0,0.0,0.0,0.0,0.0,0.0,0.0,0.0,0.0,0.0,0.0,0.0,0.0,0.0,0.0,0.0,0.0,0.0,0.0,0.0,0.0,0.0,0.0,0.0,0.0,0.0,0.0,0.0,0.0,0.0,0.0,0.0,0.0,0.0,0.0,0.0,0.0,0.0,0.0,0.0,0.0,0.0,0.0,0.0,0.0,0.0,0.0,0.0,0.0,0.0,0.0,0.0,0.0,0.0,0.0,0.0,0.0,0.0,0.0,0.0,0.0,0.0,0.0,0.0,0.0,0.0,0.0,0.0,0.0,0.0,0.0,0.0,0.0,0.0,0.0,0.0,0.0,0.0,0.0,0.0,0.0,0.0,0.0,0.0,0.0,0.0,0.0,0.0,0.0,0.0,0.0,0.0,0.0,0.0,0.0,0.0,0.0,0.0,0.0,0.0,0.0,0.0,0.0,0.0,0.0,0.0,0.0,0.0,0.0,0.0,0.0,0.0,0.0,0.0,0.0,0.0,0.0,0.0,0.0,0.0,0.0,0.0,0.0,0.0,0.0,0.0,0.0,0.0,0.0,0.0,0.0,0.0,0.0,0.0,0.0,0.0,0.0,0.0,0.0,0.0,0.0,0.0,0.0,0.0,0.0,0.0,0.0,0.0,0.0,0.0,0.0,0.0,0.0,0.0,0.0,0.0,0.0,0.0,0.0,0.0,0.0,0.0,0.0,0.0,0.0,0.0,0.0,0.0,0.0,0.0,0.0,0.0,0.0,0.0,0.0,0.0,0.0,0.0,0.0,0.0,0.0,0.0,0.0,0.0,0.0,0.0,0.0,0.0,0.0,0.0,0.0,0.0,0.0,0.0,0.0,0.0,0.0,0.0,0.0,0.0,0.0,0.0,0.0,0.0,0.0,0.0,0.0,0.0,0.0,0.0,0.0,0.0,0.0,0.0,0.0,0.0,0.0,0.0,0.0,0.0,0.0,0.0,0.0,0.0,0.0,0.0,0.0,0.0,0.0,0.0,0.0,0.0,0.0,0.0,0.0,0.0,0.0,0.0,0.0,0.0,0.0,0.0,0.0,0.0,0.0,0.0,0.0,0.0,0.0,0.0,0.0,0.0,0.0,0.0,0.0,0.0,0.0,0.0,0.0,0.0,0.0,0.0,0.0,0.0,0.0,0.0,0.0,0.0,0.0,0.0,0.0,0.0,0.0,0.0,0.0,0.0,0.0,0.0,0.0,0.0,0.0,0.0,0.0,0.0,0.0,0.0,0.0,0.0,0.0,0.0,0.0,0.0,0.0,0.0,0.0,0.0,0.0,0.0,0.0,0.0,0.0,0.0,0.0,0.0,0.0,0.0,0.0,0.0,0.0,0.0,0.0,0.0,0.0,0.0,0.0,0.0,0.0,0.0,0.0,0.0,0.0,0.0,0.0,0.0,0.0,0.0,0.0,0.0,0.0,0.0,0.0,0.0,0.0,0.0,0.0,0.0,0.0,0.0,0.0,0.0,0.0,0.0,0.0,0.0,0.0,0.0,0.0,0.0,0.0,0.0,0.0,0.0,0.0,0.0,0.0,0.0,0.0,0.0,0.0,0.0,0.0,0.0,0.0,-3.691,0.0,0.0,0.0,-3.5687,0.0,0.0,0.0,0.0,0.0,0.0,0.0,0.0,0.0,0.0,0.0,0.0,0.0,0.0,0.0,0.0,0.0,0.0,0.0,0.0,0.0,0.0,0.0,0.0,0.0,0.0,0.0,0.0,0.0,0.0,0.0,0.0,0.0,0.0,0.0,0.0,0.0,0.0,0.0,0.0,0.0,0.0,0.0,0.0,0.0,0.0,0.0,0.0,0.0,0.0,0.0,0.0,0.0,0.0,0.0,0.0,0.0,0.0,0.0,0.0,0.0,0.0,0.0,0.0,0.0,0.0,0.0,0.0,0.0,0.0,0.0,0.0,0.0,0.0,0.0,0.0,0.0,0.0,0.0,0.0,0.0,0.0,0.0,0.0,0.0,0.0,0.0,0.0,0.0,0.0,0.0,0.0,0.0,0.0,0.0,0.0,0.0,0.0,0.0,0.0,0.0,0.0,0.0,0.0,0.0,0.0,0.0,0.0,0.0,0.0,-3.7368,-3.5343,-3.8171,-3.8323,-3.5373,0.0,0.0,0.0,0.0,0.0,0.0,0.0,0.0,0.0,0.0,0.0,0.0,0.0,0.0,0.0,0.0,0.0,0.0,0.0,0.0,0.0,0.0,0.0,0.0,0.0,0.0,0.0,0.0,0.0,0.0,0.0,0.0,0.0,0.0,0.0,0.0,0.0,0.0,0.0,0.0,0.0,0.0,0.0,0.0,0.0,0.0,0.0,0.0,0.0,0.0,0.0,0.0,0.0,0.0,0.0,0.0,0.0,0.0,0.0,0.0,0.0,0.0,0.0,0.0,0.0,0.0,0.0,0.0,0.0,0.0,0.0,0.0,0.0,0.0,0.0,0.0,0.0,0.0,0.0,0.0,0.0,0.0,0.0,0.0,0.0,0.0,0.0,0.0,0.0,0.0,0.0,0.0,0.0,0.0,0.0,0.0,0.0,0.0,0.0,0.0,0.0,0.0,0.0,0.0,0.0,0.0,0.0,0.0,0.0,0.0,0.0,0.0,-3.9202,-3.9508,-3.6557,0.0,0.0,0.0,0.0,0.0,0.0,0.0,0.0,0.0,0.0,0.0,0.0,0.0,0.0,0.0,0.0,0.0,0.0,0.0,0.0,0.0,0.0,0.0,0.0,0.0,0.0,0.0,0.0,0.0,0.0,0.0,0.0,0.0,0.0,0.0,0.0,0.0,0.0,0.0,0.0,0.0,0.0,0.0,0.0,0.0,0.0,0.0,0.0,0.0,0.0,0.0,0.0,0.0,0.0,0.0,0.0,0.0,0.0,0.0,0.0,0.0,0.0,0.0,0.0,0.0,0.0,0.0,0.0,0.0,0.0,0.0,0.0,0.0,0.0,0.0,0.0,0.0,0.0,0.0,0.0,0.0,0.0,0.0,0.0,0.0,0.0,0.0,0.0,0.0,0.0,0.0,0.0,0.0,0.0,0.0,0.0,0.0,0.0,0.0,0.0,0.0,0.0,0.0,0.0,0.0,0.0,0.0,0.0,0.0,0.0,-3.6528,-3.8591,-3.9011,0.0,-3.9795,0.0,0.0,0.0,0.0,0.0,0.0,0.0,0.0,0.0,0.0,0.0,0.0,0.0,0.0,0.0,0.0,0.0,0.0,0.0,0.0,0.0,0.0,0.0,0.0,0.0,0.0,0.0,0.0,0.0,0.0,0.0,0.0,0.0,0.0,0.0,0.0,0.0,0.0,0.0,0.0,0.0,0.0,0.0,0.0,0.0,0.0,0.0,0.0,0.0,0.0,0.0,0.0,0.0,0.0,0.0,0.0,0.0,0.0,0.0,0.0,0.0,0.0,0.0,0.0,0.0,0.0,0.0,0.0,0.0,0.0,0.0,0.0,0.0,0.0,0.0,0.0,0.0,0.0,0.0,0.0,0.0,0.0,0.0,0.0,0.0,0.0,0.0,0.0,0.0,0.0,0.0,0.0,0.0,0.0,0.0,0.0,0.0,0.0,0.0,0.0,0.0,0.0,0.0,0.0,0.0,0.0,0.0,0.0,0.0,0.0,-3.7941,-3.8973,-3.9011,-3.9164,0.0,0.0,0.0,0.0,0.0,0.0,0.0,0.0,0.0,0.0,0.0,0.0,0.0,0.0,0.0,0.0,0.0,0.0,0.0,0.0,0.0,0.0,0.0,0.0,0.0,0.0,0.0,0.0,0.0,0.0,0.0,0.0,0.0,0.0,0.0,0.0,0.0,0.0,0.0,0.0,0.0,0.0,0.0,0.0,0.0,0.0,0.0,0.0,0.0,0.0,0.0,0.0,0.0,0.0,0.0,0.0,0.0,0.0,0.0,0.0,0.0,0.0,0.0,0.0,0.0,0.0,0.0,0.0,0.0,0.0,0.0,0.0,0.0,0.0,0.0,0.0,0.0,0.0,0.0,0.0,0.0,0.0,0.0,0.0,0.0,0.0,0.0,0.0,0.0,0.0,0.0,0.0,0.0,0.0,0.0,0.0,0.0,0.0,0.0,0.0,0.0,0.0,0.0,0.0,0.0,0.0,0.0,0.0,0.0,0.0,-3.84,-3.9355,-4.0005,-3.9584,-3.924,-3.9011,0.0,0.0,0.0,0.0,0.0,0.0,0.0,0.0,0.0,0.0,0.0,0.0,0.0,0.0,0.0,0.0,0.0,0.0,0.0,0.0,0.0,0.0,0.0,0.0,0.0,0.0,0.0,0.0,0.0,0.0,0.0,0.0,0.0,0.0,0.0,0.0,0.0,0.0,0.0,0.0,0.0,0.0,0.0,0.0,0.0,0.0,0.0,0.0,0.0,0.0,0.0,0.0,0.0,0.0,0.0,0.0,0.0,0.0,0.0,0.0,0.0,0.0,0.0,0.0,0.0,0.0,0.0,0.0,0.0,0.0,0.0,0.0,0.0,0.0,0.0,0.0,0.0,0.0,0.0,0.0,0.0,0.0,0.0,0.0,0.0,0.0,0.0,0.0,0.0,0.0,0.0,0.0,0.0,0.0,0.0,0.0,0.0,0.0,0.0,0.0,0.0,0.0,0.0,0.0,0.0,0.0,0.0,0.0,-4.203,-4.0157,-4.0196,-4.2488,-4.1065,-3.9852,0.0,0.0,0.0,0.0,0.0,0.0,0.0,0.0,0.0,0.0,0.0,0.0,0.0,0.0,0.0,0.0,0.0,0.0,0.0,0.0,0.0,0.0,0.0,0.0,0.0,0.0,0.0,0.0,0.0,0.0,0.0,0.0,0.0,0.0,0.0,0.0,0.0,0.0,0.0,0.0,0.0,0.0,0.0,0.0,0.0,0.0,0.0,0.0,0.0,0.0,0.0,0.0,0.0,0.0,0.0,0.0,0.0,0.0,0.0,0.0,0.0,0.0,0.0,0.0,0.0,0.0,0.0,0.0,0.0,0.0,0.0,0.0,0.0,0.0,0.0,0.0,0.0,0.0,0.0,0.0,0.0,0.0,0.0,0.0,0.0,0.0,0.0,0.0,0.0,0.0,0.0,0.0,0.0,0.0,0.0,0.0,0.0,0.0,0.0,0.0,0.0,0.0,0.0,0.0,0.0,0.0,0.0,0.0,0.0,-3.7865,-3.8629,-4.0731,-4.4131,-4.1227,-4.0081,0.0,0.0,0.0,0.0,0.0,0.0,0.0,0.0,0.0,0.0,0.0,0.0,0.0,0.0,0.0,0.0,0.0,0.0,0.0,0.0,0.0,0.0,0.0,0.0,0.0,0.0,0.0,0.0,0.0,0.0,0.0,0.0,0.0,0.0,0.0,0.0,0.0,0.0,0.0,0.0,0.0,0.0,0.0,0.0,0.0,0.0,0.0,0.0,0.0,0.0,0.0,0.0,0.0,0.0,0.0,0.0,0.0,0.0,0.0,0.0,0.0,0.0,0.0,0.0,0.0,0.0,0.0,0.0,0.0,0.0,0.0,0.0,0.0,0.0,0.0,0.0,0.0,0.0,0.0,0.0,0.0,0.0,0.0,0.0,0.0,0.0,0.0,0.0,0.0,0.0,0.0,0.0,0.0,0.0,0.0,0.0,0.0,0.0,0.0,0.0,0.0,0.0,0.0,0.0,0.0,0.0,0.0,0.0,0.0,-3.8047,-4.0807,-4.3138,-4.4628,-4.1877,-4.0272,0.0,0.0,0.0,0.0,0.0,0.0,0.0,0.0,0.0,0.0,0.0,0.0,0.0,0.0,0.0,0.0,0.0,0.0,0.0,0.0,0.0,0.0,0.0,0.0,0.0,0.0,0.0,0.0,0.0,0.0,0.0,0.0,0.0,0.0,0.0,0.0,0.0,0.0,0.0,0.0,0.0,0.0,0.0,0.0,0.0,0.0,0.0,0.0,0.0,0.0,0.0,0.0,0.0,0.0,0.0,0.0,0.0,0.0,0.0,0.0,0.0,0.0,0.0,0.0,0.0,0.0,0.0,0.0,0.0,0.0,0.0,0.0,0.0,0.0,0.0,0.0,0.0,0.0,0.0,0.0,0.0,0.0,0.0,0.0,0.0,0.0,0.0,0.0,0.0,0.0,0.0,0.0,0.0,0.0,0.0,0.0,0.0,0.0,0.0,0.0,0.0,0.0,0.0,0.0,0.0,0.0,0.0,0.0,-3.8124,-4.3624,-4.6997,-4.715,-4.4159,-4.3166,-4.0463,0.0,0.0,0.0,0.0,0.0,0.0,0.0,0.0,0.0,0.0,0.0,0.0,0.0,0.0,0.0,0.0,0.0,0.0,0.0,0.0,0.0,0.0,0.0,0.0,0.0,0.0,0.0,0.0,0.0,0.0,0.0,0.0,0.0,0.0,0.0,0.0,0.0,0.0,0.0,0.0,0.0,0.0,0.0,0.0,0.0,0.0,0.0,0.0,0.0,0.0,0.0,0.0,0.0,0.0,0.0,0.0,0.0,0.0,0.0,0.0,0.0,0.0,0.0,0.0,0.0,0.0,0.0,0.0,0.0,0.0,0.0,0.0,0.0,0.0,0.0,0.0,0.0,0.0,0.0,0.0,0.0,0.0,0.0,0.0,0.0,0.0,0.0,0.0,0.0,0.0,0.0,0.0,0.0,0.0,0.0,0.0,0.0,0.0,0.0,0.0,0.0,0.0,0.0,0.0,0.0,0.0,0.0,0.0,0.0,-3.9814,-4.4131,-4.6538,-4.6489,-4.3558,-4.2259,0.0,0.0,0.0,0.0,0.0,0.0,0.0,0.0,0.0,0.0,0.0,0.0,0.0,0.0,0.0,0.0,0.0,0.0,0.0,0.0,0.0,0.0,0.0,0.0,0.0,0.0,0.0,0.0,0.0,0.0,0.0,0.0,0.0,0.0,0.0,0.0,0.0,0.0,0.0,0.0,0.0,0.0,0.0,0.0,0.0,0.0,0.0,0.0,0.0,0.0,0.0,0.0,0.0,0.0,0.0,0.0,0.0,0.0,0.0,0.0,0.0,0.0,0.0,0.0,0.0,0.0,0.0,0.0,0.0,0.0,0.0,0.0,0.0,0.0,0.0,0.0,0.0,0.0,0.0,0.0,0.0,0.0,0.0,0.0,0.0,0.0,0.0,0.0,0.0,0.0,0.0,0.0,0.0,0.0,0.0,0.0,0.0,0.0,0.0,0.0,0.0,0.0,0.0,0.0,0.0,0.0,0.0,0.0,0.0,-4.2756,-4.7379,-4.9748,-4.9202,-4.6042,-4.4399,-4.4503,0.0,0.0,0.0,0.0,0.0,0.0,0.0,0.0,0.0,0.0,0.0,0.0,0.0,0.0,0.0,0.0,0.0,0.0,0.0,0.0,0.0,0.0,0.0,0.0,0.0,0.0,0.0,0.0,0.0,0.0,0.0,0.0,0.0,0.0,0.0,0.0,0.0,0.0,0.0,0.0,0.0,0.0,0.0,0.0,0.0,0.0,0.0,0.0,0.0,0.0,0.0,0.0,0.0,0.0,0.0,0.0,0.0,0.0,0.0,0.0,0.0,0.0,0.0,0.0,0.0,0.0,0.0,0.0,0.0,0.0,0.0,0.0,0.0,0.0,0.0,0.0,0.0,0.0,0.0,0.0,0.0,0.0,0.0,0.0,0.0,0.0,0.0,0.0,0.0,0.0,0.0,0.0,0.0,0.0,0.0,0.0,0.0,0.0,0.0,0.0,0.0,0.0,0.0,0.0,0.0,0.0,0.0,0.0,-5.0627,-5.5479,-5.5976,-5.1926,-5.0054,-4.6931,0.0,0.0,0.0,0.0,0.0,0.0,0.0,0.0,0.0,0.0,0.0,0.0,0.0,0.0,0.0,0.0,0.0,0.0,0.0,0.0,0.0,0.0,0.0,0.0,0.0,0.0,0.0,0.0,0.0,0.0,0.0,0.0,0.0,0.0,0.0,0.0,0.0,0.0,0.0,0.0,0.0,0.0,0.0,0.0,0.0,0.0,0.0,0.0,0.0,0.0,0.0,0.0,0.0,0.0,0.0,0.0,0.0,0.0,0.0,0.0,0.0,0.0,0.0,0.0,0.0,0.0,0.0,0.0,0.0,0.0,0.0,0.0,0.0,0.0,0.0,0.0,0.0,0.0,0.0,0.0,0.0,0.0,0.0,0.0,0.0,0.0,0.0,0.0,0.0,0.0,0.0,0.0,0.0,0.0,0.0,0.0,0.0,0.0,0.0,0.0,0.0,0.0,0.0,0.0,0.0,0.0,0.0,0.0,0.0,-5.4944,-5.8077,-5.8039,-5.4524,-5.1544,-4.9366,0.0,0.0,0.0,0.0,0.0,0.0,0.0,0.0,0.0,0.0,0.0,0.0,0.0,0.0,0.0,0.0,0.0,0.0,0.0,0.0,0.0,0.0,0.0,0.0,0.0,0.0,0.0,0.0,0.0,0.0,0.0,0.0,0.0,0.0,0.0,0.0,0.0,0.0,0.0,0.0,0.0,0.0,0.0,0.0,0.0,0.0,0.0,0.0,0.0,0.0,0.0,0.0,0.0,0.0,0.0,0.0,0.0,0.0,0.0,0.0,0.0,0.0,0.0,0.0,0.0,0.0,0.0,0.0,0.0,0.0,0.0,0.0,0.0,0.0,0.0,0.0,0.0,0.0,0.0,0.0,0.0,0.0,0.0,0.0,0.0,0.0,0.0,0.0,0.0,0.0,0.0,0.0,0.0,0.0,0.0,0.0,0.0,0.0,0.0,0.0,0.0,0.0,0.0,0.0,0.0,0.0,0.0,0.0,-5.4104,-5.8091,-5.9644,-5.9505,-5.7542,-5.4562,-5.2079,0.0,0.0,0.0,0.0,0.0,0.0,0.0,0.0,0.0,0.0,0.0,0.0,0.0,0.0,0.0,0.0,0.0,0.0,0.0,0.0,0.0,0.0,0.0,0.0,0.0,0.0,0.0,0.0,0.0,0.0,0.0,0.0,0.0,0.0,0.0,0.0,0.0,0.0,0.0,0.0,0.0,0.0,0.0,0.0,0.0,0.0,0.0,0.0,0.0,0.0,0.0,0.0,0.0,0.0,0.0,0.0,0.0,0.0,0.0,0.0,0.0,0.0,0.0,0.0,0.0,0.0,0.0,0.0,0.0,0.0,0.0,0.0,0.0,0.0,0.0,0.0,0.0,0.0,0.0,0.0,0.0,0.0,0.0,0.0,0.0,0.0,0.0,0.0,0.0,0.0,0.0,0.0,0.0,0.0,0.0,0.0,0.0,0.0,0.0,0.0,0.0,0.0,0.0,0.0,0.0,0.0,0.0,0.0,-5.5517,-6.0269,-6.0384,-6.0384,-6.0346,-5.7925,-5.4702,0.0,0.0,0.0,0.0,0.0,0.0,0.0,0.0,0.0,0.0,0.0,0.0,0.0,0.0,0.0,0.0,0.0,0.0,0.0,0.0,0.0,0.0,0.0,0.0,0.0,0.0,0.0,0.0,0.0,0.0,0.0,0.0,0.0,0.0,0.0,0.0,0.0,0.0,0.0,0.0,0.0,0.0,0.0,0.0,0.0,0.0,0.0,0.0,0.0,0.0,0.0,0.0,0.0,0.0,0.0,0.0,0.0,0.0,0.0,0.0,0.0,0.0,0.0,0.0,0.0,0.0,0.0,0.0,0.0,0.0,0.0,0.0,0.0,0.0,0.0,0.0,0.0,0.0,0.0,0.0,0.0,0.0,0.0,0.0,0.0,0.0,0.0,0.0,0.0,0.0,0.0,0.0,0.0,0.0,0.0,0.0,0.0,0.0,0.0,0.0,0.0,0.0,0.0,0.0,0.0,0.0,0.0,0.0,-5.7288,-6.0307,-6.0384,-6.0384,-6.0384,-5.7925,-5.5134,0.0,0.0,0.0,0.0,0.0,0.0,0.0,0.0,0.0,0.0,0.0,0.0,0.0,0.0,0.0,0.0,0.0,0.0,0.0,0.0,0.0,0.0,0.0,0.0,0.0,0.0,0.0,0.0,0.0,0.0,0.0,0.0,0.0,0.0,0.0,0.0,0.0,0.0,0.0,0.0,0.0,0.0,0.0,0.0,0.0,0.0,0.0,0.0,-4.2774,0.0,0.0,0.0,0.0,0.0,0.0,0.0,0.0,0.0,0.0,0.0,0.0,0.0,0.0,0.0,0.0,0.0,0.0,0.0,0.0,0.0,0.0,0.0,0.0,0.0,0.0,0.0,0.0,0.0,0.0,0.0,0.0,0.0,0.0,0.0,0.0,0.0,0.0,0.0,0.0,0.0,0.0,0.0,0.0,0.0,0.0,0.0,0.0,0.0,0.0,0.0,0.0,0.0,0.0,0.0,0.0,0.0,0.0,0.0,-5.781,-6.0307,-6.0384,-6.0384,-6.0346,-5.9084,-5.6572,0.0,0.0,0.0,0.0,0.0,0.0,0.0,0.0,0.0,0.0,0.0,0.0,0.0,0.0,0.0,0.0,0.0,0.0,0.0,0.0,0.0,0.0,0.0,0.0,0.0,0.0,0.0,0.0,0.0,0.0,0.0,0.0,0.0,0.0,0.0,0.0,0.0,0.0,0.0,0.0,0.0,0.0,0.0,0.0,0.0,0.0,0.0,0.0,0.0,0.0,0.0,0.0,0.0,0.0,0.0,0.0,0.0,0.0,0.0,0.0,0.0,0.0,0.0,0.0,0.0,0.0,0.0,0.0,0.0,0.0,0.0,0.0,0.0,0.0,0.0,0.0,0.0,0.0,0.0,0.0,0.0,0.0,0.0,0.0,0.0,0.0,0.0,0.0,0.0,0.0,0.0,0.0,0.0,0.0,0.0,0.0,0.0,0.0,0.0,0.0,0.0,0.0,0.0,0.0,0.0,0.0,0.0,-5.5174,-5.7823,-6.0269,-6.0384,-6.0384,-6.0384,-6.0384,-5.7987,-5.2946,0.0,0.0,0.0,0.0,0.0,0.0,0.0,0.0,0.0,0.0,0.0,0.0,0.0,0.0,0.0,0.0,0.0,0.0,0.0,0.0,0.0,0.0,0.0,0.0,0.0,0.0,0.0,0.0,0.0,0.0,0.0,0.0,0.0,0.0,0.0,0.0,0.0,0.0,-4.185,-4.491,0.0,0.0,0.0,0.0,0.0,0.0,0.0,0.0,-4.4983,0.0,0.0,0.0,0.0,0.0,0.0,0.0,0.0,0.0,0.0,0.0,0.0,0.0,0.0,0.0,0.0,0.0,0.0,0.0,0.0,0.0,0.0,0.0,0.0,0.0,0.0,0.0,0.0,0.0,0.0,0.0,0.0,0.0,0.0,0.0,0.0,0.0,0.0,0.0,0.0,0.0,0.0,0.0,0.0,0.0,0.0,0.0,0.0,0.0,0.0,0.0,0.0,0.0,0.0,0.0,0.0,-5.567,-5.632,-5.7823,-6.0307,-6.0384,-6.0384,-6.0384,-6.0384,-5.7919,-5.281,0.0,0.0,0.0,0.0,0.0,0.0,0.0,0.0,0.0,0.0,0.0,0.0,0.0,0.0,0.0,0.0,0.0,0.0,0.0,0.0,0.0,0.0,0.0,0.0,0.0,0.0,0.0,0.0,0.0,0.0,0.0,0.0,0.0,0.0,0.0,0.0,0.0,0.0,0.0,-4.9112,-4.9727,0.0,0.0,0.0,0.0,0.0,0.0,0.0,0.0,-4.52,0.0,0.0,0.0,0.0,0.0,0.0,0.0,0.0,0.0,0.0,0.0,0.0,0.0,0.0,0.0,0.0,0.0,0.0,0.0,0.0,0.0,0.0,0.0,0.0,0.0,0.0,0.0,0.0,0.0,0.0,0.0,0.0,0.0,0.0,0.0,0.0,0.0,0.0,0.0,0.0,0.0,0.0,0.0,0.0,0.0,0.0,0.0,0.0,0.0,0.0,0.0,0.0,0.0,0.0,0.0,-5.4486,-5.7199,-5.9161,-6.0346,-6.0384,-6.0384,-6.037,-6.0188,-5.7582,0.0,0.0,0.0,0.0,0.0,0.0,0.0,0.0,0.0,0.0,0.0,0.0,0.0,0.0,0.0,0.0,0.0,0.0,0.0,0.0,0.0,0.0,0.0,0.0,0.0,0.0,0.0,0.0,0.0,0.0,0.0,0.0,0.0,0.0,0.0,0.0,0.0,0.0,0.0,0.0,-5.0474,-5.1176,-5.2371,0.0,0.0,0.0,0.0,0.0,0.0,-4.683,-4.5506,0.0,0.0,0.0,0.0,0.0,0.0,0.0,0.0,0.0,0.0,0.0,0.0,0.0,0.0,0.0,0.0,0.0,0.0,0.0,0.0,0.0,0.0,0.0,0.0,0.0,0.0,0.0,0.0,0.0,0.0,0.0,0.0,0.0,0.0,0.0,0.0,0.0,0.0,0.0,0.0,0.0,0.0,0.0,0.0,0.0,0.0,0.0,0.0,0.0,0.0,0.0,0.0,0.0,0.0,0.0,-5.311,-5.7734,-6.0408,-6.0867,-6.0905,-6.0905,-6.0905,-6.0364,-5.7554,0.0,0.0,0.0,0.0,0.0,0.0,0.0,0.0,0.0,0.0,0.0,0.0,0.0,0.0,0.0,0.0,0.0,0.0,0.0,0.0,0.0,0.0,0.0,0.0,0.0,0.0,0.0,0.0,0.0,0.0,0.0,0.0,0.0,0.0,0.0,0.0,0.0,0.0,0.0,0.0,0.0,-5.2371,-5.3313,-5.2371,0.0,0.0,0.0,0.0,-5.0597,-4.8677,0.0,0.0,0.0,0.0,0.0,0.0,0.0,0.0,0.0,0.0,0.0,0.0,0.0,0.0,0.0,0.0,0.0,0.0,0.0,0.0,0.0,0.0,0.0,0.0,0.0,0.0,0.0,0.0,0.0,0.0,0.0,0.0,0.0,0.0,0.0,0.0,0.0,0.0,0.0,0.0,0.0,0.0,0.0,0.0,0.0,0.0,0.0,0.0,0.0,0.0,0.0,0.0,0.0,0.0,0.0,0.0,-5.3913,-5.7428,-6.0332,-6.2471,-6.2624,-6.2624,-6.2571,-6.1467,-5.8424,0.0,0.0,0.0,0.0,0.0,0.0,0.0,0.0,0.0,0.0,0.0,0.0,0.0,0.0,0.0,0.0,0.0,0.0,0.0,0.0,0.0,0.0,0.0,0.0,0.0,0.0,0.0,0.0,0.0,0.0,0.0,0.0,0.0,0.0,0.0,0.0,0.0,0.0,0.0,0.0,0.0,-5.4037,-5.2806,-5.248,-5.2009,0.0,0.0,-5.2263,-5.3132,-5.2987,0.0,0.0,0.0,0.0,0.0,0.0,0.0,0.0,0.0,0.0,0.0,0.0,0.0,0.0,0.0,0.0,0.0,0.0,0.0,0.0,0.0,0.0,0.0,0.0,0.0,0.0,0.0,0.0,0.0,0.0,0.0,0.0,0.0,0.0,0.0,0.0,0.0,0.0,0.0,0.0,0.0,0.0,0.0,0.0,0.0,0.0,0.0,0.0,0.0,0.0,0.0,0.0,0.0,0.0,0.0,-5.1314,-5.4142,-5.8842,-6.1784,-6.2853,-6.2892,-6.2892,-6.2892,-6.1915,-5.8809,0.0,0.0,0.0,0.0,0.0,0.0,0.0,0.0,0.0,0.0,0.0,0.0,0.0,0.0,0.0,0.0,0.0,0.0,0.0,0.0,0.0,0.0,0.0,0.0,0.0,0.0,0.0,0.0,0.0,0.0,0.0,0.0,0.0,0.0,0.0,0.0,0.0,0.0,0.0,0.0,0.0,0.0,-5.574,-5.5051,0.0,0.0,0.0,-5.4581,-5.4943,0.0,0.0,0.0,0.0,0.0,0.0,0.0,0.0,0.0,0.0,0.0,0.0,0.0,0.0,0.0,0.0,0.0,0.0,0.0,0.0,0.0,0.0,0.0,0.0,0.0,0.0,0.0,0.0,0.0,0.0,0.0,0.0,0.0,0.0,0.0,0.0,0.0,0.0,0.0,0.0,0.0,0.0,0.0,0.0,0.0,0.0,0.0,0.0,0.0,0.0,0.0,0.0,0.0,0.0,0.0,0.0,0.0,-5.4486,-6.0446,-6.3541,-6.3541,-6.3526,-6.3459,-6.3367,-6.248,0.0,0.0,0.0,0.0,0.0,0.0,0.0,0.0,0.0,0.0,0.0,0.0,0.0,0.0,0.0,0.0,0.0,0.0,0.0,0.0,0.0,0.0,0.0,0.0,0.0,0.0,0.0,-3.6093,0.0,0.0,0.0,0.0,0.0,0.0,0.0,0.0,0.0,0.0,0.0,0.0,0.0,0.0,-5.545,-5.7768,-5.7224,-5.6899,0.0,0.0,-5.6645,-5.6862,-5.6873,-5.6208,0.0,0.0,0.0,0.0,0.0,0.0,0.0,0.0,0.0,0.0,0.0,0.0,0.0,0.0,0.0,0.0,0.0,0.0,0.0,0.0,0.0,0.0,0.0,0.0,0.0,0.0,0.0,0.0,0.0,0.0,0.0,0.0,0.0,0.0,0.0,0.0,0.0,0.0,0.0,0.0,0.0,0.0,0.0,0.0,0.0,0.0,0.0,0.0,0.0,0.0,0.0,0.0,0.0,0.0,0.0,-5.5441,-6.186,-6.5222,-6.5222,-6.5222,-6.5045,-6.4675,-6.3484,-5.9965,0.0,0.0,0.0,0.0,0.0,0.0,0.0,0.0,0.0,0.0,0.0,0.0,0.0,0.0,0.0,0.0,0.0,0.0,0.0,0.0,0.0,0.0,0.0,0.0,0.0,0.0,0.0,0.0,0.0,0.0,0.0,0.0,0.0,0.0,0.0,0.0,0.0,0.0,0.0,0.0,0.0,-5.4653,-5.6935,-5.784,-5.8528,0.0,0.0,-5.8492,-5.9253,-5.9256,-5.766,-5.3219,0.0,0.0,0.0,0.0,0.0,0.0,0.0,0.0,0.0,0.0,0.0,0.0,0.0,0.0,0.0,0.0,0.0,0.0,0.0,0.0,0.0,0.0,0.0,0.0,0.0,0.0,0.0,0.0,0.0,0.0,0.0,0.0,0.0,0.0,0.0,0.0,0.0,0.0,0.0,0.0,0.0,0.0,0.0,0.0,0.0,0.0,0.0,0.0,0.0,0.0,0.0,0.0,0.0,-5.3913,-5.6167,-6.2777,-6.6445,-6.6904,-6.6178,-6.569,-6.555,-6.4039,-6.1251,0.0,0.0,0.0,0.0,0.0,0.0,0.0,0.0,0.0,0.0,0.0,0.0,0.0,0.0,0.0,0.0,0.0,0.0,0.0,0.0,0.0,0.0,0.0,0.0,0.0,0.0,0.0,0.0,-4.4456,-4.4838,-4.3353,0.0,0.0,0.0,0.0,0.0,0.0,0.0,0.0,0.0,0.0,-5.8021,-5.9905,-6.0421,0.0,0.0,-6.186,-6.1643,-6.244,-6.1263,-5.941,-5.6943,-5.4968,0.0,0.0,0.0,0.0,0.0,0.0,0.0,0.0,0.0,0.0,0.0,0.0,0.0,0.0,0.0,0.0,0.0,0.0,0.0,0.0,0.0,0.0,0.0,0.0,0.0,0.0,0.0,0.0,0.0,0.0,0.0,0.0,0.0,0.0,0.0,0.0,0.0,0.0,0.0,0.0,0.0,0.0,0.0,0.0,0.0,0.0,0.0,0.0,0.0,0.0,0.0,0.0,-5.4715,-5.6969,-6.3618,-6.7324,-6.7897,-6.7021,-6.6438,-6.6163,-6.5024,-6.2783,0.0,0.0,0.0,0.0,0.0,0.0,0.0,0.0,0.0,0.0,0.0,0.0,0.0,0.0,0.0,0.0,0.0,0.0,0.0,0.0,0.0,0.0,0.0,0.0,0.0,0.0,0.0,0.0,-4.6302,-4.5852,-4.3932,0.0,0.0,0.0,0.0,0.0,0.0,0.0,0.0,0.0,0.0,-6.0629,-6.2476,-6.2512,-6.2766,-6.3852,-6.3164,-6.2693,-6.3237,-6.2059,-6.063,-5.9195,0.0,0.0,0.0,0.0,0.0,0.0,0.0,0.0,0.0,0.0,0.0,0.0,0.0,0.0,0.0,0.0,0.0,0.0,0.0,0.0,0.0,0.0,0.0,0.0,0.0,0.0,0.0,0.0,0.0,0.0,-4.0377,0.0,0.0,0.0,0.0,0.0,0.0,0.0,0.0,0.0,0.0,0.0,0.0,0.0,0.0,0.0,0.0,0.0,0.0,0.0,0.0,0.0,0.0,-5.6167,-5.7925,-6.4458,-6.7897,-6.7935,-6.7897,-6.7455,-6.6637,-6.6516,-6.4576,-6.043,0.0,0.0,0.0,0.0,0.0,0.0,0.0,0.0,0.0,0.0,0.0,0.0,0.0,0.0,0.0,0.0,0.0,0.0,0.0,0.0,0.0,0.0,0.0,0.0,0.0,0.0,-4.2212,-4.3281,-4.3896,0.0,0.0,0.0,0.0,0.0,0.0,0.0,0.0,0.0,0.0,-5.9724,-6.1679,-6.3997,-6.3671,-6.3273,-6.3373,-6.2041,-6.0991,-6.1145,-6.1498,-6.1009,0.0,0.0,0.0,0.0,0.0,0.0,0.0,0.0,0.0,0.0,0.0,0.0,0.0,0.0,0.0,0.0,0.0,0.0,0.0,0.0,0.0,0.0,0.0,0.0,0.0,0.0,0.0,-4.65,-4.5736,0.0,0.0,0.0,0.0,0.0,0.0,0.0,0.0,0.0,0.0,0.0,-5.5899,-5.8956,0.0,0.0,0.0,0.0,0.0,0.0,0.0,0.0,0.0,0.0,0.0,0.0,-5.6421,-5.888,-6.5337,-6.9005,-6.9524,-6.8505,-6.7746,-6.7459,-6.6333,-6.4057,-6.0493,0.0,0.0,0.0,0.0,0.0,0.0,0.0,0.0,0.0,0.0,0.0,0.0,0.0,0.0,0.0,0.0,0.0,0.0,0.0,0.0,0.0,0.0,0.0,0.0,0.0,-4.5273,0.0,0.0,0.0,0.0,0.0,0.0,0.0,0.0,0.0,0.0,0.0,-5.7623,-5.9724,-6.186,-6.3671,-6.5011,-6.541,-6.5772,0.0,0.0,0.0,0.0,0.0,0.0,0.0,0.0,0.0,0.0,0.0,0.0,0.0,0.0,-5.5791,-4.9194,-4.7603,-4.7338,-4.757,0.0,0.0,0.0,0.0,0.0,0.0,0.0,0.0,0.0,0.0,0.0,0.0,0.0,0.0,-5.0779,0.0,-5.0309,0.0,0.0,0.0,0.0,0.0,0.0,0.0,0.0,-5.9033,-6.1058,-6.0637,-6.335,-6.3503,0.0,-6.0217,-5.7657,0.0,0.0,0.0,0.0,0.0,0.0,0.0,0.0,-5.7873,-6.1363,-6.6789,-6.9884,-7.031,-6.9209,-6.847,-6.8302,-6.6865,-6.5014,-6.2837,-6.0908,-5.8761,0.0,0.0,0.0,0.0,0.0,0.0,0.0,0.0,0.0,0.0,0.0,0.0,0.0,0.0,0.0,0.0,0.0,0.0,0.0,0.0,0.0,0.0,0.0,-4.7337,0.0,0.0,0.0,0.0,0.0,0.0,0.0,0.0,0.0,-5.2987,-5.7297,-6.1064,-6.2693,-6.4468,-6.5953,-6.675,0.0,0.0,0.0,0.0,0.0,0.0,0.0,-6.4005,-6.4961,-6.298,-6.1162,-6.0811,-6.2332,-6.2943,-6.0704,0.0,0.0,-5.3884,-5.2307,-5.2208,-5.2473,-5.3268,-5.3864,-5.3632,-5.463,-5.5359,0.0,0.0,0.0,0.0,0.0,0.0,0.0,0.0,-5.5497,-5.5186,0.0,-5.5237,0.0,0.0,0.0,0.0,0.0,-5.6689,0.0,0.0,-6.6025,-6.7821,-6.7836,-6.7859,-6.7989,-6.7897,-6.6292,-6.4726,-6.2968,-5.8345,0.0,0.0,0.0,0.0,0.0,0.0,-6.0523,-6.5299,-6.8776,-7.0495,-7.0517,-7.0096,-6.964,-6.9144,-6.8132,-6.7451,-6.7129,-6.3564,-6.0981,-5.9745,-5.2635,0.0,0.0,0.0,0.0,0.0,0.0,0.0,0.0,0.0,0.0,0.0,0.0,0.0,0.0,0.0,0.0,0.0,0.0,0.0,0.0,-4.8981,0.0,0.0,0.0,0.0,0.0,0.0,0.0,0.0,0.0,0.0,-5.679,-5.9832,-6.3317,-6.6351,0.0,0.0,0.0,0.0,-6.809,-6.8126,-6.6822,-6.5881,-6.5953,-6.646,-6.6895,-6.704,0.0,0.0,-6.4806,-6.654,-6.6825,-6.2124,-6.3664,-6.4722,-6.155,-5.9131,-5.8104,-5.8734,-5.8833,-5.9231,-5.9993,-6.1119,-6.2685,-5.6903,0.0,0.0,0.0,0.0,-5.6121,-5.8144,-6.1338,-6.122,-6.0687,-5.9906,-6.0484,0.0,0.0,0.0,0.0,0.0,0.0,-6.0432,-6.2968,-6.5146,-6.7056,-6.8814,-6.9425,-6.9999,-7.0572,-7.0113,-6.996,-7.0037,-6.8661,-6.186,-5.0245,0.0,0.0,0.0,0.0,-6.4267,-6.6407,-7.0228,-7.2253,-7.2253,-7.1825,-7.1178,-7.0334,-6.969,-6.9301,-6.9133,-6.7999,-6.5615,-6.1782,-5.9513,0.0,0.0,0.0,0.0,0.0,0.0,0.0,0.0,0.0,0.0,0.0,0.0,0.0,0.0,0.0,0.0,0.0,0.0,0.0,-4.6178,-5.0429,-5.219,0.0,0.0,0.0,0.0,0.0,0.0,0.0,0.0,0.0,-6.2838,-6.483,-6.6424,0.0,0.0,-6.8525,-6.7619,-6.8742,-6.9684,-6.9684,-6.9756,0.0,-7.0589,-6.9466,-6.9285,-7.1494,-7.2195,-7.1701,-6.9548,-6.9725,-6.9096,-6.5882,-6.5541,-6.5065,-6.3175,-6.2179,-6.1781,-6.198,-6.2013,-6.2122,-6.2345,-6.2917,-6.3348,-6.1605,-5.8186,-5.7587,-5.8248,-5.9775,-5.9942,-6.1799,-6.478,-6.4898,-6.4684,-6.4247,-6.5029,-6.3541,-6.037,-6.0026,0.0,0.0,0.0,-6.4458,-6.6942,-6.7935,-6.9234,-7.0686,-7.1183,-7.1718,-7.2138,-7.1527,-7.1794,-7.2979,-7.2291,-6.6865,-5.7237,0.0,0.0,-5.7848,-6.3121,-6.7018,-6.9196,-7.168,-7.2979,-7.2979,-7.2338,-7.1509,-7.0476,-7.0092,-6.9819,-6.9712,-6.9654,-6.8218,-6.523,-6.3594,-6.1168,0.0,0.0,0.0,0.0,0.0,0.0,0.0,0.0,0.0,0.0,0.0,-4.4824,-4.1343,0.0,0.0,0.0,-4.9184,-5.0053,-5.1321,-5.4943,0.0,0.0,0.0,0.0,0.0,0.0,0.0,-6.1716,-6.4178,-6.6025,-6.7329,-6.8597,-6.9104,-6.8343,-6.9321,-6.9865,-6.9213,0.0,-7.1784,-7.1784,-7.2146,-7.2617,-7.3088,-7.2001,-7.1748,-7.3595,-7.3823,-7.3471,-7.2467,-7.2086,-7.1261,-6.9446,-6.8239,-6.7181,-6.5841,-6.5303,-6.4664,-6.3902,-6.3935,-6.42,-6.4498,-6.4564,-6.463,-6.5595,-6.5338,-6.2401,-6.1924,-6.3112,-6.3608,-6.4721,-6.6165,-6.702,-6.7411,-6.76,-6.8866,-6.7751,-6.4894,-6.4076,0.0,-6.8317,-6.912,-7.0686,-7.2979,-7.2979,-7.2979,-7.2979,-7.2979,-7.3017,-7.3055,-7.145,-7.1565,-7.3093,-7.1603,-6.9655,-6.7477,-6.74,-6.7171,-6.6751,-6.7095,-6.9196,-7.2979,-7.317,-7.3191,-7.3119,-7.2151,-7.1156,-7.0209,-6.9945,-6.9741,-6.9599,-6.9479,-6.9388,-6.9207,-6.5765,-6.3744,-6.3518,0.0,0.0,0.0,0.0,0.0,0.0,0.0,0.0,0.0,0.0,0.0,0.0,0.0,0.0,0.0,-5.8021,0.0,-6.0701,-6.0928,0.0,0.0,0.0,-5.7876,-5.9108,-6.1716,-6.378,-6.483,0.0,0.0,-7.0553,-7.1241,-7.1422,-7.0734,-7.1241,-7.1929,-7.2509,-7.3233,-7.3888,-7.3776,-7.3816,-7.3921,-7.3993,-7.3957,-7.3993,-7.4033,-7.4066,-7.4037,-7.3724,-7.373,-7.3288,-7.1973,-7.1217,-7.0199,-6.9178,-6.8116,-6.7074,-6.4995,-6.5127,-6.579,-6.6353,-6.6485,-6.6651,-6.8054,-6.8017,-6.7871,-6.6953,-6.5705,-6.6386,-6.7247,-6.822,-6.8777,-6.9374,-7.0004,-7.102,-7.1251,-7.0877,-7.0686,-7.103,-7.1794,-7.1985,-7.2444,-7.2979,-7.2979,-7.2979,-7.2979,-7.2979,-7.3323,-7.3858,-7.3476,-7.3858,-7.4851,-7.4507,-7.3972,-7.3437,-7.3399,-7.1145,-6.7018,-7.0495,-7.2902,-7.3896,-7.4584,-7.4709,-7.4275,-7.3363,-7.2755,-7.2505,-7.1965,-7.156,-7.1411,-7.1229,-7.0822,-7.0149,-6.9176,-6.838,-6.7721,-5.9605,0.0,0.0,0.0,0.0,0.0,0.0,0.0,0.0,0.0,-5.2839,-4.7554,0.0,-5.4001,0.0,-6.4215,-6.4975,-6.0375,-6.2078,0.0,0.0,-6.0955,-6.1027,-6.6025,-6.5663,-6.6243,-6.9466,-7.1024,-7.2183,-7.2979,-7.3233,-7.3269,-7.3088,-7.3233,-7.2979,-7.2038,-7.3052,-7.3888,-7.3925,-7.3961,-7.4106,-7.4754,-7.537,-7.5478,-7.4902,-7.5297,-7.5297,-7.4073,-7.4299,-7.4142,-7.262,-7.1895,-7.0985,-6.9586,-6.89,-6.8272,-6.7131,-6.6937,-6.7102,-6.7301,-6.7334,-6.7367,-6.9449,-6.9486,-6.9926,-6.9339,-6.8128,-6.8568,-6.9135,-6.9769,-7.0264,-7.0822,-7.1524,-7.2601,-7.3227,-7.3552,-7.3934,-7.4087,-7.4087,-7.4087,-7.4316,-7.4622,-7.4278,-7.4316,-7.4622,-7.466,-7.4889,-7.531,-7.5692,-7.615,-7.657,-7.6609,-7.6609,-7.6609,-7.6609,-7.4966,-7.1947,-7.3781,-7.4584,-7.4201,-7.5042,-7.5171,-7.4396,-7.3893,-7.2843,-7.1249,-7.1822,-7.1543,-7.0314,-7.1137,-7.0936,-6.943,-6.9321,-6.914,-6.8597,-6.3309,-6.0883,0.0,0.0,0.0,0.0,0.0,0.0,0.0,0.0,0.0,0.0,0.0,-5.813,-6.0267,-6.5736,-6.7148,-6.2186,-6.4939,-6.7184,-6.751,-6.6279,-6.7003,-7.0879,-7.0118,-7.0154,-7.2327,-7.2979,-7.3414,-7.3849,-7.4214,-7.4464,-7.4464,-7.4754,-7.4537,-7.3486,-7.4211,-7.4971,-7.4971,-7.4971,-7.5116,-7.5587,-7.6022,-7.613,-7.5804,-7.5985,-7.5985,-7.5116,-7.5267,-7.5175,-7.4188,-7.3473,-7.2692,-7.1631,-7.0584,-6.9826,-6.9367,-6.8851,-6.8473,-6.8175,-6.8109,-6.8175,-7.0257,-7.0257,-7.0367,-7.0403,-7.0403,-7.0513,-7.0669,-7.087,-7.1312,-7.1927,-7.2752,-7.3932,-7.4531,-7.4736,-7.5501,-7.5806,-7.5806,-7.5806,-7.6188,-7.68,-7.615,-7.6188,-7.6876,-7.6876,-7.6876,-7.6914,-7.764,-7.8022,-7.8022,-7.8022,-7.8022,-7.8022,-7.8022,-7.7946,-7.7793,-7.6494,-7.5462,-7.4698,-7.4992,-7.4731,-7.3868,-7.3705,-7.2111,-6.9133,-7.1135,-7.1241,-6.9014,-7.0796,-7.091,-6.8953,-6.8778,-6.8778,-6.8742,-6.7547,-6.5844,0.0,-6.244,0.0,0.0,0.0,0.0,0.0,0.0,0.0,0.0,-6.3744,-6.32,-5.9905,-6.5808,-6.8663,-6.5844,-6.8778,-7.1096,-7.1748,-7.2436,-7.316,-7.3812,-7.3888,-7.3957,-7.4033,-7.4033,-7.4102,-7.4283,-7.4863,-7.5261,-7.5264,-7.5768,-7.5877,-7.5442,-7.5768,-7.6167,-7.6275,-7.6275,-7.613,-7.6203,-7.6275,-7.6275,-7.6275,-7.6275,-7.6275,-7.6203,-7.6239,-7.6172,-7.5931,-7.5156,-7.4421,-7.4111,-7.2548,-7.1365,-7.0929,-7.0196,-6.95,-6.9003,-6.8837,-6.9036,-7.1064,-7.1109,-7.1762,-7.2055,-7.2092,-7.2753,-7.2333,-7.1195,-7.1305,-7.2606,-7.4756,-7.5401,-7.6275,-7.7278,-7.7449,-7.7526,-7.7526,-7.7526,-7.7602,-7.7755,-7.7602,-7.7602,-7.7755,-7.7755,-7.7755,-7.7755,-7.7908,-7.8022,-7.8022,-7.8022,-7.8022,-7.8022,-7.8022,-7.764,-7.6991,0.0,0.0,0.0,-7.4667,-7.3204,-7.3041,-7.2232,-7.148,-7.0832,-7.2988,0.0,-7.3459,-7.3583,-7.3493,-7.3057,-7.2862,0.0,0.0,0.0,0.0,0.0,0.0,0.0,0.0,0.0,0.0,0.0,-6.5917,-6.5518,-6.5084,-6.9176,-7.0299,-6.675,-7.0335,-7.2762,-7.2183,-7.2762,-7.3305,-7.345,-7.3595,-7.3776,-7.3885,-7.3888,-7.4106,-7.4793,-7.4866,-7.5152,-7.5696,-7.5985,-7.6058,-7.6022,-7.6203,-7.6239,-7.6094,-7.6167,-7.6275,-7.6275,-7.6275,-7.6275,-7.6275,-7.6275,-7.6275,-7.6275,-7.6275,-7.6275,-7.6275,-7.6275,-7.6275,-7.6208,-7.5933,-7.5191,-7.3846,-7.2927,-7.203,-7.0699,-7.0082,-6.9765,-6.9599,-6.9566,-6.9633,-7.3083,0.0,-7.3523,-7.3707,0.0,-7.4111,-7.3991,-7.349,-7.375,-7.4908,-7.6659,-7.6862,-7.7379,-7.8022,-7.8022,-7.8022,-7.8022,-7.8022,-7.8213,-7.8596,-7.8213,-7.8213,-7.8634,-7.8634,-7.8634,-7.8672,-7.9054,-7.9245,-7.9245,-7.9245,-7.9245,-7.9245,-7.9245,-7.9016,-7.8596,-7.877,-7.8444,-7.7607,-7.5872,-7.4734,-7.425,-7.376,-7.2751,-7.1346,-7.3493,0.0,0.0,0.0,0.0,0.0,0.0,0.0,0.0,0.0,0.0,-7.0314,-6.8047,-6.6858,-6.7257,-6.7263,-6.8313,-7.0698,-7.1313,-7.1024,-6.9792,-7.2291,-7.3088,-7.1205,-7.2798,-7.3888,-7.3888,-7.3888,-7.4066,-7.4428,-7.4468,-7.4645,-7.5008,-7.508,-7.5261,-7.5587,-7.5696,-7.5877,-7.6239,-7.6275,-7.6275,-7.6275,-7.6275,-7.6275,-7.6275,-7.6275,-7.6275,-7.6275,-7.6275,-7.6275,-7.6275,-7.6275,-7.6275,-7.6275,-7.6275,-7.6275,-7.6275,-7.6275,-7.6275,-7.6275,-7.614,-7.5655,-7.4864,-7.3803,-7.2707,-7.1805,-7.0757,-7.0035,-6.9988,-6.9893,-6.9798,-7.4888,-7.4888,-7.4888,-7.4888,-7.4888,-7.5065,-7.5576,-7.6297,0.0,0.0,0.0,-7.8177,-7.8328,-7.8443,-7.8443,-7.8443,-7.8443,-7.8443,-7.8825,-7.9493,-7.8748,-7.8825,-7.9513,-7.9513,-7.9531,-7.9569,-8.02,-8.0506,-8.0506,-8.0506,-8.0506,-8.0506,-8.0506,-8.043,-8.0354,-7.9937,-7.8939,-7.7401,-7.6948,-7.6296,-7.549,-7.5392,-7.4127,-7.1618,-7.3896,-7.4165,-7.2144,-7.3867,-7.3889,-7.1842,-7.1824,-7.1824,-7.1604,-7.1604,-7.2512,-7.4401,-7.4421,-7.4356,-7.4319,-7.4319,-7.4319,-7.4319,-7.4935,-7.4938,-7.4211,-7.4247,-7.4356,-7.4319,-7.4319,-7.4356,-7.4356,-7.4319,-7.4609,-7.5261,-7.5334,-7.5587,-7.6167,-7.6275,-7.6239,-7.6275,-7.6239,-7.6275,-7.6275,-7.6275,-7.6275,-7.6275,-7.6275,-7.6275,-7.6275,-7.6275,-7.6275,-7.6275,-7.6275,-7.6275,-7.6275,-7.6275,-7.6275,-7.6275,-7.6275,-7.6275,-7.6275,-7.6275,-7.6275,-7.6275,-7.614,-7.5969,-7.5761,-7.4517,-7.3409,-7.317,-7.1804,-7.0576,-7.0576,-7.0254,-6.9964,-7.4888,-7.4888,-7.4888,-7.4888,-7.4955,-7.5652,-7.6875,-7.8329,-7.7568,-7.7661,-7.8453,-7.8923,-7.9513,-8.0162,-8.0124,-8.0162,-8.0162,-8.0124,-8.02,-8.0315,-8.02,-8.02,-8.0353,-8.0315,-8.0315,-8.0353,-8.0468,-8.0506,-8.0506,-8.0506,-8.0506,-8.0506,-8.0506,-8.0296,-7.9836,-7.973,-7.9128,-7.799,-7.5913,-7.4818,-7.4662,-7.4219,-7.3794,-7.3487,-7.5659,-7.6803,-7.6436,-7.6575,-7.6486,-7.5967,-7.5839,-7.5709,-7.5508,-7.5436,-7.5657,-7.5946,-7.5983,-7.5949,-7.5949,-7.5949,-7.5949,-7.5949,-7.6058,-7.5768,-7.508,-7.5587,-7.5949,-7.5949,-7.5877,-7.5949,-7.5949,-7.5877,-7.5913,-7.6058,-7.6094,-7.6167,-7.6275,-7.6275,-7.6275,-7.6275,-7.6275,-7.6275,-7.6275,-7.6275,-7.6275,-7.6275,-7.6275,-7.6311,-7.6348,-7.6275,-7.6275,-7.6275,-7.6275,-7.6275,-7.6275,-7.6275,-7.6275,-7.6275,-7.6311,-7.6384,-7.6384,-7.6456,-7.6492,-7.6348,-7.6423,-7.6148,-7.555,-7.4756,-7.4194,-7.3634,-7.2711,-7.2114,-7.2018,-7.1365,-7.0608,-7.6203,-7.6209,-7.6173,-7.6173,-7.627,-7.7227,-7.8096,-7.8889,-7.8997,-7.9245,-7.957,-7.982,-8.0124,-8.0468,-8.0506,-8.0506,-8.0506,-8.0506,-8.0506,-8.0506,-8.0506,-8.0506,-8.0506,-8.0506,-8.0506,-8.0506,-8.0506,-8.0506,-8.0506,-8.0506,-8.0506,-8.0506,-8.0506,-8.0373,-8.0139,-7.9836,-7.9449,-7.894,-7.7297,-7.6292,-7.6056,-7.5801,-7.5652,-7.5689,-7.676,-7.731,-7.731,-7.7248,-7.7155,-7.6998,-7.6966,-7.6902,-7.6773,-7.6741,-7.6741,-7.6705,-7.6607,-7.6574,-7.6574,-7.6512,-7.6412,-7.6345,-7.6412,-7.63,-7.5937,-7.6161,-7.6275,-7.6275,-7.6275,-7.6275,-7.6275,-7.6275,-7.6275,-7.6275,-7.6275,-7.6275,-7.6275,-7.6275,-7.6275,-7.6275,-7.6275,-7.6275,-7.6275,-7.6275,-7.6275,-7.6275,-7.6311,-7.642,-7.6891,-7.6963,-7.6782,-7.6384,-7.6275,-7.6275,-7.6311,-7.6275,-7.6275,-7.6275,-7.6674,-7.6891,-7.7,-7.7217,-7.7543,-7.7579,-7.7579,-7.7476,-7.7019,-7.6506,-7.5799,-7.4976,-7.4106,-7.3513,-7.2895,-7.2219,-7.1316,-7.731,-7.7273,-7.7457,-7.754,-7.7739,-7.8665,-7.9061,-7.9157,-8.0081,-8.0506,-8.0506,-8.0506,-8.0506,-8.0506,-8.0506,-8.0506,-8.0506,-8.0506,-8.0506,-8.0506,-8.0506,-8.0506,-8.0506,-8.0506,-8.0506,-8.0506,-8.0506,-8.0506,-8.0506,-8.0506,-8.0506,-8.0506,-8.0506,-8.043,-8.0277,-7.9916,-7.9665,-7.9471,-7.86,-7.7903,-7.748,-7.7365,-7.7273,-7.731,-7.7273,-7.731,-7.731,-7.731,-7.7248,-7.7124,-7.7217,-7.715,-7.7061,-7.7029,-7.7029,-7.7029,-7.6866,-7.6838,-7.6806,-7.6676,-7.6581,-7.6409,-7.6545,-7.6647,-7.6614,-7.6445,-7.6378,-7.6378,-7.6378,-7.6378,-7.6345,-7.6378,-7.6378,-7.6309,-7.6345,-7.6378,-7.6309,-7.6275,-7.6275,-7.6275,-7.6275,-7.6275,-7.6311,-7.6456,-7.6674,-7.6891,-7.6818,-7.7108,-7.7651,-7.776,-7.747,-7.7072,-7.6818,-7.6927,-7.6818,-7.6891,-7.6927,-7.6855,-7.7362,-7.7688,-7.7869,-7.8303,-7.8629,-7.8557,-7.8629,-7.8522,-7.8596,-7.8134,-7.7311,-7.6403,-7.5526,-7.465,-7.3393,-7.2916,-7.2193,-7.7304,-7.7365,-7.7826,-7.8309,-7.8766,-7.9358,-7.9621,-7.9686,-8.0238,-8.0506,-8.0506,-8.0506,-8.0506,-8.0506,-8.0506,-8.0506,-8.0506,-8.0506,-8.0506,-8.0506,-8.0506,-8.0506,-8.0506,-8.0506,-8.0506,-8.0506,-8.0506,-8.0506,-8.0506,-8.0506,-8.0506,-8.0506,-8.0506,-8.0296,-7.9836,-7.9751,-7.9471,-7.8964,-7.8416,-7.8063,-7.8016,-7.757,-7.731,-7.731,-7.731,-7.731,-7.731,-7.731,-7.7248,-7.7124,-7.7124,-7.7024,-7.6866,-7.6834,-7.6834,-7.6834,-7.6801,-7.6838,-7.6769,-7.6676,-7.6643,-7.6737,-7.6769,-7.6741,-7.661,-7.6614,-7.6581,-7.6581,-7.6581,-7.6478,-7.6309,-7.6445,-7.6478,-7.6342,-7.6445,-7.6515,-7.6345,-7.6275,-7.6275,-7.6275,-7.6456,-7.6311,-7.6529,-7.7,-7.7615,-7.8159,-7.8195,-7.8303,-7.8557,-7.8593,-7.8629,-7.8521,-7.8484,-7.8412,-7.8376,-7.8448,-7.8267,-7.834,-7.8484,-7.8593,-7.8629,-7.8702,-7.8738,-7.9173,-7.8919,-7.8955,-7.8888,-7.853,-7.828,-7.749,-7.6686,-7.588,-7.4124,-7.3471,-7.3007,-7.748,-7.7797,-7.8016,-7.8416,-7.894,-7.9471,-7.9708,-7.9751,-8.0258,-8.0506,-8.0506,-8.0506,-8.0506,-8.0506,-8.0506,-8.0506,-8.0506,-8.0506,-8.0506,-8.0506,-8.0506,-8.0506,-8.0506,-8.0506,-8.0506,-8.0506,-8.0506,-8.0506,-8.0506,-8.0506,-8.0506,-8.0506,-8.0506,-8.0392,-8.0179,-8.0179,-8.004,-7.9815,-7.8989,-7.8562,-7.8458,-7.7739,-7.731,-7.731,-7.731,-7.731,-7.731,-7.731,-7.7279,-7.7248,-7.7217,-7.7186,-7.7087,-7.7087,-7.7087,-7.7087,-7.7087,-7.7056,-7.6961,-7.6934,-7.687,-7.6838,-7.6897,-7.6966,-7.6902,-7.6966,-7.6998,-7.687,-7.6676,-7.6578,-7.661,-7.661,-7.6581,-7.6478,-7.6445,-7.6412,-7.6309,-7.671,-7.7,-7.7036,-7.7434,-7.7688,-7.776,-7.7977,-7.834,-7.8666,-7.8738,-7.8919,-7.9318,-7.9426,-7.9643,-8.0006,-8.0114,-7.968,-7.9028,-7.8702,-7.8738,-7.881,-7.9136,-7.939,-7.9462,-7.9897,-8.0151,-8.0078,-8.0006,-8.0006,-8.0223,-8.0045,-7.9784,-7.8784,-7.7457,-7.6439,-7.4839,-7.4597,-7.4235,-7.7739,-7.809,-7.8416,-7.8841,-7.9381,-7.9751,-7.9916,-7.9958,-8.0335,-8.0506,-8.0506,-8.0506,-8.0506,-8.0506,-8.0506,-8.0506,-8.0506,-8.0506,-8.0506,-8.0506,-8.0506,-8.0506,-8.0506,-8.0506,-8.0506,-8.0506,-8.0506,-8.0506,-8.0506,-8.0506,-8.0506,-8.0506,-8.0506,-8.0506,-8.0506,-8.0506,-8.0411,-8.0199,-7.9358,-7.8841,-7.8562,-7.7797,-7.731,-7.731,-7.731,-7.731,-7.731,-7.731,-7.731,-7.731,-7.731,-7.731,-7.731,-7.731,-7.731,-7.731,-7.7243,-7.7248,-7.7155,-7.7124,-7.7061,-7.6998,-7.7275,-7.7485,-7.749,-7.7699,-7.784,-7.7788,-7.7527,-7.7429,-7.7134,-7.7218,-7.7298,-7.7268,-7.7098,-7.7031,-7.707,-7.7507,-7.7833,-7.7905,-7.8267,-7.881,-7.8955,-7.9028,-7.9136,-7.939,-7.9462,-7.9499,-8.0078,-8.0259,-8.044,-8.102,-8.1092,-8.0621,-7.9571,-7.9499,-7.9354,-7.9462,-7.9933,-8.0223,-8.0223,-8.0802,-8.1092,-8.0658,-8.0984,-8.1056,-8.0802,-8.0876,-8.0693,-7.9487,-7.8259,-7.6918,-7.5383,-7.534,-7.5131,-7.81,-7.8255,-7.918,-7.9916,-8.0411,-8.045,-8.043,-8.0392,-8.0487,-8.0506,-8.0506,-8.0506,-8.0506,-8.0506,-8.0506,-8.0506,-8.0506,-8.0506,-8.0506,-8.0506,-8.0506,-8.0506,-8.0506,-8.0506,-8.0506,-8.0506,-8.0506,-8.0506,-8.0506,-8.0506,-8.0506,-8.0506,-8.0506,-8.0506,-8.0506,-8.0506,-8.0238,-7.9773,-7.9218,-7.8665,-7.8146,-7.7629,-7.731,-7.731,-7.731,-7.731,-7.731,-7.731,-7.731,-7.731,-7.731,-7.731,-7.731,-7.731,-7.731,-7.7273,-7.7186,-7.7186,-7.7316,-7.726,-7.7228,-7.7395,-7.8086,-7.8458,-7.8332,-7.8839,-7.9206,-7.9357,-7.9251,-7.8934,-7.8289,-7.8548,-7.8814,-7.8753,-7.8795,-7.869,-7.8555,-7.8555,-7.8629,-7.8666,-7.881,-7.9209,-7.9752,-7.9861,-8.0151,-8.0621,-8.0911,-8.0911,-8.0875,-8.0984,-8.102,-8.1056,-8.1092,-8.1092,-8.0984,-8.0621,-8.073,-8.0766,-8.0694,-8.1056,-8.1056,-8.1092,-8.1165,-8.1237,-8.1418,-8.1454,-8.1201,-8.0839,-8.0464,-7.9613,-7.8743,-7.7441,-7.6326,-7.5633,-7.531,-7.8521,-7.9194,-7.9916,-8.0335,-8.0506,-8.0506,-8.0506,-8.0506,-8.0506,-8.0506,-8.0506,-8.0506,-8.0506,-8.0506,-8.0506,-8.0506,-8.0506,-8.0506,-8.0506,-8.0506,-8.0506,-8.0506,-8.0506,-8.0506,-8.0506,-8.0506,-8.0506,-8.0506,-8.0506,-8.0506,-8.0506,-8.0506,-8.0506,-8.0506,-8.0506,-8.0506,-8.0219,-7.9708,-7.9157,-7.8639,-7.8128,-7.7599,-7.731,-7.731,-7.731,-7.731,-7.731,-7.731,-7.731,-7.731,-7.731,-7.731,-7.731,-7.731,-7.731,-7.7273,-7.7279,-7.7499,-7.8007,-7.8086,-7.8306,-7.8883,-7.9176,-7.936,-7.9333,-7.9521,-7.97,-7.9778,-8.0218,-8.0223,-7.9975,-7.9621,-7.9373,-7.9344,-7.9212,-7.9148,-7.9117,-7.9378,-7.9673,-7.9745,-7.9967,-8.0368,-8.0513,-8.0694,-8.0802,-8.102,-8.1092,-8.1128,-8.1128,-8.1092,-8.1165,-8.1128,-8.1128,-8.1309,-8.1853,-8.1346,-8.1128,-8.1273,-8.1382,-8.1708,-8.1853,-8.2287,-8.2468,-8.2396,-8.2396,-8.236,-8.2324,-8.2251,-8.1585,-8.0887,-7.9873,-7.8825,-7.764,-7.7051,-7.6306,-7.9147,-7.9958,-8.0354,-8.0659,-8.0926,-8.0926,-8.1079,-8.127,-8.1308,-8.1308,-8.1308,-8.1308,-8.1308,-8.1308,-8.1308,-8.1308,-8.1232,-8.0773,-8.0506,-8.0506,-8.0506,-8.0506,-8.0544,-8.0773,-8.0926,-8.0964,-8.1194,-8.1308,-8.1308,-8.1308,-8.1308,-8.1308,-8.1308,-8.1308,-8.127,-8.1079,-8.0674,-8.0175,-7.9362,-7.8752,-7.8453,-7.8137,-7.7938,-7.8012,-7.8196,-7.7995,-7.7378,-7.7561,-7.7745,-7.7745,-7.7965,-7.8002,-7.7781,-7.7745,-7.7745,-7.7714,-7.8002,-7.8369,-7.8883,-7.8993,-7.9213,-7.9727,-8.0057,-8.0204,-8.0204,-8.0424,-8.0534,-8.0718,-8.1012,-8.1379,-8.1236,-8.0768,-8.0341,-8.0276,-8.0074,-7.9974,-8.0011,-8.0351,-8.0504,-8.0544,-8.0765,-8.102,-8.1092,-8.1092,-8.1092,-8.1092,-8.1092,-8.1165,-8.1418,-8.1491,-8.1635,-8.1817,-8.1998,-8.2215,-8.2541,-8.236,-8.2215,-8.2287,-8.2287,-8.2541,-8.2794,-8.3265,-8.3555,-8.3555,-8.3519,-8.3519,-8.3483,-8.3519,-8.3074,-8.2421,-8.1581,-8.0492,-7.9487,-7.8637,-7.7797,-8.0037,-8.0564,-8.0544,-8.1117,-8.1767,-8.1805,-8.2225,-8.2722,-8.2837,-8.2722,-8.2684,-8.2837,-8.2722,-8.2837,-8.2684,-8.2875,-8.2531,-8.1385,-8.0773,-8.0735,-8.0735,-8.0697,-8.0773,-8.1461,-8.1805,-8.1843,-8.2531,-8.2875,-8.2798,-8.2722,-8.276,-8.2894,-8.276,-8.2684,-8.2913,-8.213,-8.1672,-8.1113,-7.9953,-7.9252,-7.9289,-7.9382,-7.9354,-7.9334,-7.9965,-7.9446,-7.7555,-7.8185,-7.8589,-7.8662,-7.925,-7.936,-7.8699,-7.8589,-7.8626,-7.8699,-7.9286,-7.969,-7.98,-7.98,-7.98,-8.0131,-8.0608,-8.1012,-8.1085,-8.1562,-8.1929,-8.1929,-8.2003,-8.2113,-8.2113,-8.2113,-8.1937,-8.1882,-8.1492,-8.1391,-8.1467,-8.1441,-8.1269,-8.1091,-8.1128,-8.1128,-8.1128,-8.1164,-8.1164,-8.1237,-8.1165,-8.1382,-8.1925,-8.2106,-8.2541,-8.3084,-8.312,-8.3048,-8.3301,-8.3483,-8.3483,-8.3519,-8.3446,-8.3519,-8.3555,-8.3917,-8.4171,-8.4207,-8.4243,-8.4243,-8.4279,-8.4206,-8.3838,-8.3193,-8.2553,-8.2084,-8.1035,-8.0061,-7.912,-8.1575,-8.2187,-8.2225,-8.2378,-8.2607,-8.2607,-8.2798,-8.299,-8.299,-8.299,-8.299,-8.299,-8.299,-8.3028,-8.299,-8.3028,-8.2951,-8.2416,-8.2225,-8.2225,-8.2187,-8.2187,-8.2225,-8.2493,-8.2607,-8.2646,-8.2837,-8.3028,-8.3028,-8.3028,-8.299,-8.299,-8.3028,-8.299,-8.3066,-8.2741,-8.2423,-8.1945,-8.1475,-8.1027,-8.0776,-8.0762,-8.0603,-8.0265,-8.0459,-8.0059,-7.9129,-7.9286,-7.9396,-7.9433,-7.9653,-7.969,-7.947,-7.9433,-7.9396,-7.9433,-7.9617,-8.0094,-8.0571,-8.0645,-8.0865,-8.1305,-8.1672,-8.1782,-8.1819,-8.2039,-8.2186,-8.2186,-8.2186,-8.2186,-8.226,-8.2737,-8.2741,-8.2157,-8.2055,-8.2062,-8.2065,-8.179,-8.1478,-8.134,-8.1305,-8.1452,-8.1743,-8.167,-8.1597,-8.1816,-8.1527,-8.1527,-8.2143,-8.2468,-8.2613,-8.3301,-8.341,-8.3845,-8.4135,-8.4388,-8.446,-8.446,-8.4424,-8.4316,-8.4388,-8.4533,-8.4786,-8.4895,-8.4931,-8.4931,-8.4968,-8.4856,-8.4522,-8.4631,-8.4511,-8.3638,-8.2395,-8.1366,-8.0442,-8.2531,-8.299,-8.299,-8.3181,-8.3448,-8.3486,-8.3677,-8.3907,-8.3945,-8.3907,-8.3945,-8.3945,-8.3907,-8.3945,-8.3907,-8.3907,-8.3945,-8.3945,-8.3945,-8.3792,-8.3181,-8.3028,-8.3066,-8.3372,-8.3677,-8.3907,-8.3945,-8.3945,-8.3907,-8.3907,-8.3945,-8.3945,-8.3907,-8.3945,-8.3868,-8.3639,-8.3326,-8.3095,-8.2513,-8.2149,-8.2179,-8.2144,-8.1934,-8.1472,-8.1652,-8.145,-8.0772,-8.0681,-8.0534,-8.0314,-8.0241,-8.0241,-8.0241,-8.0241,-8.0241,-8.0314,-8.0534,-8.0938,-8.1379,-8.1452,-8.1636,-8.2113,-8.2186,-8.2186,-8.2186,-8.2186,-8.2186,-8.2186,-8.2186,-8.2186,-8.2296,-8.292,-8.3104,-8.2737,-8.2994,-8.2997,-8.2968,-8.2766,-8.2596,-8.2532,-8.2497,-8.2609,-8.2755,-8.2648,-8.243,-8.2722,-8.236,-8.2287,-8.2903,-8.3229,-8.3627,-8.4062,-8.4533,-8.4859,-8.5076,-8.5221,-8.5366,-8.5366,-8.533,-8.5221,-8.5185,-8.533,-8.5547,-8.5511,-8.5511,-8.5475,-8.5511,-8.5583,-8.5471,-8.5873,-8.5871,-8.4859,-8.3519,-8.2686,-8.1738,-8.3104,-8.3104,-8.3142,-8.3677,-8.4327,-8.4365,-8.4709,-8.532,-8.5397,-8.532,-8.5358,-8.5282,-8.5358,-8.5435,-8.5244,-8.5244,-8.5473,-8.532,-8.5244,-8.49,-8.4059,-8.341,-8.3524,-8.4059,-8.4671,-8.5206,-8.532,-8.5358,-8.5206,-8.5244,-8.5473,-8.5282,-8.5244,-8.5435,-8.5167,-8.4671,-8.4452,-8.436,-8.3231,-8.2943,-8.3506,-8.3544,-8.3266,-8.2695,-8.3243,-8.3125,-8.2118,-8.1929,-8.1709,-8.1158,-8.1048,-8.1085,-8.1048,-8.1085,-8.1085,-8.1085,-8.1782,-8.1966,-8.215,-8.2039,-8.2113,-8.215,-8.2186,-8.2186,-8.2186,-8.2186,-8.2186,-8.2186,-8.2186,-8.2223,-8.2443,-8.3104,-8.3544,-8.3765,-8.4095,-8.4248,-8.4296,-8.4191,-8.3904,-8.391,-8.4057,-8.413,-8.4023,-8.3844,-8.3701,-8.3774,-8.352,-8.3592,-8.4098,-8.4352,-8.4968,-8.5257,-8.5402,-8.5475,-8.5511,-8.5547,-8.5656,-8.5656,-8.5692,-8.5692,-8.5656,-8.5801,-8.5909,-8.5909,-8.5909,-8.5909,-8.5909,-8.5909,-8.5909,-8.5909,-8.5721,-8.5339,-8.472,-8.3803,-8.2979,-8.4289,-8.4824,-8.4862,-8.4976,-8.5167,-8.5206,-8.5282,-8.5511,-8.5511,-8.5511,-8.5511,-8.5511,-8.5511,-8.5511,-8.5511,-8.5511,-8.5511,-8.5511,-8.5511,-8.5435,-8.5129,-8.4862,-8.4862,-8.5053,-8.5282,-8.5511,-8.5511,-8.5511,-8.5511,-8.5511,-8.5511,-8.5511,-8.5511,-8.5511,-8.5435,-8.5244,-8.5242,-8.5235,-8.4909,-8.4642,-8.4833,-8.4909,-8.4484,-8.3688,-8.3798,-8.3349,-8.2311,-8.2186,-8.2113,-8.1929,-8.1893,-8.1856,-8.1819,-8.1819,-8.1819,-8.1856,-8.2003,-8.2186,-8.2186,-8.2186,-8.2186,-8.2186,-8.2186,-8.2186,-8.2186,-8.2186,-8.2186,-8.2186,-8.2186,-8.248,-8.3067,-8.3801,-8.4682,-8.571,-8.527,-8.4722,-8.4615,-8.4369,-8.4266,-8.4231,-8.4304,-8.4562,-8.4749,-8.4497,-8.4245,-8.4464,-8.4209,-8.3845,-8.4605,-8.4859,-8.5185,-8.5583,-8.5764,-8.5837,-8.5873,-8.5873,-8.5873,-8.5837,-8.5837,-8.5837,-8.5801,-8.5873,-8.5909,-8.5909,-8.5909,-8.5909,-8.5909,-8.5909,-8.5909,-8.5909,-8.5797,-8.5569,-8.5378,-8.472,-8.416,-8.5091,-8.5511,-8.5511,-8.5511,-8.5511,-8.5511,-8.5511,-8.5511,-8.5511,-8.5511,-8.5511,-8.5511,-8.5511,-8.5511,-8.5511,-8.5511,-8.5511,-8.5511,-8.5511,-8.5511,-8.5473,-8.5473,-8.5473,-8.5511,-8.5511,-8.5511,-8.5511,-8.5511,-8.5511,-8.5511,-8.5511,-8.5511,-8.5511,-8.5511,-8.5511,-8.5511,-8.5511,-8.5491,-8.5511,-8.5511,-8.5511,-8.5511,-8.4892,-8.4142,-8.3885,-8.3378,-8.2407,-8.2407,-8.2434,-8.2247,-8.2186,-8.2186,-8.2186,-8.2186,-8.2186,-8.2186,-8.2186,-8.2186,-8.2186,-8.2186,-8.2186,-8.2186,-8.2186,-8.2186,-8.2186,-8.2186,-8.226,-8.27,-8.27,-8.3104,-8.3838,-8.4609,-8.5637,-8.6554,-8.6151,-8.56,-8.56,-8.5571,-8.5463,-8.5429,-8.5429,-8.5504,-8.5912,-8.5439,-8.5334,-8.541,-8.5118,-8.5044,-8.5186,-8.5185,-8.5257,-8.5692,-8.5909,-8.5909,-8.5909,-8.5909,-8.5909,-8.5909,-8.5909,-8.5909,-8.5909,-8.5909,-8.5909,-8.5909,-8.5909,-8.5909,-8.5909,-8.5909,-8.5909,-8.5909,-8.5909,-8.5871,-8.5644,-8.5339,-8.4792,-8.5511,-8.5511,-8.5511,-8.5511,-8.5511,-8.5511,-8.5511,-8.5511,-8.5511,-8.5511,-8.5511,-8.5511,-8.5511,-8.5511,-8.5511,-8.5511,-8.5511,-8.5511,-8.5511,-8.5511,-8.5511,-8.5511,-8.5511,-8.5511,-8.5511,-8.5511,-8.5511,-8.5511,-8.5511,-8.5511,-8.5511,-8.5511,-8.5511,-8.5511,-8.5511,-8.5511,-8.5511,-8.5511,-8.5511,-8.5511,-8.5511,-8.5471,-8.4937,-8.4066,-8.3726,-8.3368,-8.28,-8.2739,-8.2732,-8.2311,-8.2251,-8.2186,-8.2186,-8.2186,-8.2186,-8.226,-8.2333,-8.237,-8.226,-8.2296,-8.237,-8.2406,-8.2406,-8.2406,-8.259,-8.2737,-8.2957,-8.3471,-8.3544,-8.3948,-8.4646,-8.5453,-8.6151,-8.6848,-8.6921,-8.6995,-8.7031,-8.7031,-8.7031,-8.7031,-8.696,-8.6995,-8.6925,-8.6821,-8.6571,-8.6063,-8.581,-8.57,-8.5698,-8.566,-8.5695,-8.5801,-8.5909,-8.5909,-8.5909,-8.5909,-8.5909,-8.5909,-8.5909,-8.5909,-8.5909,-8.5909,-8.5909,-8.5909,-8.5909,-8.5909,-8.5909,-8.5909,-8.5909,-8.5909,-8.5909,-8.5909,-8.5871,-8.5417,-8.4992,-8.5511,-8.5511,-8.5511,-8.5511,-8.5511,-8.5511,-8.5511,-8.5511,-8.5511,-8.5511,-8.5511,-8.5511,-8.5511,-8.5511,-8.5511,-8.5511,-8.5511,-8.5511,-8.5511,-8.5511,-8.5511,-8.5511,-8.5511,-8.5511,-8.5511,-8.5511,-8.5511,-8.5511,-8.5511,-8.5511,-8.5511,-8.5511,-8.5511,-8.5511,-8.5511,-8.5511,-8.5511,-8.5511,-8.5511,-8.5511,-8.5511,-8.5491,-8.498,-8.4041,-8.3563,-8.3424,-8.3452,-8.3169,-8.2972,-8.2769,-8.2508,-8.237,-8.2296,-8.226,-8.2296,-8.248,-8.2884,-8.2884,-8.248,-8.2847,-8.3177,-8.3141,-8.3177,-8.3434,-8.4058,-8.3985,-8.4095,-8.4352,-8.4352,-8.4682,-8.5453,-8.6261,-8.6701,-8.6958,-8.7031,-8.7031,-8.7031,-8.7031,-8.7031,-8.7031,-8.7031,-8.7031,-8.6997,-8.6856,-8.6715,-8.6608,-8.6465,-8.6247,-8.6137,-8.6099,-8.6025,-8.5986,-8.5948,-8.5948,-8.5909,-8.5909,-8.5909,-8.5909,-8.5909,-8.609,-8.609,-8.5909,-8.5909,-8.5909,-8.5909,-8.5909,-8.5909,-8.5909,-8.5909,-8.5909,-8.5909,-8.5909,-8.5797,-8.5456,-8.5339,-8.5511,-8.5511,-8.5511,-8.5511,-8.5511,-8.5511,-8.5511,-8.5511,-8.5511,-8.5511,-8.5511,-8.5511,-8.5511,-8.5511,-8.5511,-8.5511,-8.5511,-8.5511,-8.5511,-8.5511,-8.5511,-8.5511,-8.5511,-8.5511,-8.5511,-8.5511,-8.5511,-8.5511,-8.5511,-8.5511,-8.5511,-8.5511,-8.5511,-8.5511,-8.5511,-8.5511,-8.5511,-8.5511,-8.5511,-8.5511,-8.5511,-8.5491,-8.5148,-8.4438,-8.3951,-8.3874,-8.3832,-8.4029,-8.3805,-8.3574,-8.3382,-8.3104,-8.281,-8.2774,-8.292,-8.3361,-8.3654,-8.3801,-8.3581,-8.3691,-8.3985,-8.3985,-8.3985,-8.4205,-8.4499,-8.4609,-8.4829,-8.5049,-8.5233,-8.549,-8.6261,-8.6628,-8.6995,-8.7031,-8.7031,-8.7031,-8.7031,-8.7031,-8.7031,-8.7031,-8.7031,-8.7031,-8.6962,-8.6856,-8.6786,-8.6679,-8.6643,-8.6465,-8.632,-8.6247,-8.6137,-8.6099,-8.6025,-8.5986,-8.5947,-8.5909,-8.5909,-8.5909,-8.5909,-8.6235,-8.6525,-8.6199,-8.5909,-8.6018,-8.6163,-8.5909,-8.5909,-8.5909,-8.5945,-8.5909,-8.5909,-8.5909,-8.5871,-8.5721,-8.5682,-8.5511,-8.5511,-8.5511,-8.5511,-8.5511,-8.5511,-8.5511,-8.5511,-8.5511,-8.5511,-8.5511,-8.5511,-8.5511,-8.5511,-8.5511,-8.5511,-8.5511,-8.555,-8.555,-8.5817,-8.5588,-8.5702,-8.5741,-8.5664,-8.5511,-8.5511,-8.5511,-8.5511,-8.5511,-8.5511,-8.5511,-8.5511,-8.5511,-8.5511,-8.5511,-8.5511,-8.5511,-8.5511,-8.5511,-8.5511,-8.5511,-8.5511,-8.5249,-8.4914,-8.4869,-8.4692,-8.4606,-8.4824,-8.5002,-8.4554,-8.4653,-8.4437,-8.4081,-8.3654,-8.3838,-8.4535,-8.4646,-8.4609,-8.4425,-8.4609,-8.4792,-8.4792,-8.4792,-8.4903,-8.5013,-8.5196,-8.5453,-8.5747,-8.6004,-8.6224,-8.6921,-8.6995,-8.6995,-8.7031,-8.7031,-8.7031,-8.7031,-8.7031,-8.7031,-8.7031,-8.7031,-8.7031,-8.7031,-8.6962,-8.6856,-8.6821,-8.6749,-8.6679,-8.6501,-8.6392,-8.6283,-8.6137,-8.6099,-8.635,-8.6309,-8.6344,-8.6308,-8.6452,-8.6344,-8.6706,-8.7104,-8.6996,-8.6778,-8.6489,-8.6452,-8.6235,-8.6163,-8.6308,-8.6235,-8.6054,-8.5909,-8.5909,-8.5909,-8.5909,-8.5909,-8.5511,-8.5511,-8.5511,-8.5511,-8.5511,-8.5511,-8.5511,-8.5511,-8.5511,-8.5511,-8.5511,-8.5511,-8.5511,-8.5511,-8.5511,-8.5511,-8.5511,-8.5626,-8.5932,-8.6275,-8.6008,-8.5855,-8.6275,-8.5779,-8.555,-8.5511,-8.5511,-8.5511,-8.5511,-8.5511,-8.5511,-8.5511,-8.5511,-8.5511,-8.5511,-8.5511,-8.5511,-8.5511,-8.5511,-8.5511,-8.5626,-8.5644,-8.5586,-8.546,-8.5605,-8.5682,-8.5696,-8.5887,-8.6057,-8.5947,-8.5552,-8.5689,-8.5756,-8.5115,-8.4746,-8.4866,-8.5306,-8.5416,-8.5049,-8.5306,-8.5527,-8.56,-8.56,-8.5967,-8.6297,-8.6518,-8.6444,-8.6554,-8.6701,-8.6848,-8.6995,-8.7031,-8.7031,-8.7031,-8.7031,-8.7031,-8.7031,-8.7031,-8.7031,-8.7031,-8.7031,-8.7031,-8.7031,-8.7031,-8.6925,-8.6891,-8.6891,-8.6821,-8.6715,-8.6572,-8.6465,-8.6283,-8.61,-8.6459,-8.678,-8.6851,-8.6923,-8.7322,-8.743,-8.7611,-8.7901,-8.7937,-8.7793,-8.7756,-8.7213,-8.6742,-8.6706,-8.667,-8.638,-8.6018,-8.5945,-8.5909,-8.5909,-8.5909,-8.5909,-8.5511,-8.5511,-8.5511,-8.5511,-8.5511,-8.5511,-8.5511,-8.5511,-8.5511,-8.5511,-8.5511,-8.5511,-8.5511,-8.5511,-8.5511,-8.5511,-8.5588,-8.6046,-8.639,-8.6658,-8.6428,-8.6352,-8.6734,-8.597,-8.5588,-8.5511,-8.5511,-8.5511,-8.5511,-8.5511,-8.5511,-8.5511,-8.5511,-8.5511,-8.5511,-8.5511,-8.5511,-8.5511,-8.555,-8.5741,-8.6123,-8.6161,-8.6161,-8.6233,-8.6358,-8.6611,-8.7034,-8.7244,-8.7374,-8.7358,-8.7267,-8.7424,-8.734,-8.6908,-8.6115,-8.5959,-8.6151,-8.6297,-8.593,-8.6261,-8.6407,-8.6407,-8.6407,-8.6591,-8.6885,-8.6958,-8.7031,-8.7031,-8.7031,-8.7031,-8.7031,-8.7031,-8.7031,-8.7031,-8.7031,-8.7031,-8.7031,-8.7031,-8.7031,-8.7031,-8.7031,-8.7031,-8.7031,-8.7031,-8.7031,-8.7031,-8.7031,-8.6925,-8.6856,-8.6786,-8.6643,-8.6356,-8.6173,-8.6277,-8.678,-8.7104,-8.743,-8.7901,-8.8372,-8.8589,-8.8626,-8.8626,-8.906,-8.935,-8.8626,-8.7285,-8.6851,-8.6634,-8.6308,-8.6018,-8.5945,-8.5909,-8.5909,-8.5909,-8.5909,-8.5511,-8.5511,-8.5511,-8.5511,-8.5511,-8.5511,-8.5511,-8.5511,-8.5511,-8.5511,-8.5511,-8.5511,-8.5511,-8.5511,-8.555,-8.5588,-8.5779,-8.6523,-8.6943,-8.7384,-8.7192,-8.7116,-8.704,-8.6314,-8.5855,-8.5893,-8.555,-8.5511,-8.5511,-8.5511,-8.5511,-8.5511,-8.5511,-8.5511,-8.5511,-8.5511,-8.5511,-8.555,-8.5741,-8.6161,-8.6619,-8.681,-8.681,-8.6925,-8.7116,-8.7628,-8.7987,-8.8416,-8.8567,-8.8671,-8.8782,-8.8931,-8.8887,-8.8405,-8.781,-8.7298,-8.7098,-8.7031,-8.6958,-8.6921,-8.6885,-8.6885,-8.6995,-8.6995,-8.6995,-8.7031,-8.7031,-8.7031,-8.7031,-8.7031,-8.7031,-8.7031,-8.7031,-8.7031,-8.7031,-8.7031,-8.7031,-8.7031,-8.7031,-8.7031,-8.7031,-8.7031,-8.7031,-8.7031,-8.7031,-8.7031,-8.7031,-8.7031,-8.6925,-8.6962,-8.6786,-8.6465,-8.6246,-8.6169,-8.6563,-8.7249,-8.7684,-8.8263,-8.8915,-8.9386,-8.935,-8.9277,-8.9748,-9.0038,-8.8698,-8.7467,-8.7032,-8.6634,-8.638,-8.6163,-8.5982,-8.5909,-8.5909,-8.5909,-8.5909,-8.5511,-8.5511,-8.5511,-8.5511,-8.5511,-8.5511,-8.5511,-8.5511,-8.5511,-8.5511,-8.5511,-8.5511,-8.5511,-8.555,-8.5588,-8.597,-8.6505,-8.7001,-8.7689,-8.8453,-8.8186,-8.8262,-8.8568,-8.7345,-8.6658,-8.6467,-8.5932,-8.555,-8.5626,-8.5664,-8.5588,-8.5626,-8.5741,-8.5588,-8.5893,-8.5932,-8.5511,-8.5702,-8.6294,-8.6714,-8.681,-8.6887,-8.6963,-8.7287,-8.803,-8.8727,-8.8714,-8.9175,-8.9484,-8.9535,-8.9576,-8.9578,-8.9503,-8.9023,-8.8405,-8.7841,-8.7365,-8.7031,-8.7031,-8.7031,-8.7031,-8.7031,-8.7031,-8.7031,-8.7031,-8.7031,-8.7031,-8.7031,-8.7031,-8.7031,-8.7031,-8.7031,-8.7031,-8.7031,-8.7031,-8.7031,-8.7031,-8.7031,-8.7031,-8.7031,-8.7031,-8.7031,-8.7031,-8.7031,-8.7031,-8.7031,-8.7031,-8.7031,-8.6997,-8.6997,-8.7147,-8.6865,-8.6721,-8.6644,-8.7074,-8.7652,-8.8082,-8.8662,-8.935,-9.0002,-8.9966,-8.9893,-9.0074,-8.9966,-8.8662,-8.7793,-8.743,-8.6996,-8.6597,-8.6235,-8.5982,-8.5909,-8.5909,-8.5909,-8.5909,-8.5511,-8.5511,-8.5511,-8.5511,-8.5511,-8.5511,-8.5511,-8.5511,-8.5511,-8.5511,-8.5511,-8.5511,-8.5511,-8.5626,-8.597,-8.6428,-8.6943,-8.7727,-8.853,-8.9179,-8.8988,-8.8988,-8.8912,-8.811,-8.7384,-8.7001,-8.6887,-8.6734,-8.6467,-8.6237,-8.6237,-8.6314,-8.6696,-8.704,-8.6772,-8.6925,-8.7001,-8.7231,-8.7689,-8.7689,-8.7307,-8.7651,-8.8186,-8.8224,-8.895,-8.932,-8.9686,-8.9946,-9.0212,-9.0212,-9.0212,-9.0212,-9.0098,-8.969,-8.913,-8.8941,-8.8022,-8.7431,-8.7064,-8.7031,-8.7031,-8.7031,-8.7031,-8.7031,-8.7031,-8.7031,-8.7031,-8.7031,-8.7031,-8.7031,-8.7031,-8.7031,-8.7031,-8.7031,-8.7031,-8.7031,-8.7031,-8.7031,-8.7031,-8.7031,-8.7031,-8.7031,-8.7031,-8.7031,-8.7031,-8.7031,-8.7031,-8.7068,-8.6962,-8.6856,-8.7115,-8.7375,-8.7304,-8.7266,-8.7917,-8.8529,-8.8742,-8.9283,-8.9785,-9.0328,-9.0436,-9.0509,-9.0473,-8.9966,-8.8807,-8.8155,-8.7793,-8.7032,-8.6235,-8.6018,-8.5909,-8.5909,-8.5909,-8.5909,-8.5909,-8.5511,-8.5511,-8.5511,-8.5511,-8.555,-8.5741,-8.5702,-8.555,-8.6046,-8.5932,-8.5588,-8.555,-8.5702,-8.6123,-8.6658,-8.7001,-8.7613,-8.8759,-8.9332,-8.9561,-8.9638,-8.9638,-8.9447,-8.8797,-8.8071,-8.7384,-8.7689,-8.7613,-8.7384,-8.7345,-8.7422,-8.7154,-8.7575,-8.7918,-8.7957,-8.7689,-8.7498,-8.7918,-8.8148,-8.8033,-8.7842,-8.8644,-8.9065,-8.9294,-8.9561,-8.9944,-9.0478,-9.0572,-9.0551,-9.0551,-9.0551,-9.053,-9.0465,-8.9968,-8.9478,-8.9103,-8.8324,-8.7554,-8.7163,-8.7031,-8.7031,-8.7031,-8.7031,-8.7031,-8.7031,-8.7031,-8.7031,-8.7031,-8.7031,-8.7031,-8.7031,-8.7031,-8.7031,-8.7031,-8.7031,-8.7031,-8.7031,-8.7031,-8.7031,-8.7031,-8.7031,-8.7031,-8.7031,-8.7031,-8.7031,-8.7031,-8.7068,-8.7142,-8.7182,-8.7186,-8.7555,-8.8069,-8.8143,-8.8106,-8.8468,-8.9082,-8.9366,-8.9721,-9.0262,-9.0509,-9.0581,-9.0545,-9.0473,-8.9748,-8.8915,-8.8698,-8.8481,-8.7141,-8.5909,-8.5909,-8.5909,-8.5909,-8.5909,-8.5909,-8.5909,-8.5511,-8.5511,-8.5511,-8.5511,-8.555,-8.637,-8.6237,-8.5779,-8.7154,-8.6849,-8.5741,-8.5626,-8.6467,-8.7384,-8.7345,-8.7804,-8.9065,-8.9218,-8.9752,-9.0249,-9.0517,-9.0402,-9.0096,-8.9638,-8.9103,-8.8835,-8.8606,-8.8186,-8.8148,-8.8492,-8.8415,-8.8186,-8.8453,-8.8262,-8.811,-8.7995,-8.7918,-8.8148,-8.811,-8.8339,-8.8644,-8.9256,-8.937,-8.9561,-9.0058,-9.0555,-9.0631,-9.0631,-9.0631,-9.0631,-9.0631,-9.0631,-9.0508,-9.0144,-8.9714,-8.9272,-8.8664,-8.7991,-8.7586,-8.72,-8.7031,-8.7031,-8.7031,-8.7029,-8.7166,-8.7029,-8.7031,-8.7031,-8.7031,-8.7031,-8.7031,-8.7031,-8.7031,-8.7031,-8.7031,-8.7031,-8.7031,-8.7031,-8.7031,-8.7031,-8.7031,-8.7031,-8.7031,-8.7031,-8.7031,-8.7031,-8.7399,-8.7509,-8.7986,-8.8136,-8.8468,-8.88,-8.8983,-8.8984,-8.8945,-8.9416,-8.9995,-9.0132,-9.0414,-9.0552,-9.0581,-9.0545,-9.0473,-9.0038,-8.9386,-8.9241,-8.8915,-8.7611,-8.6597,-8.609,-8.5945,-8.609,-8.5982,-8.5909,-8.5909,-8.5511,-8.5511,-8.5511,-8.5511,-8.5588,-8.6428,-8.6619,-8.6428,-8.7001,-8.7001,-8.6352,-8.639,-8.6963,-8.7842,-8.8453,-8.8644,-8.9332,-8.9905,-9.0249,-9.0478,-9.0593,-9.0631,-9.044,-9.0249,-8.9829,-8.9409,-8.895,-8.8835,-8.8912,-8.9256,-8.9561,-8.9523,-8.9447,-8.9256,-8.895,-8.8797,-8.8912,-8.8797,-8.895,-8.937,-8.9141,-8.9867,-9.0096,-9.0173,-9.0287,-9.0593,-9.0631,-9.0631,-9.0631,-9.0631,-9.0631,-9.0631,-9.0631,-9.0317,-9.006,-8.9739,-8.9194,-8.8776,-8.8287,-8.7715,-8.72,-8.7427,-8.7298,-8.7129,-8.7394,-8.7231,-8.7029,-8.7031,-8.7031,-8.7031,-8.7031,-8.7031,-8.7031,-8.7031,-8.7031,-8.7031,-8.7031,-8.7031,-8.7031,-8.7031,-8.7031,-8.7031,-8.7031,-8.7031,-8.7031,-8.7068,-8.7509,-8.7912,-8.8353,-8.8793,-8.9053,-8.9494,-8.9678,-9.0118,-9.0154,-9.037,-9.0658,-9.0614,-9.0565,-9.0592,-9.0657,-9.0581,-9.0473,-9.011,-8.9748,-8.9422,-8.8843,-8.7974,-8.7322,-8.6851,-8.6525,-8.6416,-8.6235,-8.6018,-8.5945,-8.5511,-8.555,-8.5779,-8.5893,-8.6008,-8.681,-8.7192,-8.7307,-8.7804,-8.7936,-8.788,-8.7536,-8.7842,-8.8721,-8.9027,-8.9485,-8.9791,-9.0249,-9.0517,-9.0631,-9.0631,-9.0631,-9.0631,-9.0517,-9.0249,-8.9752,-8.9714,-8.9714,-8.9714,-8.9676,-8.9752,-9.002,-9.044,-9.0096,-8.9944,-8.9905,-8.9905,-8.9638,-8.9752,-9.0211,-8.9752,-9.0211,-9.0555,-9.0555,-9.0593,-9.0593,-9.0631,-9.0631,-9.0631,-9.0631,-9.0631,-9.0631,-9.0631,-9.0572,-9.0508,-9.0257,-8.9991,-8.969,-8.9103,-8.8521,-8.7746,-8.8053,-8.7618,-8.7586,-8.7618,-8.7361,-8.7066,-8.7031,-8.7031,-8.7031,-8.7031,-8.7031,-8.7031,-8.7031,-8.7031,-8.7031,-8.7031,-8.7031,-8.7031,-8.7031,-8.7031,-8.7031,-8.7031,-8.7031,-8.7068,-8.7031,-8.7178,-8.7729,-8.8316,-8.8793,-8.9307,-8.9785,-9.0373,-9.0887,-9.14,-9.1215,-9.1028,-9.0911,-9.0827,-9.0707,-9.0697,-9.0657,-9.0545,-9.0328,-8.9929,-8.9495,-8.9241,-8.906,-8.8336,-8.7537,-8.7322,-8.7104,-8.667,-8.6452,-8.6163,-8.555,-8.5626,-8.639,-8.6772,-8.6963,-8.7727,-8.8071,-8.8224,-8.9447,-9.0058,-8.9791,-8.8683,-8.8912,-8.9905,-8.9714,-8.9867,-9.0287,-9.0517,-9.0631,-9.0631,-9.0631,-9.0631,-9.0631,-9.0555,-9.0517,-9.0593,-9.0287,-9.0135,-9.044,-9.0135,-8.9944,-8.9944,-9.0287,-9.0555,-9.0478,-8.9752,-8.937,-8.9332,-8.9485,-8.9905,-9.0326,-9.0555,-9.0593,-9.0631,-9.0631,-9.0631,-9.0631,-9.0631,-9.0631,-9.0631,-9.0631,-9.0631,-9.0631,-9.0631,-9.0383,-8.9968,-8.9835,-8.9503,-8.8941,-8.8804,-8.8804,-8.8692,-8.8197,-8.7991,-8.7804,-8.746,-8.7029,-8.7064,-8.7031,-8.7031,-8.7031,-8.7031,-8.7031,-8.7031,-8.7031,-8.7031,-8.7031,-8.7031,-8.7031,-8.7031,-8.7031,-8.7031,-8.7031,-8.7031,-8.7068,-8.7068,-8.7031,-8.7545,-8.8426,-8.9087,-8.9711,-9.0335,-9.0959,-9.118,-9.1547,-9.1509,-9.1397,-9.1244,-9.1053,-9.0897,-9.074,-9.0657,-9.0585,-9.0436,-9.0292,-9.0002,-9.0219,-9.0436,-8.9567,-8.8698,-8.8116,-8.7754,-8.7283,-8.6923,-8.6706,-8.5855,-8.639,-8.6696,-8.746,-8.8415,-8.8759,-8.8912,-8.8988,-8.9485,-8.9752,-8.9676,-8.9027,-8.9485,-9.0173,-9.0364,-9.0287,-9.0517,-9.0631,-9.0631,-9.0631,-9.0631,-9.0631,-9.0631,-9.0631,-9.0631,-9.044,-9.0211,-9.0211,-9.0555,-9.0249,-9.0173,-9.0173,-9.0364,-9.0593,-9.0555,-9.0249,-9.0173,-9.0173,-9.0211,-9.0326,-9.0593,-9.0631,-9.0631,-9.0631,-9.0631,-9.0631,-9.0631,-9.0631,-9.0631,-9.0631,-9.0631,-9.0631,-9.0631,-9.0631,-9.0508,-9.0317,-9.0257,-9.0212,-9.0014,-8.9968,-8.9763,-8.9376,-8.8859,-8.8492,-8.8405,-8.7929,-8.7493,-8.7098,-8.7031,-8.7031,-8.7031,-8.7031,-8.7031,-8.7031,-8.7031,-8.7031,-8.7031,-8.7031,-8.7031,-8.7031,-8.7031,-8.7142,-8.7215,-8.7545,-8.7619,-8.7729,-8.7802,-8.8536,-8.9417,-8.9895,-9.0445,-9.1033,-9.151,-9.1583,-9.1657,-9.1657,-9.1473,-9.1177,-9.1097,-9.1053,-9.0897,-9.0628,-9.0621,-9.0509,-9.0545,-9.0618,-9.0618,-9.0581,-9.04,-8.9857,-8.9169,-8.8478,-8.801,-8.7645,-8.7464,-8.6275,-8.6849,-8.746,-8.811,-8.8874,-8.9179,-8.9447,-8.9714,-8.9752,-8.9752,-8.9791,-8.9791,-9.0058,-9.0478,-9.0631,-9.0631,-9.0631,-9.0631,-9.0631,-9.0631,-9.0631,-9.0631,-9.0631,-9.0631,-9.0631,-9.0402,-9.0173,-9.0135,-9.0555,-9.0058,-9.0096,-9.044,-9.0631,-9.0631,-9.0593,-9.0555,-9.0555,-9.0517,-9.0517,-9.0517,-9.0631,-9.0631,-9.0631,-9.0631,-9.0631,-9.0631,-9.0631,-9.0631,-9.0631,-9.0631,-9.0631,-9.0631,-9.0631,-9.0631,-9.0631,-9.0631,-9.0593,-9.0572,-9.053,-9.053,-9.0257,-9.0014,-8.9453,-8.9023,-8.8748,-8.8174,-8.7623,-8.7234,-8.7029,-8.7031,-8.7068,-8.7068,-8.7105,-8.7105,-8.7142,-8.7178,-8.7178,-8.7178,-8.7178,-8.7178,-8.7435,-8.7509,-8.7692,-8.7986,-8.828,-8.8463,-8.861,-8.9454,-9.0152,-9.0372,-9.0702,-9.1253,-9.1583,-9.151,-9.1583,-9.1767,-9.1473,-9.1143,-9.1066,-9.106,-9.072,-9.0417,-9.0519,-9.0581,-9.0581,-9.0618,-9.0618,-9.0545,-9.0473,-9.0292,-8.9893,-8.9277,-8.8734,-8.8517,-8.8336,-8.6772,-8.7078,-8.853,-8.8683,-8.8301,-8.8988,-8.9752,-9.0478,-9.0555,-9.0555,-9.0555,-9.0517,-9.0555,-9.0593,-9.0631,-9.0631,-9.0631,-9.0631,-9.0631,-9.0631,-9.0631,-9.0631,-9.0631,-9.0631,-9.0631,-9.0631,-9.0517,-9.0364,-9.0593,-9.044,-9.0478,-9.0593,-9.0631,-9.0631,-9.0631,-9.0631,-9.0631,-9.0631,-9.0631,-9.0631,-9.0631,-9.0631,-9.0631,-9.0631,-9.0631,-9.0631,-9.0631,-9.0631,-9.0631,-9.0631,-9.0631,-9.0631,-9.0631,-9.0631,-9.0631,-9.0631,-9.0631,-9.0631,-9.0631,-9.0631,-9.0572,-9.0362,-8.9906,-8.9427,-8.8887,-8.8383,-8.7746,-8.7332,-8.7132,-8.7103,-8.7142,-8.7215,-8.7288,-8.7325,-8.7399,-8.7399,-8.7399,-8.7399,-8.7399,-8.7582,-8.8023,-8.8316,-8.8757,-8.9014,-8.9014,-8.9271,-8.9491,-8.9784,-9.0298,-9.0041,-9.0445,-9.0996,-9.1253,-9.1289,-9.1436,-9.173,-9.1657,-9.129,-9.1033,-9.0956,-9.0545,-9.0313,-9.0414,-9.0516,-9.0585,-9.0618,-9.0618,-9.0618,-9.0581,-9.04,-9.0183,-9.0038,-8.9495,-8.9422,-8.9241,-8.6237,-8.6849,-8.7325,-8.7727,-8.8186,-8.895,-8.9485,-8.9752,-9.0287,-9.0631,-9.0631,-9.0631,-9.0631,-9.0631,-9.0631,-9.0631,-9.0631,-9.0631,-9.0631,-9.0631,-9.0631,-9.0631,-9.0631,-9.0631,-9.0631,-9.0631,-9.0631,-9.0631,-9.0593,-9.0631,-9.0631,-9.0593,-9.0631,-9.0631,-9.0631,-9.0631,-9.0631,-9.0631,-9.0631,-9.0631,-9.0631,-9.0631,-9.0631,-9.0631,-9.0631,-9.0631,-9.0631,-9.0631,-9.0631,-9.0631,-9.0631,-9.0631,-9.0631,-9.0631,-9.0631,-9.0631,-9.0631,-9.0631,-9.0631,-9.0631,-9.0631,-9.0487,-9.0052,-8.9739,-8.922,-8.8587,-8.7873,-8.746,-8.7313,-8.7323,-8.7619,-8.7766,-8.7986,-8.8206,-8.828,-8.828,-8.828,-8.828,-8.8316,-8.8573,-8.8977,-8.9197,-8.9638,-8.9674,-8.9711,-9.0078,-9.0335,-9.0555,-9.0592,-9.0408,-9.0445,-9.1069,-9.1289,-9.1436,-9.1546,-9.1803,-9.1693,-9.151,-9.1253,-9.0995,-9.077,-9.0541,-9.0419,-9.0447,-9.0585,-9.0657,-9.0618,-9.0618,-9.0618,-9.0618,-9.0473,-9.04,-9.0328,-9.0147,-8.9929,-8.6314,-8.6828,-8.7192,-8.7651,-8.8186,-8.895,-8.9294,-8.9485,-9.0249,-9.0631,-9.0631,-9.0631,-9.0631,-9.0631,-9.0631,-9.0631,-9.0631,-9.0631,-9.0631,-9.0631,-9.0631,-9.0631,-9.0631,-9.0631,-9.0631,-9.0631,-9.0631,-9.0631,-9.0631,-9.0631,-9.0631,-9.0631,-9.0631,-9.0631,-9.0631,-9.0631,-9.0631,-9.0631,-9.0631,-9.0631,-9.0631,-9.0631,-9.0631,-9.0631,-9.0631,-9.0631,-9.0631,-9.0631,-9.0631,-9.0631,-9.0631,-9.0631,-9.0631,-9.0631,-9.0631,-9.0631,-9.0631,-9.0631,-9.0631,-9.0631,-9.0631,-9.0498,-9.0139,-9.0083,-8.9559,-8.8907,-8.8109,-8.7464,-8.7531,-8.7692,-8.8096,-8.85,-8.8904,-8.9307,-8.9344,-8.9308,-8.9308,-8.9308,-8.9528,-8.9748,-8.9968,-9.0115,-9.0225,-9.0262,-9.0445,-9.0849,-9.1106,-9.1216,-9.1289,-9.1179,-9.1179,-9.1473,-9.162,-9.173,-9.1803,-9.173,-9.1583,-9.1473,-9.14,-9.118,-9.0956,-9.0878,-9.0798,-9.0713,-9.0661,-9.0657,-9.0657,-9.0618,-9.0618,-9.0618,-9.0618,-9.0545,-9.0473,-9.0473,-9.0255,-8.6676,-8.6734,-8.7613,-8.7957,-8.8186,-8.895,-8.937,-8.9485,-9.0287,-9.0631,-9.0631,-9.0631,-9.0631,-9.0631,-9.0631,-9.0631,-9.0631,-9.0631,-9.0631,-9.0631,-9.0631,-9.0631,-9.0631,-9.0631,-9.0631,-9.0631,-9.0631,-9.0631,-9.0631,-9.0631,-9.0631,-9.0631,-9.0631,-9.0631,-9.0631,-9.0631,-9.0631,-9.0631,-9.0631,-9.0631,-9.0631,-9.0631,-9.0631,-9.0631,-9.0631,-9.0631,-9.0631,-9.0631,-9.0631,-9.0631,-9.0631,-9.0631,-9.0631,-9.0822,-9.0784,-9.0822,-9.0899,-9.0899,-9.0822,-9.0746,-9.0623,-9.0487,-9.0272,-9.0287,-8.9827,-8.9197,-8.8335,-8.8273,-8.8407,-8.8607,-8.8977,-8.9307,-8.9711,-9.0078,-9.0225,-9.0262,-9.0262,-9.0262,-9.0408,-9.0592,-9.0739,-9.0886,-9.1069,-9.1106,-9.1033,-9.1546,-9.1693,-9.173,-9.1693,-9.1693,-9.1693,-9.1767,-9.1767,-9.1803,-9.1803,-9.1693,-9.1436,-9.1363,-9.14,-9.1327,-9.1069,-9.1102,-9.1284,-9.1091,-9.0819,-9.0701,-9.0661,-9.0657,-9.0657,-9.0618,-9.0618,-9.0618,-9.0618,-9.0618,-9.0509,-8.5817,-8.5893,-8.6772,-8.7498,-8.8148,-8.895,-8.9714,-9.0287,-9.0478,-9.0631,-9.0631,-9.0631,-9.0631,-9.0631,-9.0631,-9.0631,-9.0631,-9.0631,-9.0631,-9.0631,-9.0631,-9.0631,-9.0631,-9.0631,-9.0631,-9.0631,-9.0631,-9.0631,-9.0631,-9.0631,-9.0631,-9.0631,-9.0631,-9.0631,-9.0631,-9.0631,-9.0631,-9.0631,-9.0631,-9.0631,-9.0631,-9.0631,-9.0631,-9.0631,-9.0631,-9.0631,-9.0631,-9.0631,-9.0631,-9.0631,-9.0631,-9.0631,-9.0631,-9.1166,-9.1472,-9.151,-9.1472,-9.1434,-9.1357,-9.1107,-9.0885,-9.0718,-9.0544,-9.0362,-8.9994,-8.9403,-8.9141,-8.9243,-8.9359,-8.9559,-8.9821,-9.0115,-9.0445,-9.0812,-9.1069,-9.1069,-9.1069,-9.1143,-9.1216,-9.1326,-9.1436,-9.1583,-9.173,-9.1803,-9.1803,-9.1767,-9.1767,-9.1767,-9.1767,-9.173,-9.173,-9.1767,-9.1767,-9.1803,-9.1803,-9.1767,-9.1546,-9.1363,-9.1326,-9.1254,-9.1143,-9.1214,-9.132,-9.1206,-9.1014,-9.0858,-9.074,-9.0661,-9.0621,-9.0621,-9.0618,-9.0618,-9.0618,-9.0618,-9.0618,-8.5741,-8.6237,-8.7422,-8.8186,-8.8759,-8.9523,-9.0173,-9.0555,-9.0631,-9.0631,-9.0631,-9.0631,-9.0631,-9.0631,-9.0631,-9.0631,-9.0631,-9.0631,-9.0631,-9.0631,-9.0631,-9.0631,-9.0631,-9.0631,-9.0631,-9.0631,-9.0631,-9.0631,-9.0631,-9.0631,-9.0631,-9.0631,-9.0631,-9.0631,-9.0631,-9.0631,-9.0631,-9.0631,-9.0631,-9.0631,-9.0631,-9.0631,-9.0631,-9.0631,-9.0631,-9.0631,-9.0631,-9.0631,-9.0631,-9.0631,-9.0631,-9.0937,-9.1128,-9.151,-9.1969,-9.2121,-9.2083,-9.1969,-9.1969,-9.1735,-9.1397,-9.1377,-9.138,-9.1438,-9.1365,-9.0773,-8.9888,-8.9923,-8.9996,-9.0152,-9.0408,-9.0702,-9.1069,-9.14,-9.1473,-9.151,-9.151,-9.151,-9.1546,-9.1583,-9.1657,-9.1657,-9.1803,-9.1803,-9.1803,-9.1803,-9.1803,-9.1803,-9.1803,-9.1803,-9.1803,-9.1803,-9.1803,-9.1803,-9.1803,-9.1803,-9.173,-9.1546,-9.1326,-9.1437,-9.1473,-9.1361,-9.132,-9.1282,-9.1168,-9.1014,-9.0897,-9.078,-9.0661,-9.0621,-9.0581,-9.0618,-9.0618,-9.0618,-9.0618,-8.6008,-8.7001,-8.8568,-8.9294,-8.9447,-9.0211,-9.0593,-9.0631,-9.0631,-9.0631,-9.0631,-9.0631,-9.0631,-9.0631,-9.0631,-9.0631,-9.0631,-9.0631,-9.0631,-9.0631,-9.0631,-9.0631,-9.0631,-9.0631,-9.0631,-9.0631,-9.0631,-9.0631,-9.0631,-9.0631,-9.0631,-9.0631,-9.0631,-9.0631,-9.0631,-9.0631,-9.0631,-9.0631,-9.0631,-9.0631,-9.0631,-9.0631,-9.0631,-9.0631,-9.0631,-9.0631,-9.0631,-9.0631,-9.0631,-9.0937,-9.109,-9.151,-9.193,-9.2312,-9.2504,-9.2771,-9.2733,-9.2733,-9.2733,-9.2389,-9.2449,-9.2585,-9.2631,-9.2501,-9.2353,-9.1928,-9.105,-9.0909,-9.0948,-9.0846,-9.1104,-9.1359,-9.1727,-9.1767,-9.1767,-9.1803,-9.1803,-9.1803,-9.1803,-9.1803,-9.1803,-9.1803,-9.1803,-9.1803,-9.1803,-9.1803,-9.1803,-9.1803,-9.1803,-9.1803,-9.1803,-9.1803,-9.1803,-9.1803,-9.1803,-9.1803,-9.1803,-9.173,-9.1583,-9.1693,-9.1767,-9.162,-9.1546,-9.1508,-9.1359,-9.1206,-9.1053,-9.0897,-9.078,-9.0621,-9.0581,-9.0618,-9.0618,-9.0618,-9.0618,-8.6008,-8.6943,-8.8606,-8.9332,-8.9447,-9.0249,-9.0631,-9.0631,-9.0631,-9.0631,-9.0631,-9.0631,-9.0631,-9.0631,-9.0631,-9.0631,-9.0631,-9.0631,-9.0631,-9.0631,-9.0631,-9.0631,-9.0631,-9.0631,-9.0631,-9.0631,-9.0631,-9.0631,-9.0631,-9.0631,-9.0631,-9.0631,-9.0631,-9.0631,-9.0631,-9.0631,-9.0631,-9.0631,-9.0631,-9.0631,-9.0631,-9.0631,-9.0631,-9.0631,-9.0631,-9.0631,-9.0631,-9.0631,-9.1013,-9.1548,-9.2121,-9.2504,-9.2886,-9.3268,-9.3497,-9.3453,-9.3415,-9.3453,-9.3339,-9.2951,-9.3023,-9.3088,-9.2975,-9.2876,-9.2802,-9.2758,-9.2356,-9.2641,-9.2519,-9.1961,-9.204,-9.2212,-9.2434,-9.1983,-9.1803,-9.1803,-9.1803,-9.1803,-9.1803,-9.1803,-9.1803,-9.1803,-9.1803,-9.1803,-9.1803,-9.1803,-9.1803,-9.1803,-9.1803,-9.1803,-9.1803,-9.1803,-9.1803,-9.1803,-9.1803,-9.1803,-9.1803,-9.1803,-9.1803,-9.1803,-9.1803,-9.1803,-9.173,-9.1657,-9.1546,-9.1396,-9.1244,-9.1053,-9.0858,-9.0701,-9.0621,-9.0618,-9.0618,-9.0618,-9.0618]},{"header":{"parameterUnit":"m.s-1","parameterCategory":1,"la1":31.0,"la2":29.5877,"lo1":-88.7671,"lo2":-86.6584,"dx":0.0162,"dy":0.0185,"nx":115,"ny":88,"refTime":"2022-12-31T18:00:00:Z","depth":0,"parameterNumber":3,"parameterNumberName":"V-component_of_WINDS"},"data":[0.0,0.0,0.0,0.0,0.0,0.0,0.0,0.0,0.0,0.0,0.0,0.0,0.0,0.0,0.0,0.0,0.0,0.0,0.0,0.0,0.0,0.0,0.0,0.0,0.0,0.0,0.0,0.0,0.0,0.0,0.0,0.0,0.0,0.0,0.0,0.0,0.0,0.0,0.0,0.0,0.0,0.0,0.0,0.0,0.0,0.0,0.0,0.0,0.0,0.0,0.0,0.0,0.0,0.0,0.0,0.0,0.0,0.0,0.0,0.0,0.0,0.0,0.0,0.0,0.0,0.0,0.0,0.0,0.0,0.0,0.0,0.0,0.0,0.0,0.0,0.0,0.0,0.0,0.0,0.0,0.0,0.0,0.0,0.0,0.0,0.0,0.0,0.0,0.0,0.0,0.0,0.0,0.0,0.0,0.0,0.0,0.0,0.0,0.0,0.0,0.0,0.0,0.0,0.0,0.0,0.0,0.0,0.0,0.0,0.0,0.0,0.0,0.0,0.0,0.0,0.0,0.0,0.0,0.0,0.0,0.0,0.0,0.0,0.0,0.0,0.0,0.0,0.0,0.0,0.0,0.0,0.0,0.0,0.0,0.0,0.0,0.0,0.0,0.0,0.0,0.0,0.0,0.0,0.0,0.0,0.0,0.0,0.0,0.0,0.0,0.0,0.0,0.0,0.0,0.0,0.0,0.0,0.0,0.0,0.0,0.0,0.0,0.0,0.0,0.0,0.0,0.0,0.0,0.0,0.0,0.0,0.0,0.0,0.0,0.0,0.0,0.0,0.0,0.0,0.0,0.0,0.0,0.0,0.0,0.0,0.0,0.0,0.0,0.0,0.0,0.0,0.0,0.0,0.0,0.0,0.0,0.0,0.0,0.0,0.0,0.0,0.0,0.0,0.0,0.0,0.0,0.0,0.0,0.0,0.0,0.0,0.0,0.0,0.0,0.0,0.0,0.0,0.0,0.0,0.0,0.0,0.0,0.0,0.0,0.0,0.0,0.0,0.0,0.0,0.0,0.0,0.0,0.0,0.0,0.0,0.0,0.0,0.0,0.0,0.0,0.0,0.0,0.0,0.0,0.0,0.0,0.0,0.0,0.0,0.0,0.0,0.0,0.0,0.0,0.0,0.0,0.0,0.0,0.0,0.0,0.0,0.0,0.0,0.0,0.0,0.0,0.0,0.0,0.0,0.0,0.0,0.0,0.0,0.0,0.0,0.0,0.0,0.0,0.0,0.0,0.0,0.0,0.0,0.0,0.0,0.0,0.0,0.0,0.0,0.0,0.0,0.0,0.0,0.0,0.0,0.0,0.0,0.0,0.0,0.0,0.0,0.0,0.0,0.0,0.0,0.0,0.0,0.0,0.0,0.0,0.0,0.0,0.0,0.0,0.0,0.0,0.0,0.0,0.0,0.0,0.0,0.0,0.0,0.0,0.0,0.0,0.0,0.0,0.0,0.0,0.0,0.0,0.0,0.0,0.0,0.0,0.0,0.0,0.0,0.0,0.0,0.0,0.0,0.0,0.0,0.0,0.0,0.0,0.0,0.0,0.0,0.0,0.0,0.0,0.0,0.0,0.0,0.0,0.0,0.0,0.0,0.0,0.0,0.0,0.0,0.0,0.0,0.0,0.0,0.0,0.0,0.0,0.0,0.0,0.0,0.0,0.0,0.0,0.0,0.0,0.0,0.0,0.0,0.0,0.0,0.0,0.0,0.0,0.0,0.0,0.0,0.0,0.0,0.0,0.0,0.0,0.0,0.0,0.0,0.0,0.0,0.0,0.0,0.0,0.0,0.0,0.0,0.0,0.0,0.0,0.0,0.0,0.0,0.0,0.0,0.0,0.0,0.0,0.0,0.0,0.0,0.0,0.0,0.0,0.0,0.0,0.0,0.0,0.0,0.0,0.0,0.0,0.0,0.0,0.0,0.0,0.0,0.0,0.0,0.0,0.0,0.0,0.0,0.0,0.0,0.0,0.0,0.0,0.0,0.0,0.0,0.0,0.0,0.0,0.0,0.0,0.0,0.0,0.0,0.0,0.0,0.0,0.0,0.0,0.0,0.0,0.0,0.0,0.0,0.0,0.0,0.0,0.0,0.0,0.0,0.0,0.0,0.0,0.0,0.0,0.0,0.0,0.0,0.0,0.0,0.0,0.0,0.0,0.0,0.0,0.0,0.0,0.0,0.0,0.0,0.0,0.0,0.0,0.0,0.0,0.0,0.0,0.0,0.0,0.0,0.0,0.0,0.0,0.0,0.0,0.0,0.0,0.0,0.0,0.0,0.0,0.0,0.0,0.0,0.0,0.0,0.0,0.0,0.0,0.0,0.0,0.0,0.0,0.0,0.0,0.0,0.0,0.0,0.0,0.0,0.0,0.0,0.0,0.0,0.0,0.0,0.0,0.0,0.0,0.0,0.0,0.0,0.0,0.0,0.0,0.0,0.0,0.0,0.0,0.0,0.0,0.0,0.0,0.0,0.0,0.0,0.0,0.0,0.0,0.0,0.0,0.0,0.0,0.0,0.0,0.0,0.0,0.0,0.0,0.0,0.0,0.0,0.0,0.0,0.0,0.0,0.0,0.0,0.0,0.0,0.0,0.0,0.0,0.0,0.0,0.0,0.0,0.0,0.0,0.0,0.0,0.0,0.0,0.0,0.0,0.0,0.0,0.0,0.0,0.0,0.0,0.0,0.0,0.0,0.0,0.0,0.0,0.0,0.0,0.0,0.0,0.0,0.0,0.0,0.0,0.0,0.0,0.0,0.0,0.0,0.0,0.0,0.0,0.0,0.0,0.0,0.0,0.0,0.0,0.0,0.0,0.0,0.0,0.0,0.0,0.0,0.0,0.0,0.0,0.0,0.0,0.0,0.0,0.0,0.0,0.0,0.0,0.0,0.0,0.0,0.0,0.0,0.0,0.0,0.0,0.0,0.0,0.0,0.0,0.0,0.0,0.0,0.0,0.0,0.0,0.0,0.0,0.0,0.0,0.0,0.0,0.0,0.0,0.0,0.0,0.0,0.0,0.0,0.0,0.0,0.0,0.0,0.0,0.0,0.0,0.0,0.0,0.0,0.0,0.0,0.0,0.0,0.0,0.0,0.0,0.0,0.0,0.0,0.0,0.0,0.0,0.0,0.0,0.0,0.0,0.0,0.0,0.0,0.0,0.0,0.0,0.0,0.0,0.0,0.0,0.0,0.0,0.0,0.0,0.0,0.0,0.0,0.0,0.0,0.0,0.0,0.0,0.0,0.0,0.0,0.0,0.0,0.0,0.0,0.0,0.0,0.0,0.0,0.0,0.0,0.0,0.0,0.0,0.0,0.0,0.0,0.0,0.0,0.0,0.0,0.0,0.0,0.0,0.0,0.0,0.0,0.0,0.0,0.0,0.0,0.0,0.0,0.0,0.0,0.0,0.0,0.0,0.0,0.0,0.0,0.0,0.0,0.0,0.0,0.0,0.0,0.0,0.0,0.0,0.0,0.0,0.0,0.0,0.0,0.0,0.0,0.0,0.0,0.0,0.0,0.0,0.0,0.0,0.0,0.0,0.0,0.0,0.0,0.0,0.0,0.0,0.0,0.0,0.0,0.0,0.0,0.0,0.0,0.0,0.0,0.0,0.0,0.0,0.0,0.0,0.0,0.0,0.0,0.0,0.0,0.0,0.0,0.0,0.0,0.0,0.0,0.0,0.0,0.0,0.0,0.0,0.0,0.0,0.0,0.0,0.0,0.0,0.0,0.0,0.0,0.0,0.0,0.0,0.0,0.0,0.0,0.0,0.0,0.0,0.0,0.0,0.0,0.0,0.0,0.0,0.0,0.0,0.0,0.0,0.0,0.0,0.0,0.0,0.0,0.0,0.0,0.0,0.0,0.0,0.0,0.0,0.0,0.0,0.0,0.0,0.0,0.0,0.0,0.0,0.0,0.0,0.0,0.0,0.0,0.0,0.0,0.0,0.0,0.0,0.0,0.0,0.0,0.0,0.0,0.0,0.0,0.0,0.0,0.0,0.0,0.0,0.0,0.0,0.0,0.0,0.0,0.0,0.0,0.0,0.0,0.0,0.0,0.0,0.0,0.0,0.0,0.0,0.0,0.0,0.0,0.0,0.0,0.0,0.0,0.0,0.0,0.0,0.0,0.0,0.0,0.0,0.0,0.0,0.0,0.0,0.0,0.0,0.0,0.0,0.0,0.0,0.0,0.0,0.0,0.0,0.0,0.0,0.0,0.0,0.0,0.0,0.0,0.0,0.0,0.0,0.0,0.0,0.7845,0.0,0.0,0.0,0.7586,0.0,0.0,0.0,0.0,0.0,0.0,0.0,0.0,0.0,0.0,0.0,0.0,0.0,0.0,0.0,0.0,0.0,0.0,0.0,0.0,0.0,0.0,0.0,0.0,0.0,0.0,0.0,0.0,0.0,0.0,0.0,0.0,0.0,0.0,0.0,0.0,0.0,0.0,0.0,0.0,0.0,0.0,0.0,0.0,0.0,0.0,0.0,0.0,0.0,0.0,0.0,0.0,0.0,0.0,0.0,0.0,0.0,0.0,0.0,0.0,0.0,0.0,0.0,0.0,0.0,0.0,0.0,0.0,0.0,0.0,0.0,0.0,0.0,0.0,0.0,0.0,0.0,0.0,0.0,0.0,0.0,0.0,0.0,0.0,0.0,0.0,0.0,0.0,0.0,0.0,0.0,0.0,0.0,0.0,0.0,0.0,0.0,0.0,0.0,0.0,0.0,0.0,0.0,0.0,0.0,0.0,0.0,0.0,0.0,0.0,0.7943,0.7512,0.8113,0.8146,0.7559,0.0,0.0,0.0,0.0,0.0,0.0,0.0,0.0,0.0,0.0,0.0,0.0,0.0,0.0,0.0,0.0,0.0,0.0,0.0,0.0,0.0,0.0,0.0,0.0,0.0,0.0,0.0,0.0,0.0,0.0,0.0,0.0,0.0,0.0,0.0,0.0,0.0,0.0,0.0,0.0,0.0,0.0,0.0,0.0,0.0,0.0,0.0,0.0,0.0,0.0,0.0,0.0,0.0,0.0,0.0,0.0,0.0,0.0,0.0,0.0,0.0,0.0,0.0,0.0,0.0,0.0,0.0,0.0,0.0,0.0,0.0,0.0,0.0,0.0,0.0,0.0,0.0,0.0,0.0,0.0,0.0,0.0,0.0,0.0,0.0,0.0,0.0,0.0,0.0,0.0,0.0,0.0,0.0,0.0,0.0,0.0,0.0,0.0,0.0,0.0,0.0,0.0,0.0,0.0,0.0,0.0,0.0,0.0,0.0,0.0,0.0,0.0,0.8333,0.8398,0.7812,0.0,0.0,0.0,0.0,0.0,0.0,0.0,0.0,0.0,0.0,0.0,0.0,0.0,0.0,0.0,0.0,0.0,0.0,0.0,0.0,0.0,0.0,0.0,0.0,0.0,0.0,0.0,0.0,0.0,0.0,0.0,0.0,0.0,0.0,0.0,0.0,0.0,0.0,0.0,0.0,0.0,0.0,0.0,0.0,0.0,0.0,0.0,0.0,0.0,0.0,0.0,0.0,0.0,0.0,0.0,0.0,0.0,0.0,0.0,0.0,0.0,0.0,0.0,0.0,0.0,0.0,0.0,0.0,0.0,0.0,0.0,0.0,0.0,0.0,0.0,0.0,0.0,0.0,0.0,0.0,0.0,0.0,0.0,0.0,0.0,0.0,0.0,0.0,0.0,0.0,0.0,0.0,0.0,0.0,0.0,0.0,0.0,0.0,0.0,0.0,0.0,0.0,0.0,0.0,0.0,0.0,0.0,0.0,0.0,0.0,0.7764,0.8203,0.8292,0.0,0.8549,0.0,0.0,0.0,0.0,0.0,0.0,0.0,0.0,0.0,0.0,0.0,0.0,0.0,0.0,0.0,0.0,0.0,0.0,0.0,0.0,0.0,0.0,0.0,0.0,0.0,0.0,0.0,0.0,0.0,0.0,0.0,0.0,0.0,0.0,0.0,0.0,0.0,0.0,0.0,0.0,0.0,0.0,0.0,0.0,0.0,0.0,0.0,0.0,0.0,0.0,0.0,0.0,0.0,0.0,0.0,0.0,0.0,0.0,0.0,0.0,0.0,0.0,0.0,0.0,0.0,0.0,0.0,0.0,0.0,0.0,0.0,0.0,0.0,0.0,0.0,0.0,0.0,0.0,0.0,0.0,0.0,0.0,0.0,0.0,0.0,0.0,0.0,0.0,0.0,0.0,0.0,0.0,0.0,0.0,0.0,0.0,0.0,0.0,0.0,0.0,0.0,0.0,0.0,0.0,0.0,0.0,0.0,0.0,0.0,0.0,0.8065,0.8284,0.8292,0.8325,0.0,0.0,0.0,0.0,0.0,0.0,0.0,0.0,0.0,0.0,0.0,0.0,0.0,0.0,0.0,0.0,0.0,0.0,0.0,0.0,0.0,0.0,0.0,0.0,0.0,0.0,0.0,0.0,0.0,0.0,0.0,0.0,0.0,0.0,0.0,0.0,0.0,0.0,0.0,0.0,0.0,0.0,0.0,0.0,0.0,0.0,0.0,0.0,0.0,0.0,0.0,0.0,0.0,0.0,0.0,0.0,0.0,0.0,0.0,0.0,0.0,0.0,0.0,0.0,0.0,0.0,0.0,0.0,0.0,0.0,0.0,0.0,0.0,0.0,0.0,0.0,0.0,0.0,0.0,0.0,0.0,0.0,0.0,0.0,0.0,0.0,0.0,0.0,0.0,0.0,0.0,0.0,0.0,0.0,0.0,0.0,0.0,0.0,0.0,0.0,0.0,0.0,0.0,0.0,0.0,0.0,0.0,0.0,0.0,0.0,0.8162,0.8365,0.8503,0.8414,0.8341,0.8292,0.0,0.0,0.0,0.0,0.0,0.0,0.0,0.0,0.0,0.0,0.0,0.0,0.0,0.0,0.0,0.0,0.0,0.0,0.0,0.0,0.0,0.0,0.0,0.0,0.0,0.0,0.0,0.0,0.0,0.0,0.0,0.0,0.0,0.0,0.0,0.0,0.0,0.0,0.0,0.0,0.0,0.0,0.0,0.0,0.0,0.0,0.0,0.0,0.0,0.0,0.0,0.0,0.0,0.0,0.0,0.0,0.0,0.0,0.0,0.0,0.0,0.0,0.0,0.0,0.0,0.0,0.0,0.0,0.0,0.0,0.0,0.0,0.0,0.0,0.0,0.0,0.0,0.0,0.0,0.0,0.0,0.0,0.0,0.0,0.0,0.0,0.0,0.0,0.0,0.0,0.0,0.0,0.0,0.0,0.0,0.0,0.0,0.0,0.0,0.0,0.0,0.0,0.0,0.0,0.0,0.0,0.0,0.0,0.8934,0.8536,0.8544,0.9031,0.8775,0.8471,0.0,0.0,0.0,0.0,0.0,0.0,0.0,0.0,0.0,0.0,0.0,0.0,0.0,0.0,0.0,0.0,0.0,0.0,0.0,0.0,0.0,0.0,0.0,0.0,0.0,0.0,0.0,0.0,0.0,0.0,0.0,0.0,0.0,0.0,0.0,0.0,0.0,0.0,0.0,0.0,0.0,0.0,0.0,0.0,0.0,0.0,0.0,0.0,0.0,0.0,0.0,0.0,0.0,0.0,0.0,0.0,0.0,0.0,0.0,0.0,0.0,0.0,0.0,0.0,0.0,0.0,0.0,0.0,0.0,0.0,0.0,0.0,0.0,0.0,0.0,0.0,0.0,0.0,0.0,0.0,0.0,0.0,0.0,0.0,0.0,0.0,0.0,0.0,0.0,0.0,0.0,0.0,0.0,0.0,0.0,0.0,0.0,0.0,0.0,0.0,0.0,0.0,0.0,0.0,0.0,0.0,0.0,0.0,0.0,0.8048,0.8211,0.8658,0.938,0.8763,0.8519,0.0,0.0,0.0,0.0,0.0,0.0,0.0,0.0,0.0,0.0,0.0,0.0,0.0,0.0,0.0,0.0,0.0,0.0,0.0,0.0,0.0,0.0,0.0,0.0,0.0,0.0,0.0,0.0,0.0,0.0,0.0,0.0,0.0,0.0,0.0,0.0,0.0,0.0,0.0,0.0,0.0,0.0,0.0,0.0,0.0,0.0,0.0,0.0,0.0,0.0,0.0,0.0,0.0,0.0,0.0,0.0,0.0,0.0,0.0,0.0,0.0,0.0,0.0,0.0,0.0,0.0,0.0,0.0,0.0,0.0,0.0,0.0,0.0,0.0,0.0,0.0,0.0,0.0,0.0,0.0,0.0,0.0,0.0,0.0,0.0,0.0,0.0,0.0,0.0,0.0,0.0,0.0,0.0,0.0,0.0,0.0,0.0,0.0,0.0,0.0,0.0,0.0,0.0,0.0,0.0,0.0,0.0,0.0,0.0,0.8131,0.8674,0.9169,0.9486,0.8901,0.856,0.0,0.0,0.0,0.0,0.0,0.0,0.0,0.0,0.0,0.0,0.0,0.0,0.0,0.0,0.0,0.0,0.0,0.0,0.0,0.0,0.0,0.0,0.0,0.0,0.0,0.0,0.0,0.0,0.0,0.0,0.0,0.0,0.0,0.0,0.0,0.0,0.0,0.0,0.0,0.0,0.0,0.0,0.0,0.0,0.0,0.0,0.0,0.0,0.0,0.0,0.0,0.0,0.0,0.0,0.0,0.0,0.0,0.0,0.0,0.0,0.0,0.0,0.0,0.0,0.0,0.0,0.0,0.0,0.0,0.0,0.0,0.0,0.0,0.0,0.0,0.0,0.0,0.0,0.0,0.0,0.0,0.0,0.0,0.0,0.0,0.0,0.0,0.0,0.0,0.0,0.0,0.0,0.0,0.0,0.0,0.0,0.0,0.0,0.0,0.0,0.0,0.0,0.0,0.0,0.0,0.0,0.0,0.0,0.8147,0.9322,0.9989,1.0022,0.9437,0.9224,0.8601,0.0,0.0,0.0,0.0,0.0,0.0,0.0,0.0,0.0,0.0,0.0,0.0,0.0,0.0,0.0,0.0,0.0,0.0,0.0,0.0,0.0,0.0,0.0,0.0,0.0,0.0,0.0,0.0,0.0,0.0,0.0,0.0,0.0,0.0,0.0,0.0,0.0,0.0,0.0,0.0,0.0,0.0,0.0,0.0,0.0,0.0,0.0,0.0,0.0,0.0,0.0,0.0,0.0,0.0,0.0,0.0,0.0,0.0,0.0,0.0,0.0,0.0,0.0,0.0,0.0,0.0,0.0,0.0,0.0,0.0,0.0,0.0,0.0,0.0,0.0,0.0,0.0,0.0,0.0,0.0,0.0,0.0,0.0,0.0,0.0,0.0,0.0,0.0,0.0,0.0,0.0,0.0,0.0,0.0,0.0,0.0,0.0,0.0,0.0,0.0,0.0,0.0,0.0,0.0,0.0,0.0,0.0,0.0,0.0,0.8463,0.938,0.9892,0.9935,0.9259,0.8982,0.0,0.0,0.0,0.0,0.0,0.0,0.0,0.0,0.0,0.0,0.0,0.0,0.0,0.0,0.0,0.0,0.0,0.0,0.0,0.0,0.0,0.0,0.0,0.0,0.0,0.0,0.0,0.0,0.0,0.0,0.0,0.0,0.0,0.0,0.0,0.0,0.0,0.0,0.0,0.0,0.0,0.0,0.0,0.0,0.0,0.0,0.0,0.0,0.0,0.0,0.0,0.0,0.0,0.0,0.0,0.0,0.0,0.0,0.0,0.0,0.0,0.0,0.0,0.0,0.0,0.0,0.0,0.0,0.0,0.0,0.0,0.0,0.0,0.0,0.0,0.0,0.0,0.0,0.0,0.0,0.0,0.0,0.0,0.0,0.0,0.0,0.0,0.0,0.0,0.0,0.0,0.0,0.0,0.0,0.0,0.0,0.0,0.0,0.0,0.0,0.0,0.0,0.0,0.0,0.0,0.0,0.0,0.0,0.0,0.9088,1.0071,1.0574,1.0514,0.9786,0.9437,0.951,0.0,0.0,0.0,0.0,0.0,0.0,0.0,0.0,0.0,0.0,0.0,0.0,0.0,0.0,0.0,0.0,0.0,0.0,0.0,0.0,0.0,0.0,0.0,0.0,0.0,0.0,0.0,0.0,0.0,0.0,0.0,0.0,0.0,0.0,0.0,0.0,0.0,0.0,0.0,0.0,0.0,0.0,0.0,0.0,0.0,0.0,0.0,0.0,0.0,0.0,0.0,0.0,0.0,0.0,0.0,0.0,0.0,0.0,0.0,0.0,0.0,0.0,0.0,0.0,0.0,0.0,0.0,0.0,0.0,0.0,0.0,0.0,0.0,0.0,0.0,0.0,0.0,0.0,0.0,0.0,0.0,0.0,0.0,0.0,0.0,0.0,0.0,0.0,0.0,0.0,0.0,0.0,0.0,0.0,0.0,0.0,0.0,0.0,0.0,0.0,0.0,0.0,0.0,0.0,0.0,0.0,0.0,0.0,1.0761,1.1792,1.1898,1.1037,1.0639,0.9922,0.0,0.0,0.0,0.0,0.0,0.0,0.0,0.0,0.0,0.0,0.0,0.0,0.0,0.0,0.0,0.0,0.0,0.0,0.0,0.0,0.0,0.0,0.0,0.0,0.0,0.0,0.0,0.0,0.0,0.0,0.0,0.0,0.0,0.0,0.0,0.0,0.0,0.0,0.0,0.0,0.0,0.0,0.0,0.0,0.0,0.0,0.0,0.0,0.0,0.0,0.0,0.0,0.0,0.0,0.0,0.0,0.0,0.0,0.0,0.0,0.0,0.0,0.0,0.0,0.0,0.0,0.0,0.0,0.0,0.0,0.0,0.0,0.0,0.0,0.0,0.0,0.0,0.0,0.0,0.0,0.0,0.0,0.0,0.0,0.0,0.0,0.0,0.0,0.0,0.0,0.0,0.0,0.0,0.0,0.0,0.0,0.0,0.0,0.0,0.0,0.0,0.0,0.0,0.0,0.0,0.0,0.0,0.0,0.0,1.1679,1.2345,1.2337,1.1589,1.0956,1.0493,0.0,0.0,0.0,0.0,0.0,0.0,0.0,0.0,0.0,0.0,0.0,0.0,0.0,0.0,0.0,0.0,0.0,0.0,0.0,0.0,0.0,0.0,0.0,0.0,0.0,0.0,0.0,0.0,0.0,0.0,0.0,0.0,0.0,0.0,0.0,0.0,0.0,0.0,0.0,0.0,0.0,0.0,0.0,0.0,0.0,0.0,0.0,0.0,0.0,0.0,0.0,0.0,0.0,0.0,0.0,0.0,0.0,0.0,0.0,0.0,0.0,0.0,0.0,0.0,0.0,0.0,0.0,0.0,0.0,0.0,0.0,0.0,0.0,0.0,0.0,0.0,0.0,0.0,0.0,0.0,0.0,0.0,0.0,0.0,0.0,0.0,0.0,0.0,0.0,0.0,0.0,0.0,0.0,0.0,0.0,0.0,0.0,0.0,0.0,0.0,0.0,0.0,0.0,0.0,0.0,0.0,0.0,0.0,1.15,1.2281,1.2678,1.258,1.2231,1.1598,1.107,0.0,0.0,0.0,0.0,0.0,0.0,0.0,0.0,0.0,0.0,0.0,0.0,0.0,0.0,0.0,0.0,0.0,0.0,0.0,0.0,0.0,0.0,0.0,0.0,0.0,0.0,0.0,0.0,0.0,0.0,0.0,0.0,0.0,0.0,0.0,0.0,0.0,0.0,0.0,0.0,0.0,0.0,0.0,0.0,0.0,0.0,0.0,0.0,0.0,0.0,0.0,0.0,0.0,0.0,0.0,0.0,0.0,0.0,0.0,0.0,0.0,0.0,0.0,0.0,0.0,0.0,0.0,0.0,0.0,0.0,0.0,0.0,0.0,0.0,0.0,0.0,0.0,0.0,0.0,0.0,0.0,0.0,0.0,0.0,0.0,0.0,0.0,0.0,0.0,0.0,0.0,0.0,0.0,0.0,0.0,0.0,0.0,0.0,0.0,0.0,0.0,0.0,0.0,0.0,0.0,0.0,0.0,0.0,1.1801,1.2742,1.2766,1.2766,1.2758,1.2312,1.169,0.0,0.0,0.0,0.0,0.0,0.0,0.0,0.0,0.0,0.0,0.0,0.0,0.0,0.0,0.0,0.0,0.0,0.0,0.0,0.0,0.0,0.0,0.0,0.0,0.0,0.0,0.0,0.0,0.0,0.0,0.0,0.0,0.0,0.0,0.0,0.0,0.0,0.0,0.0,0.0,0.0,0.0,0.0,0.0,0.0,0.0,0.0,0.0,0.0,0.0,0.0,0.0,0.0,0.0,0.0,0.0,0.0,0.0,0.0,0.0,0.0,0.0,0.0,0.0,0.0,0.0,0.0,0.0,0.0,0.0,0.0,0.0,0.0,0.0,0.0,0.0,0.0,0.0,0.0,0.0,0.0,0.0,0.0,0.0,0.0,0.0,0.0,0.0,0.0,0.0,0.0,0.0,0.0,0.0,0.0,0.0,0.0,0.0,0.0,0.0,0.0,0.0,0.0,0.0,0.0,0.0,0.0,0.0,1.2112,1.275,1.2766,1.2766,1.2766,1.2312,1.2097,0.0,0.0,0.0,0.0,0.0,0.0,0.0,0.0,0.0,0.0,0.0,0.0,0.0,0.0,0.0,0.0,0.0,0.0,0.0,0.0,0.0,0.0,0.0,0.0,0.0,0.0,0.0,0.0,0.0,0.0,0.0,0.0,0.0,0.0,0.0,0.0,0.0,0.0,0.0,0.0,0.0,0.0,0.0,0.0,0.0,0.0,0.0,0.0,1.7282,0.0,0.0,0.0,0.0,0.0,0.0,0.0,0.0,0.0,0.0,0.0,0.0,0.0,0.0,0.0,0.0,0.0,0.0,0.0,0.0,0.0,0.0,0.0,0.0,0.0,0.0,0.0,0.0,0.0,0.0,0.0,0.0,0.0,0.0,0.0,0.0,0.0,0.0,0.0,0.0,0.0,0.0,0.0,0.0,0.0,0.0,0.0,0.0,0.0,0.0,0.0,0.0,0.0,0.0,0.0,0.0,0.0,0.0,0.0,1.2288,1.275,1.2766,1.2766,1.2758,1.2491,1.2283,0.0,0.0,0.0,0.0,0.0,0.0,0.0,0.0,0.0,0.0,0.0,0.0,0.0,0.0,0.0,0.0,0.0,0.0,0.0,0.0,0.0,0.0,0.0,0.0,0.0,0.0,0.0,0.0,0.0,0.0,0.0,0.0,0.0,0.0,0.0,0.0,0.0,0.0,0.0,0.0,0.0,0.0,0.0,0.0,0.0,0.0,0.0,0.0,0.0,0.0,0.0,0.0,0.0,0.0,0.0,0.0,0.0,0.0,0.0,0.0,0.0,0.0,0.0,0.0,0.0,0.0,0.0,0.0,0.0,0.0,0.0,0.0,0.0,0.0,0.0,0.0,0.0,0.0,0.0,0.0,0.0,0.0,0.0,0.0,0.0,0.0,0.0,0.0,0.0,0.0,0.0,0.0,0.0,0.0,0.0,0.0,0.0,0.0,0.0,0.0,0.0,0.0,0.0,0.0,0.0,0.0,0.0,1.1727,1.2225,1.2742,1.2766,1.2766,1.2766,1.2766,1.2392,1.1496,0.0,0.0,0.0,0.0,0.0,0.0,0.0,0.0,0.0,0.0,0.0,0.0,0.0,0.0,0.0,0.0,0.0,0.0,0.0,0.0,0.0,0.0,0.0,0.0,0.0,0.0,0.0,0.0,0.0,0.0,0.0,0.0,0.0,0.0,0.0,0.0,0.0,0.0,1.6961,1.8145,0.0,0.0,0.0,0.0,0.0,0.0,0.0,0.0,1.8174,0.0,0.0,0.0,0.0,0.0,0.0,0.0,0.0,0.0,0.0,0.0,0.0,0.0,0.0,0.0,0.0,0.0,0.0,0.0,0.0,0.0,0.0,0.0,0.0,0.0,0.0,0.0,0.0,0.0,0.0,0.0,0.0,0.0,0.0,0.0,0.0,0.0,0.0,0.0,0.0,0.0,0.0,0.0,0.0,0.0,0.0,0.0,0.0,0.0,0.0,0.0,0.0,0.0,0.0,0.0,0.0,1.1833,1.1971,1.2225,1.275,1.2766,1.2766,1.2766,1.2766,1.2708,1.2618,0.0,0.0,0.0,0.0,0.0,0.0,0.0,0.0,0.0,0.0,0.0,0.0,0.0,0.0,0.0,0.0,0.0,0.0,0.0,0.0,0.0,0.0,0.0,0.0,0.0,0.0,0.0,0.0,0.0,0.0,0.0,0.0,0.0,0.0,0.0,0.0,0.0,0.0,0.0,1.9842,2.0091,0.0,0.0,0.0,0.0,0.0,0.0,0.0,0.0,1.8262,0.0,0.0,0.0,0.0,0.0,0.0,0.0,0.0,0.0,0.0,0.0,0.0,0.0,0.0,0.0,0.0,0.0,0.0,0.0,0.0,0.0,0.0,0.0,0.0,0.0,0.0,0.0,0.0,0.0,0.0,0.0,0.0,0.0,0.0,0.0,0.0,0.0,0.0,0.0,0.0,0.0,0.0,0.0,0.0,0.0,0.0,0.0,0.0,0.0,0.0,0.0,0.0,0.0,0.0,0.0,1.1581,1.2158,1.2508,1.2758,1.2766,1.2766,1.2832,1.3481,1.3824,0.0,0.0,0.0,0.0,0.0,0.0,0.0,0.0,0.0,0.0,0.0,0.0,0.0,0.0,0.0,0.0,0.0,0.0,0.0,0.0,0.0,0.0,0.0,0.0,0.0,0.0,0.0,0.0,0.0,0.0,0.0,0.0,0.0,0.0,0.0,0.0,0.0,0.0,0.0,0.0,2.0329,2.0676,2.1159,0.0,0.0,0.0,0.0,0.0,0.0,1.8921,1.8443,0.0,0.0,0.0,0.0,0.0,0.0,0.0,0.0,0.0,0.0,0.0,0.0,0.0,0.0,0.0,0.0,0.0,0.0,0.0,0.0,0.0,0.0,0.0,0.0,0.0,0.0,0.0,0.0,0.0,0.0,0.0,0.0,0.0,0.0,0.0,0.0,0.0,0.0,0.0,0.0,0.0,0.0,0.0,0.0,0.0,0.0,0.0,0.0,0.0,0.0,0.0,0.0,0.0,0.0,0.0,1.1289,1.2272,1.284,1.2938,1.2946,1.2946,1.2946,1.4283,1.4751,0.0,0.0,0.0,0.0,0.0,0.0,0.0,0.0,0.0,0.0,0.0,0.0,0.0,0.0,0.0,0.0,0.0,0.0,0.0,0.0,0.0,0.0,0.0,0.0,0.0,0.0,0.0,0.0,0.0,0.0,0.0,0.0,0.0,0.0,0.0,0.0,0.0,0.0,0.0,0.0,0.0,2.1159,2.154,2.1159,0.0,0.0,0.0,0.0,2.0442,1.9667,0.0,0.0,0.0,0.0,0.0,0.0,0.0,0.0,0.0,0.0,0.0,0.0,0.0,0.0,0.0,0.0,0.0,0.0,0.0,0.0,0.0,0.0,0.0,0.0,0.0,0.0,0.0,0.0,0.0,0.0,0.0,0.0,0.0,0.0,0.0,0.0,0.0,0.0,0.0,0.0,0.0,0.0,0.0,0.0,0.0,0.0,0.0,0.0,0.0,0.0,0.0,0.0,0.0,0.0,0.0,0.0,1.1459,1.2207,1.2824,1.3279,1.3311,1.3311,1.3371,1.4544,1.4974,0.0,0.0,0.0,0.0,0.0,0.0,0.0,0.0,0.0,0.0,0.0,0.0,0.0,0.0,0.0,0.0,0.0,0.0,0.0,0.0,0.0,0.0,0.0,0.0,0.0,0.0,0.0,0.0,0.0,0.0,0.0,0.0,0.0,0.0,0.0,0.0,0.0,0.0,0.0,0.0,0.0,2.1832,2.1335,2.1203,2.1013,0.0,0.0,2.1115,2.1467,2.1408,0.0,0.0,0.0,0.0,0.0,0.0,0.0,0.0,0.0,0.0,0.0,0.0,0.0,0.0,0.0,0.0,0.0,0.0,0.0,0.0,0.0,0.0,0.0,0.0,0.0,0.0,0.0,0.0,0.0,0.0,0.0,0.0,0.0,0.0,0.0,0.0,0.0,0.0,0.0,0.0,0.0,0.0,0.0,0.0,0.0,0.0,0.0,0.0,0.0,0.0,0.0,0.0,0.0,0.0,0.0,1.0907,1.1508,1.2507,1.3133,1.336,1.3368,1.3368,1.3368,1.5509,1.5964,0.0,0.0,0.0,0.0,0.0,0.0,0.0,0.0,0.0,0.0,0.0,0.0,0.0,0.0,0.0,0.0,0.0,0.0,0.0,0.0,0.0,0.0,0.0,0.0,0.0,0.0,0.0,0.0,0.0,0.0,0.0,0.0,0.0,0.0,0.0,0.0,0.0,0.0,0.0,0.0,0.0,0.0,2.252,2.2242,0.0,0.0,0.0,2.2052,2.2198,0.0,0.0,0.0,0.0,0.0,0.0,0.0,0.0,0.0,0.0,0.0,0.0,0.0,0.0,0.0,0.0,0.0,0.0,0.0,0.0,0.0,0.0,0.0,0.0,0.0,0.0,0.0,0.0,0.0,0.0,0.0,0.0,0.0,0.0,0.0,0.0,0.0,0.0,0.0,0.0,0.0,0.0,0.0,0.0,0.0,0.0,0.0,0.0,0.0,0.0,0.0,0.0,0.0,0.0,0.0,0.0,0.0,1.1581,1.2848,1.3506,1.3506,1.3575,1.3706,1.4121,1.645,0.0,0.0,0.0,0.0,0.0,0.0,0.0,0.0,0.0,0.0,0.0,0.0,0.0,0.0,0.0,0.0,0.0,0.0,0.0,0.0,0.0,0.0,0.0,0.0,0.0,0.0,0.0,1.4629,0.0,0.0,0.0,0.0,0.0,0.0,0.0,0.0,0.0,0.0,0.0,0.0,0.0,0.0,2.2403,2.334,2.312,2.2988,0.0,0.0,2.2886,2.2974,2.3051,2.2924,0.0,0.0,0.0,0.0,0.0,0.0,0.0,0.0,0.0,0.0,0.0,0.0,0.0,0.0,0.0,0.0,0.0,0.0,0.0,0.0,0.0,0.0,0.0,0.0,0.0,0.0,0.0,0.0,0.0,0.0,0.0,0.0,0.0,0.0,0.0,0.0,0.0,0.0,0.0,0.0,0.0,0.0,0.0,0.0,0.0,0.0,0.0,0.0,0.0,0.0,0.0,0.0,0.0,0.0,0.0,1.1784,1.3149,1.3863,1.3863,1.3863,1.4495,1.5901,1.7233,1.762,0.0,0.0,0.0,0.0,0.0,0.0,0.0,0.0,0.0,0.0,0.0,0.0,0.0,0.0,0.0,0.0,0.0,0.0,0.0,0.0,0.0,0.0,0.0,0.0,0.0,0.0,0.0,0.0,0.0,0.0,0.0,0.0,0.0,0.0,0.0,0.0,0.0,0.0,0.0,0.0,0.0,2.2081,2.3003,2.3369,2.3647,0.0,0.0,2.3632,2.394,2.4242,2.381,2.1976,0.0,0.0,0.0,0.0,0.0,0.0,0.0,0.0,0.0,0.0,0.0,0.0,0.0,0.0,0.0,0.0,0.0,0.0,0.0,0.0,0.0,0.0,0.0,0.0,0.0,0.0,0.0,0.0,0.0,0.0,0.0,0.0,0.0,0.0,0.0,0.0,0.0,0.0,0.0,0.0,0.0,0.0,0.0,0.0,0.0,0.0,0.0,0.0,0.0,0.0,0.0,0.0,0.0,1.1459,1.1939,1.3344,1.4123,1.4221,1.4975,1.5695,1.6268,1.8438,1.9166,0.0,0.0,0.0,0.0,0.0,0.0,0.0,0.0,0.0,0.0,0.0,0.0,0.0,0.0,0.0,0.0,0.0,0.0,0.0,0.0,0.0,0.0,0.0,0.0,0.0,0.0,0.0,0.0,1.8018,1.8116,1.7516,0.0,0.0,0.0,0.0,0.0,0.0,0.0,0.0,0.0,0.0,2.3442,2.4203,2.4488,0.0,0.0,2.4993,2.4905,2.5227,2.4907,2.4381,2.3805,2.3262,0.0,0.0,0.0,0.0,0.0,0.0,0.0,0.0,0.0,0.0,0.0,0.0,0.0,0.0,0.0,0.0,0.0,0.0,0.0,0.0,0.0,0.0,0.0,0.0,0.0,0.0,0.0,0.0,0.0,0.0,0.0,0.0,0.0,0.0,0.0,0.0,0.0,0.0,0.0,0.0,0.0,0.0,0.0,0.0,0.0,0.0,0.0,0.0,0.0,0.0,0.0,0.0,1.163,1.2109,1.3522,1.431,1.4432,1.5319,1.6257,1.7188,1.9107,2.0022,0.0,0.0,0.0,0.0,0.0,0.0,0.0,0.0,0.0,0.0,0.0,0.0,0.0,0.0,0.0,0.0,0.0,0.0,0.0,0.0,0.0,0.0,0.0,0.0,0.0,0.0,0.0,0.0,1.8766,1.8525,1.775,0.0,0.0,0.0,0.0,0.0,0.0,0.0,0.0,0.0,0.0,2.4496,2.5242,2.5257,2.5359,2.5798,2.552,2.533,2.5549,2.5231,2.4804,2.4595,0.0,0.0,0.0,0.0,0.0,0.0,0.0,0.0,0.0,0.0,0.0,0.0,0.0,0.0,0.0,0.0,0.0,0.0,0.0,0.0,0.0,0.0,0.0,0.0,0.0,0.0,0.0,0.0,0.0,0.0,0.8629,0.0,0.0,0.0,0.0,0.0,0.0,0.0,0.0,0.0,0.0,0.0,0.0,0.0,0.0,0.0,0.0,0.0,0.0,0.0,0.0,0.0,0.0,1.1939,1.2312,1.3701,1.4432,1.444,1.4432,1.6039,1.8872,1.9152,2.0051,2.1846,0.0,0.0,0.0,0.0,0.0,0.0,0.0,0.0,0.0,0.0,0.0,0.0,0.0,0.0,0.0,0.0,0.0,0.0,0.0,0.0,0.0,0.0,0.0,0.0,0.0,0.0,1.7108,1.7486,1.7735,0.0,0.0,0.0,0.0,0.0,0.0,0.0,0.0,0.0,0.0,2.413,2.492,2.5857,2.5725,2.5564,2.5524,2.5066,2.4642,2.4782,2.5159,2.5115,0.0,0.0,0.0,0.0,0.0,0.0,0.0,0.0,0.0,0.0,0.0,0.0,0.0,0.0,0.0,0.0,0.0,0.0,0.0,0.0,0.0,0.0,0.0,0.0,0.0,0.0,0.0,0.9884,0.9721,0.0,0.0,0.0,0.0,0.0,0.0,0.0,0.0,0.0,0.0,0.0,1.1882,1.2532,0.0,0.0,0.0,0.0,0.0,0.0,0.0,0.0,0.0,0.0,0.0,0.0,1.2057,1.2515,1.3888,1.4667,1.4857,1.6684,1.8232,1.9264,2.1233,2.2135,2.2017,0.0,0.0,0.0,0.0,0.0,0.0,0.0,0.0,0.0,0.0,0.0,0.0,0.0,0.0,0.0,0.0,0.0,0.0,0.0,0.0,0.0,0.0,0.0,0.0,0.0,1.8291,0.0,0.0,0.0,0.0,0.0,0.0,0.0,0.0,0.0,0.0,0.0,2.3281,2.413,2.4993,2.5725,2.6266,2.6427,2.6574,0.0,0.0,0.0,0.0,0.0,0.0,0.0,0.0,0.0,0.0,0.0,0.0,0.0,0.0,3.3275,3.0516,2.9746,2.958,2.9725,0.0,0.0,0.0,0.0,0.0,0.0,0.0,0.0,0.0,0.0,0.0,0.0,0.0,0.0,1.0794,0.0,1.0751,0.0,0.0,0.0,0.0,0.0,0.0,0.0,0.0,1.2548,1.2978,1.2889,1.3465,1.3498,0.0,1.28,1.2255,0.0,0.0,0.0,0.0,0.0,0.0,0.0,0.0,1.2367,1.3043,1.4196,1.4854,1.5105,1.7416,1.8988,1.9585,2.2616,2.3985,2.3338,2.2697,2.197,0.0,0.0,0.0,0.0,0.0,0.0,0.0,0.0,0.0,0.0,0.0,0.0,0.0,0.0,0.0,0.0,0.0,0.0,0.0,0.0,0.0,0.0,0.0,1.9125,0.0,0.0,0.0,0.0,0.0,0.0,0.0,0.0,0.0,2.1408,2.3149,2.4671,2.533,2.6047,2.6647,2.6969,0.0,0.0,0.0,0.0,0.0,0.0,0.0,2.5941,2.6494,2.5766,2.5256,2.5891,2.816,3.036,3.2107,0.0,0.0,3.3182,3.2685,3.2623,3.2789,3.3285,3.3658,3.3513,3.4054,3.4509,0.0,0.0,0.0,0.0,0.0,0.0,0.0,0.0,1.2621,1.1856,0.0,1.1804,0.0,0.0,0.0,0.0,0.0,1.2114,0.0,0.0,1.4034,1.4416,1.4342,1.4424,1.4374,1.4432,1.4091,1.3758,1.3384,1.2402,0.0,0.0,0.0,0.0,0.0,0.0,1.2865,1.388,1.4619,1.4984,1.5069,1.6586,1.8253,1.9908,2.3377,2.5387,2.5684,2.44,2.3714,2.376,2.0601,0.0,0.0,0.0,0.0,0.0,0.0,0.0,0.0,0.0,0.0,0.0,0.0,0.0,0.0,0.0,0.0,0.0,0.0,0.0,0.0,1.9852,0.0,0.0,0.0,0.0,0.0,0.0,0.0,0.0,0.0,0.0,2.2945,2.4174,2.5662,2.6808,0.0,0.0,0.0,0.0,2.751,2.7525,2.6998,2.6617,2.6647,2.6852,2.7027,2.7086,0.0,0.0,2.7175,2.8588,3.0454,3.2512,3.4029,3.56,3.7718,3.6949,3.6308,3.6701,3.6763,3.7011,3.7488,3.8191,3.9075,1.9872,0.0,0.0,0.0,0.0,1.6291,1.6604,1.7227,1.5548,1.478,1.452,1.3409,0.0,0.0,0.0,0.0,0.0,0.0,1.2914,1.3384,1.3847,1.4253,1.4627,1.4757,1.4879,1.5,1.4903,1.4871,1.4887,1.4594,1.3149,1.068,0.0,0.0,0.0,0.0,1.366,1.4115,1.4927,1.5358,1.5358,1.6912,1.9155,2.1923,2.4252,2.5567,2.602,2.5593,2.4941,2.4026,2.3069,0.0,0.0,0.0,0.0,0.0,0.0,0.0,0.0,0.0,0.0,0.0,0.0,0.0,0.0,0.0,0.0,0.0,0.0,0.0,1.8657,2.0439,2.1086,0.0,0.0,0.0,0.0,0.0,0.0,0.0,0.0,0.0,2.5388,2.6193,2.6837,0.0,0.0,2.7686,2.732,2.7773,2.8154,2.8154,2.8183,0.0,2.852,2.8066,2.7993,2.8886,2.9444,2.9516,2.8897,2.9686,3.1216,3.375,3.4574,3.5788,3.843,3.8854,3.8605,3.873,3.875,3.8724,3.8957,3.922,3.9488,2.2043,2.0106,1.9199,1.9066,1.9422,1.89,1.9115,1.9651,1.7389,1.6352,1.6167,1.4566,1.3506,1.2832,1.2759,0.0,0.0,0.0,1.3701,1.4229,1.444,1.4716,1.5025,1.513,1.5244,1.5333,1.5204,1.526,1.5512,1.5366,1.4213,1.2166,0.0,0.0,1.2296,1.3417,1.4245,1.4708,1.5236,1.5512,1.5512,1.7785,2.0589,2.4009,2.5338,2.6191,2.6586,2.6738,2.6443,2.5613,2.497,2.4095,0.0,0.0,0.0,0.0,0.0,0.0,0.0,0.0,0.0,0.0,0.0,1.794,1.6651,0.0,0.0,0.0,1.9872,2.0223,2.0735,2.2198,0.0,0.0,0.0,0.0,0.0,0.0,0.0,2.4935,2.593,2.6676,2.7203,2.7715,2.792,2.7613,2.8008,2.8227,2.7964,0.0,2.9003,2.9003,2.9149,2.9339,2.9529,2.909,2.8988,2.9734,3.0108,3.0245,3.0017,3.0321,3.1541,3.3871,3.5145,3.6476,3.9074,4.0116,4.0406,3.993,3.9951,4.0116,4.0303,4.0344,4.0386,2.3875,2.3781,2.2712,2.2539,2.2815,2.1515,2.1264,2.1498,1.8665,1.7355,1.7247,1.5662,1.4555,1.372,1.362,0.0,1.4521,1.4692,1.5025,1.5512,1.5512,1.5512,1.5512,1.5512,1.552,1.5528,1.5187,1.5212,1.5536,1.522,1.4806,1.4343,1.4326,1.4278,1.4188,1.4261,1.4708,1.5512,1.5553,1.5641,1.5792,1.8996,2.2435,2.5815,2.6412,2.6946,2.7416,2.7719,2.7947,2.7874,2.6487,2.5754,2.5582,0.0,0.0,0.0,0.0,0.0,0.0,0.0,0.0,0.0,0.0,0.0,0.0,0.0,0.0,0.0,2.3442,0.0,2.4525,2.4694,0.0,0.0,0.0,2.3384,2.3881,2.4935,2.5769,2.6193,0.0,0.0,2.8505,2.8783,2.8856,2.8578,2.8783,2.9061,2.9295,2.9588,2.9947,2.9807,2.9917,2.9866,2.9895,2.9881,2.9895,3.0005,2.9925,3.0101,3.0349,3.054,3.1487,3.3562,3.5314,3.7129,3.9238,4.0827,4.1709,4.0613,4.0696,4.111,4.1462,4.1545,4.1648,2.477,2.4756,2.4703,2.4369,2.3915,2.3753,2.3896,2.4074,2.2181,2.1458,2.1402,1.8532,1.645,1.5065,1.5025,1.5098,1.526,1.5301,1.5398,1.5512,1.5512,1.5512,1.5512,1.5512,1.5585,1.5699,1.5618,1.5699,1.591,1.5837,1.5723,1.561,1.5601,1.5122,1.4245,1.4984,1.5496,1.5707,1.5853,1.6563,1.7918,2.121,2.3464,2.4348,2.6016,2.7112,2.7501,2.7968,2.8255,2.8253,2.7949,2.7627,2.7275,2.4006,0.0,0.0,0.0,0.0,0.0,0.0,0.0,0.0,0.0,2.1148,1.9213,0.0,2.1818,0.0,2.5944,2.6252,2.4393,2.5081,0.0,0.0,2.4627,2.4657,2.6676,2.653,2.6764,2.8066,2.8695,2.9164,2.9486,2.9588,2.9603,2.9529,2.9588,2.9486,2.9105,2.9515,2.9947,2.9961,2.9976,3.0035,3.0203,3.0451,3.0495,3.0357,3.0422,3.0422,3.0115,3.0491,3.1376,3.2904,3.4004,3.5779,3.8671,3.988,4.0718,4.1542,4.1928,4.2032,4.2156,4.2177,4.2198,2.5277,2.5291,2.5451,2.5237,2.4796,2.4957,2.4652,2.4023,2.2407,2.1399,2.0678,1.8186,1.657,1.5634,1.5715,1.5748,1.5748,1.5748,1.5796,1.5861,1.5788,1.5796,1.5861,1.5869,1.5918,1.6008,1.6089,1.6186,1.6276,1.6284,1.6284,1.6284,1.6284,1.5934,1.5293,1.5683,1.5853,1.5772,1.5951,1.7182,1.9674,2.1625,2.3317,2.4881,2.6408,2.7373,2.752,2.8201,2.839,2.8052,2.8008,2.7934,2.7715,2.5579,2.4598,0.0,0.0,0.0,0.0,0.0,0.0,0.0,0.0,0.0,0.0,0.0,2.3486,2.4349,2.6559,2.713,2.5125,2.6237,2.7144,2.7276,2.6778,2.7071,2.8637,2.833,2.8344,2.9222,2.9486,2.9661,2.9837,3.0079,3.0086,3.0086,3.0203,3.0115,2.969,2.9983,3.029,3.029,3.029,3.0349,3.0539,3.0715,3.0759,3.0627,3.07,3.07,3.0349,3.0601,3.1235,3.2162,3.3387,3.4965,3.709,3.9126,4.0619,4.1474,4.2399,4.2787,4.26,4.2559,4.26,2.5571,2.5571,2.5611,2.5625,2.5625,2.5665,2.4765,2.3198,2.1802,2.0116,1.8223,1.6814,1.6097,1.5886,1.6048,1.6113,1.6113,1.6113,1.6194,1.6324,1.6186,1.6194,1.6341,1.6341,1.6341,1.6349,1.6503,1.6584,1.6584,1.6584,1.6584,1.6584,1.6584,1.6568,1.6535,1.6259,1.604,1.5878,1.6368,1.8028,2.1007,2.157,2.317,2.602,2.7128,2.7615,2.7621,2.8424,2.856,2.7771,2.7788,2.7788,2.7773,2.7291,2.6603,0.0,2.5227,0.0,0.0,0.0,0.0,0.0,0.0,0.0,0.0,2.5754,2.5535,2.4203,2.6588,2.7655,2.6603,2.7788,2.8725,2.8988,2.9266,2.9559,2.9822,2.9947,2.9881,3.0005,3.0005,2.9939,3.0012,3.0246,3.0407,3.0504,3.0612,3.0656,3.0481,3.0612,3.0773,3.0817,3.0817,3.0759,3.0788,3.0817,3.0817,3.0817,3.0817,3.0817,3.0788,3.0803,3.0969,3.1452,3.2874,3.4506,3.5349,3.8371,4.0685,4.1364,4.2596,4.3428,4.3118,4.3014,4.3139,2.5865,2.597,2.6119,2.6226,2.6239,2.648,2.6148,2.5386,2.5076,2.3416,2.0732,1.9062,1.7609,1.6514,1.6462,1.6479,1.6479,1.6479,1.6495,1.6527,1.6495,1.6495,1.6527,1.6527,1.6527,1.6527,1.656,1.6584,1.6584,1.6584,1.6584,1.6584,1.6584,1.6503,1.6365,0.0,0.0,0.0,1.8617,2.0043,2.0772,2.3557,2.54,2.6044,2.7198,0.0,2.7831,2.8707,2.9042,2.887,2.9254,0.0,0.0,0.0,0.0,0.0,0.0,0.0,0.0,0.0,0.0,0.0,2.6632,2.6471,2.6296,2.7949,2.8403,2.6969,2.8417,2.9398,2.9164,2.9398,2.9617,2.9676,2.9734,2.9807,2.9851,2.9947,3.0035,3.0313,3.0343,3.0364,3.0583,3.07,3.0729,3.0715,3.0788,3.0803,3.0744,3.0773,3.0817,3.0817,3.0817,3.0817,3.0817,3.0817,3.0817,3.0817,3.0817,3.0817,3.0817,3.0817,3.0817,3.0984,3.155,3.3085,3.5719,3.756,3.9415,4.2062,4.3157,4.3594,4.3491,4.347,4.3511,2.66,0.0,2.676,2.6827,0.0,2.6974,2.6384,2.5215,2.4319,2.2189,1.9024,1.8187,1.7332,1.6584,1.6584,1.6584,1.6584,1.6584,1.6625,1.6706,1.6625,1.6625,1.6714,1.6714,1.6714,1.6722,1.6803,1.6844,1.6844,1.6844,1.6844,1.6844,1.6844,1.6795,1.6706,1.7734,1.811,1.7917,1.9269,2.0813,2.2612,2.4412,2.5673,2.6232,2.7295,0.0,0.0,0.0,0.0,0.0,0.0,0.0,0.0,0.0,0.0,2.8052,2.7407,2.7013,2.7174,2.7262,2.7687,2.8564,2.8812,2.8695,2.8198,2.9208,2.9529,2.8769,2.9412,2.9947,2.9947,2.9947,2.9925,3.0071,3.0181,3.0159,3.0305,3.0334,3.0407,3.0539,3.0583,3.0656,3.0803,3.0817,3.0817,3.0817,3.0817,3.0817,3.0817,3.0817,3.0817,3.0817,3.0817,3.0817,3.0817,3.0817,3.0817,3.0817,3.0817,3.0817,3.0817,3.0817,3.0817,3.0817,3.115,3.2211,3.3724,3.5897,3.8152,3.9905,4.1888,4.3233,4.331,4.3462,4.3615,2.735,2.735,2.735,2.735,2.735,2.7321,2.6115,2.4056,0.0,0.0,0.0,1.6795,1.6649,1.6674,1.6674,1.6674,1.6674,1.6674,1.6755,1.6806,1.6738,1.6755,1.6901,1.6901,1.6814,1.6822,1.7047,1.7112,1.7112,1.7112,1.7112,1.7112,1.7112,1.7279,1.763,1.9099,2.0048,2.0378,2.0259,2.1608,2.4528,2.4952,2.5524,2.651,2.7445,2.7729,2.7333,2.8078,2.8456,2.8118,2.7841,2.7841,2.8296,2.8296,2.8655,2.9401,2.9879,3.0042,3.0027,3.0027,3.0027,3.0027,3.0276,3.0372,2.9983,2.9998,3.0042,3.0027,3.0027,3.0042,3.0042,3.0027,3.0144,3.0407,3.0437,3.0539,3.0773,3.0817,3.0803,3.0817,3.0803,3.0817,3.0817,3.0817,3.0817,3.0817,3.0817,3.0817,3.0817,3.0817,3.0817,3.0817,3.0817,3.0817,3.0817,3.0817,3.0817,3.0817,3.0817,3.0817,3.0817,3.0817,3.0817,3.0817,3.115,3.1565,3.2061,3.4946,3.7303,3.7685,4.0625,4.3249,4.3249,4.3474,4.3718,2.735,2.735,2.735,2.735,2.7281,2.7535,2.5815,2.2738,2.0512,1.9363,1.8925,1.7407,1.6901,1.7039,1.7031,1.7039,1.7039,1.7031,1.7047,1.7071,1.7047,1.7047,1.708,1.7071,1.7071,1.708,1.7104,1.7112,1.7112,1.7112,1.7112,1.7112,1.7112,1.7893,1.9351,1.9786,2.148,2.4403,2.3844,2.368,2.4169,2.5737,2.6586,2.6747,2.7631,2.8144,2.8009,2.8535,2.8883,2.9256,2.9587,2.9918,3.0316,3.0287,3.0471,3.0588,3.0603,3.0685,3.0685,3.0685,3.0685,3.0685,3.0729,3.0612,3.0334,3.0539,3.0685,3.0685,3.0656,3.0685,3.0685,3.0656,3.0671,3.0729,3.0744,3.0773,3.0817,3.0817,3.0817,3.0817,3.0817,3.0817,3.0817,3.0817,3.0817,3.0817,3.0817,3.0832,3.0846,3.0817,3.0817,3.0817,3.0817,3.0817,3.0817,3.0817,3.0817,3.0817,3.0832,3.0861,3.0861,3.089,3.0905,3.0846,3.0974,3.1541,3.2752,3.5357,3.7397,3.874,4.1558,4.3652,4.3809,4.4054,4.4014,2.7736,2.7832,2.7819,2.7819,2.7666,2.5746,2.4063,2.2342,1.9331,1.8113,1.8096,1.7331,1.7031,1.7104,1.7112,1.7112,1.7112,1.7112,1.7112,1.7112,1.7112,1.7112,1.7112,1.7112,1.7112,1.7112,1.7112,1.7112,1.7112,1.7112,1.7112,1.7112,1.7112,1.7543,1.841,1.9351,2.0732,2.2449,2.4001,2.5342,2.6281,2.7122,2.7535,2.7549,2.8033,2.8234,2.8234,2.8403,2.8655,2.9076,2.916,2.9328,2.9663,2.9747,2.9747,2.9732,2.9983,3.0067,3.0067,3.0332,3.0582,3.0749,3.0582,3.0441,3.0296,3.0578,3.0817,3.0817,3.0817,3.0817,3.0817,3.0817,3.0817,3.0817,3.0817,3.0817,3.0817,3.0817,3.0817,3.0817,3.0817,3.0817,3.0817,3.0817,3.0817,3.0817,3.0832,3.0876,3.1066,3.1095,3.1022,3.0861,3.0817,3.0817,3.0832,3.0817,3.0817,3.0817,3.0978,3.1066,3.111,3.1198,3.1329,3.1344,3.1344,3.1598,3.2495,3.4263,3.6256,3.8099,4.0341,4.2123,4.326,4.3931,4.4132,2.8234,2.8221,2.7714,2.7363,2.6673,2.3395,2.2019,2.1673,1.8488,1.7112,1.7112,1.7112,1.7112,1.7112,1.7112,1.7112,1.7112,1.7112,1.7112,1.7112,1.7112,1.7112,1.7112,1.7112,1.7112,1.7112,1.7112,1.7112,1.7112,1.7112,1.7112,1.7112,1.7112,1.7279,1.7797,1.9186,2.0047,2.0645,2.3749,2.6066,2.7532,2.7968,2.8221,2.8234,2.8221,2.8234,2.8234,2.8234,2.8403,2.874,2.8487,2.8558,2.8908,2.8992,2.8992,2.8992,2.9314,2.9495,2.9579,2.9914,3.0263,3.0484,3.0248,3.0095,3.0179,3.0499,3.0665,3.0665,3.0665,3.0665,3.0749,3.0665,3.0665,3.0734,3.0749,3.0665,3.0734,3.0817,3.0817,3.0817,3.0817,3.0817,3.0832,3.089,3.0978,3.1066,3.1037,3.1154,3.1373,3.1417,3.13,3.1139,3.1037,3.1081,3.1037,3.1066,3.1081,3.1051,3.1256,3.1388,3.1461,3.1637,3.1768,3.1739,3.1768,3.1825,3.1954,3.3367,3.5233,3.7161,3.9421,4.1379,4.334,4.4138,4.4348,2.8136,2.7968,2.6418,2.4691,2.3052,2.1078,2.0221,1.996,1.7972,1.7112,1.7112,1.7112,1.7112,1.7112,1.7112,1.7112,1.7112,1.7112,1.7112,1.7112,1.7112,1.7112,1.7112,1.7112,1.7112,1.7112,1.7112,1.7112,1.7112,1.7112,1.7112,1.7112,1.7112,1.7893,1.9351,1.97,2.0645,2.2363,2.4349,2.5458,2.5726,2.7279,2.8234,2.8234,2.8234,2.8234,2.8234,2.8234,2.8403,2.874,2.874,2.8894,2.9314,2.9398,2.9398,2.9398,2.9481,2.9495,2.9565,2.9914,2.9998,2.9649,2.9565,2.9747,3.0081,3.0179,3.0263,3.0263,3.0263,3.0415,3.0734,3.0499,3.0415,3.0651,3.0499,3.043,3.0749,3.0817,3.0817,3.0817,3.089,3.0832,3.092,3.111,3.1359,3.1578,3.1593,3.1637,3.1739,3.1754,3.1768,3.1724,3.171,3.1681,3.1666,3.1695,3.1622,3.1651,3.171,3.1754,3.1768,3.1798,3.1812,3.1988,3.1885,3.19,3.2274,3.3435,3.5365,3.7065,3.939,4.2061,4.4099,4.4803,4.4739,2.7532,2.6503,2.5726,2.4349,2.2449,2.0645,1.9873,1.97,1.7885,1.7112,1.7112,1.7112,1.7112,1.7112,1.7112,1.7112,1.7112,1.7112,1.7112,1.7112,1.7112,1.7112,1.7112,1.7112,1.7112,1.7112,1.7112,1.7112,1.7112,1.7112,1.7112,1.7112,1.7112,1.7455,1.8235,1.8235,1.8663,1.9438,2.2277,2.3738,2.4081,2.6673,2.8234,2.8234,2.8234,2.8234,2.8234,2.8234,2.8318,2.8403,2.8487,2.8571,2.8726,2.8726,2.8726,2.8726,2.8726,2.881,2.9062,2.9244,2.9411,2.9495,2.923,2.916,2.9328,2.916,2.9076,2.9411,2.9914,3.0165,3.0081,3.0081,3.0263,3.0415,3.0499,3.0582,3.0734,3.0993,3.111,3.1124,3.1285,3.1388,3.1417,3.1505,3.1651,3.1783,3.1812,3.1885,3.2046,3.209,3.2178,3.2324,3.2368,3.2193,3.1929,3.1798,3.1812,3.1841,3.1973,3.2076,3.2105,3.228,3.2383,3.2354,3.2324,3.2324,3.2412,3.2951,3.4278,3.6424,3.9254,4.1936,4.4194,4.4601,4.4825,2.6673,2.5373,2.4349,2.2794,2.0992,1.97,1.9186,1.9012,1.7718,1.7112,1.7112,1.7112,1.7112,1.7112,1.7112,1.7112,1.7112,1.7112,1.7112,1.7112,1.7112,1.7112,1.7112,1.7112,1.7112,1.7112,1.7112,1.7112,1.7112,1.7112,1.7112,1.7112,1.7112,1.7112,1.7112,1.7112,1.7367,1.8147,2.1078,2.2794,2.3738,2.6503,2.8234,2.8234,2.8234,2.8234,2.8234,2.8234,2.8234,2.8234,2.8234,2.8234,2.8234,2.8234,2.8234,2.8234,2.8305,2.8403,2.8655,2.874,2.8908,2.9076,2.8892,2.8778,2.8876,2.8761,2.8717,2.9084,2.9663,2.9916,2.9705,3.0028,3.0254,3.0437,3.0759,3.0927,3.104,3.1315,3.1446,3.1476,3.1622,3.1841,3.19,3.1929,3.1973,3.2076,3.2105,3.212,3.2354,3.2427,3.25,3.2734,3.2763,3.2573,3.2149,3.212,3.2061,3.2105,3.2295,3.2412,3.2412,3.2646,3.2763,3.2588,3.2719,3.2749,3.2646,3.2881,3.3734,3.6015,3.8699,4.1546,4.3962,4.4268,4.4698,2.547,2.4861,2.1587,1.9186,1.7367,1.7375,1.7279,1.7455,1.72,1.7112,1.7112,1.7112,1.7112,1.7112,1.7112,1.7112,1.7112,1.7112,1.7112,1.7112,1.7112,1.7112,1.7112,1.7112,1.7112,1.7112,1.7112,1.7112,1.7112,1.7112,1.7112,1.7112,1.7112,1.7112,1.7112,1.7112,1.7972,1.9613,2.1597,2.3395,2.5203,2.7109,2.8234,2.8234,2.8234,2.8234,2.8234,2.8234,2.8234,2.8234,2.8234,2.8234,2.8234,2.8234,2.8234,2.8221,2.8571,2.8571,2.8332,2.8598,2.8683,2.8457,2.8614,2.8848,2.919,2.9281,2.9417,2.9572,2.9631,2.9807,2.9857,3.0054,3.0451,3.0823,3.1038,3.1195,3.1639,3.1639,3.1768,3.1783,3.1841,3.2002,3.2222,3.2266,3.2383,3.2573,3.269,3.269,3.2676,3.2719,3.2734,3.2749,3.2763,3.2763,3.2719,3.2573,3.2617,3.2632,3.2602,3.2749,3.2749,3.2763,3.2793,3.2822,3.2895,3.291,3.2807,3.3485,3.4674,3.6492,3.8512,4.1068,4.3183,4.3998,4.4472,2.4006,2.1684,1.9186,1.7718,1.7112,1.7112,1.7112,1.7112,1.7112,1.7112,1.7112,1.7112,1.7112,1.7112,1.7112,1.7112,1.7112,1.7112,1.7112,1.7112,1.7112,1.7112,1.7112,1.7112,1.7112,1.7112,1.7112,1.7112,1.7112,1.7112,1.7112,1.7112,1.7112,1.7112,1.7112,1.7112,1.806,1.9873,2.1673,2.3481,2.5385,2.7194,2.8234,2.8234,2.8234,2.8234,2.8234,2.8234,2.8234,2.8234,2.8234,2.8234,2.8234,2.8234,2.8234,2.8221,2.8318,2.8399,2.8489,2.8614,2.8695,2.8711,2.8818,2.8885,2.9071,2.9239,2.9206,2.9333,2.9495,2.9596,2.9703,2.9868,2.9973,3.016,3.0506,3.0779,3.0966,3.1368,3.1685,3.1714,3.2106,3.2471,3.2529,3.2602,3.2646,3.2734,3.2763,3.2778,3.2778,3.2763,3.2793,3.2778,3.2778,3.2851,3.3071,3.2866,3.2778,3.2837,3.288,3.3012,3.3071,3.3246,3.3319,3.329,3.329,3.3276,3.3261,3.344,3.4736,3.6331,3.8419,3.9839,4.1936,4.293,4.3613,2.1856,1.9012,1.763,1.7145,1.7201,1.7201,1.7234,1.7274,1.7283,1.7283,1.7283,1.7283,1.7283,1.7283,1.7283,1.7283,1.7266,1.7169,1.7112,1.7112,1.7112,1.7112,1.712,1.7169,1.7201,1.721,1.7258,1.7283,1.7283,1.7283,1.7283,1.7283,1.7283,1.7283,1.7274,1.7234,1.8347,2.0735,2.2102,2.3514,2.5396,2.6714,2.7408,2.7434,2.7499,2.7715,2.8163,2.823,2.8297,2.8297,2.8377,2.839,2.831,2.8297,2.8297,2.8382,2.839,2.8524,2.8711,2.8751,2.8831,2.9018,2.9138,2.9192,2.9192,2.9272,2.9312,2.9379,2.9486,2.9619,2.9668,2.9697,2.9839,3.0014,3.0437,3.0699,3.0713,3.1348,3.1813,3.2032,3.2426,3.2734,3.2763,3.2763,3.2763,3.2763,3.2763,3.2793,3.2895,3.2924,3.2983,3.3056,3.3129,3.3217,3.3349,3.3276,3.3217,3.3246,3.3246,3.3349,3.3451,3.3641,3.3758,3.3758,3.3744,3.3744,3.3729,3.3744,3.4623,3.6052,3.7071,3.8393,4.0174,4.1812,4.2791,1.8846,1.74,1.712,1.7242,1.738,1.7388,1.7478,1.7583,1.7607,1.7583,1.7575,1.7607,1.7583,1.7607,1.7575,1.7616,1.7543,1.7299,1.7169,1.7161,1.7161,1.7153,1.7169,1.7315,1.7388,1.7396,1.7543,1.7616,1.7599,1.7583,1.7591,1.7525,1.7591,1.7575,1.7624,1.7551,1.9231,2.1924,2.2455,2.3476,2.5476,2.5697,2.5784,2.5969,2.6175,2.6872,2.8132,2.8457,2.8604,2.8631,2.8845,2.8885,2.8644,2.8604,2.8617,2.8644,2.8858,2.9005,2.9045,2.9045,2.9045,2.9165,2.9339,2.9486,2.9513,2.9686,2.982,2.982,2.9847,2.9887,2.9887,2.9887,3.0025,3.0513,3.0773,3.104,3.117,3.1671,3.2218,3.2557,3.2675,3.2778,3.2778,3.2689,3.2689,3.2822,3.2793,3.288,3.31,3.3173,3.3349,3.3568,3.3583,3.3554,3.3656,3.3729,3.3729,3.3744,3.3715,3.3744,3.3758,3.3905,3.4007,3.4022,3.4036,3.4036,3.4051,3.4128,3.4513,3.5743,3.6432,3.7192,3.8978,4.0683,4.2401,1.7898,1.7469,1.7478,1.751,1.7559,1.7559,1.7599,1.764,1.764,1.764,1.764,1.764,1.764,1.7648,1.764,1.7648,1.7632,1.7518,1.7478,1.7478,1.7469,1.7469,1.7478,1.7534,1.7559,1.7567,1.7607,1.7648,1.7648,1.7648,1.764,1.764,1.7648,1.764,1.7656,1.7682,1.8934,2.0907,2.1166,2.209,2.3831,2.4019,2.4547,2.5886,2.6046,2.6885,2.8605,2.8858,2.8898,2.8911,2.8991,2.9005,2.8925,2.8911,2.8898,2.8911,2.8978,2.9152,2.9325,2.9352,2.9432,2.9593,2.9726,2.9766,2.978,2.986,2.9913,2.9913,2.9913,2.9913,2.994,3.0114,3.0217,3.0106,3.0272,3.0478,3.0581,3.109,3.1685,3.2143,3.2232,3.2496,3.2819,3.2687,3.2554,3.2952,3.2939,3.2939,3.3188,3.3319,3.3378,3.3656,3.37,3.3875,3.3993,3.4095,3.4124,3.4124,3.411,3.4066,3.4095,3.4154,3.4256,3.43,3.4314,3.4314,3.4329,3.45,3.4902,3.4947,3.5438,3.6584,3.8203,3.9905,4.1652,1.7543,1.764,1.764,1.7681,1.7737,1.7746,1.7786,1.7835,1.7843,1.7835,1.7843,1.7843,1.7835,1.7843,1.7835,1.7835,1.7843,1.7843,1.7843,1.7811,1.7681,1.7648,1.7656,1.7721,1.7786,1.7835,1.7843,1.7843,1.7835,1.7835,1.7843,1.7843,1.7835,1.7843,1.7827,1.7778,1.8664,2.0333,2.0573,2.1054,2.202,2.2299,2.3204,2.4909,2.5256,2.6661,2.9,2.9366,2.9312,2.9232,2.9205,2.9205,2.9205,2.9205,2.9205,2.9232,2.9312,2.9459,2.9619,2.9646,2.9713,2.9887,2.9913,2.9913,2.9913,2.9913,2.9913,2.9913,2.9913,2.9913,2.9953,3.0181,3.0247,3.0114,3.0207,3.0311,3.0506,3.1048,3.1499,3.1991,3.2081,3.2332,3.2494,3.2765,3.2574,3.3003,3.3171,3.3246,3.3495,3.3627,3.3788,3.3963,3.4154,3.4285,3.4373,3.4432,3.449,3.449,3.4475,3.4432,3.4417,3.4475,3.4563,3.4549,3.4549,3.4534,3.4549,3.4578,3.475,3.4695,3.4803,3.602,3.7622,3.9328,4.1088,1.7664,1.7664,1.7672,1.7786,1.7924,1.7932,1.8005,1.8135,1.8152,1.8135,1.8144,1.8127,1.8144,1.816,1.8119,1.8119,1.8168,1.8135,1.8119,1.8046,1.7867,1.7729,1.7754,1.7867,1.7997,1.8111,1.8135,1.8144,1.8111,1.8119,1.8168,1.8127,1.8119,1.816,1.8103,1.7997,1.8819,2.0253,2.027,2.0296,2.0627,2.0636,2.1728,2.381,2.4165,2.5911,2.918,2.982,2.974,2.9539,2.9499,2.9513,2.9499,2.9513,2.9513,2.9513,2.9766,2.9833,2.99,2.986,2.9887,2.99,2.9913,2.9913,2.9913,2.9913,2.9913,2.9913,2.9913,2.9927,3.0007,3.0247,3.0408,3.0488,3.0608,3.0872,3.1307,3.1478,3.1684,3.2,3.2161,3.2189,3.2359,3.2605,3.2865,3.3105,3.3427,3.3667,3.3978,3.408,3.4329,3.4446,3.4505,3.4534,3.4549,3.4563,3.4607,3.4607,3.4622,3.4622,3.4607,3.4666,3.471,3.471,3.471,3.471,3.471,3.471,3.471,3.471,3.5069,3.5786,3.6837,3.8412,3.9802,1.7916,1.803,1.8038,1.8062,1.8103,1.8111,1.8127,1.8176,1.8176,1.8176,1.8176,1.8176,1.8176,1.8176,1.8176,1.8176,1.8176,1.8176,1.8176,1.816,1.8095,1.8038,1.8038,1.8079,1.8127,1.8176,1.8176,1.8176,1.8176,1.8176,1.8176,1.8176,1.8176,1.8176,1.816,1.8119,1.8313,1.8896,1.8921,1.8862,1.8904,1.8921,2.0575,2.3603,2.393,2.598,2.9451,2.9913,2.9887,2.982,2.9806,2.9793,2.978,2.978,2.978,2.9793,2.9847,2.9913,2.9913,2.9913,2.9913,2.9913,2.9913,2.9913,2.9913,2.9913,2.9913,2.9913,2.9913,3.002,3.0234,3.0501,3.0822,3.1196,3.1036,3.0941,3.1006,3.1335,3.1611,3.1702,3.173,3.1932,3.232,3.2541,3.2761,3.3165,3.3596,3.3875,3.4183,3.4285,3.4417,3.4578,3.4651,3.468,3.4695,3.4695,3.4695,3.468,3.468,3.468,3.4666,3.4695,3.471,3.471,3.471,3.471,3.471,3.471,3.471,3.471,3.4882,3.5335,3.5693,3.6837,3.7911,1.8087,1.8176,1.8176,1.8176,1.8176,1.8176,1.8176,1.8176,1.8176,1.8176,1.8176,1.8176,1.8176,1.8176,1.8176,1.8176,1.8176,1.8176,1.8176,1.8176,1.8168,1.8168,1.8168,1.8176,1.8176,1.8176,1.8176,1.8176,1.8176,1.8176,1.8176,1.8176,1.8176,1.8176,1.8176,1.8176,1.8176,1.8269,1.8176,1.8176,1.8176,1.8176,2.0381,2.3137,2.4054,2.5889,2.9182,2.9182,2.8989,2.9631,2.9913,2.9913,2.9913,2.9913,2.9913,2.9913,2.9913,2.9913,2.9913,2.9913,2.9913,2.9913,2.9913,2.9913,2.9913,2.9913,2.994,3.01,3.01,3.0247,3.0515,3.0795,3.1169,3.1503,3.1356,3.1156,3.1156,3.1463,3.1529,3.1622,3.1622,3.1756,3.2228,3.2263,3.265,3.3214,3.3636,3.3929,3.4309,3.4417,3.4446,3.4622,3.471,3.471,3.471,3.471,3.471,3.471,3.471,3.471,3.471,3.471,3.471,3.471,3.471,3.471,3.471,3.471,3.471,3.471,3.471,3.4803,3.5256,3.5786,3.6869,1.8176,1.8176,1.8176,1.8176,1.8176,1.8176,1.8176,1.8176,1.8176,1.8176,1.8176,1.8176,1.8176,1.8176,1.8176,1.8176,1.8176,1.8176,1.8176,1.8176,1.8176,1.8176,1.8176,1.8176,1.8176,1.8176,1.8176,1.8176,1.8176,1.8176,1.8176,1.8176,1.8176,1.8176,1.8176,1.8176,1.8176,1.8176,1.8176,1.8176,1.8176,1.8363,2.0196,2.3412,2.4602,2.5787,2.7805,2.7985,2.7883,2.9451,2.9734,2.9913,2.9913,2.9913,2.9913,2.994,2.9967,2.998,2.994,2.9953,2.998,2.9993,2.9993,2.9993,3.006,3.0114,3.0194,3.0381,3.0408,3.0555,3.0808,3.1102,3.1356,3.161,3.1637,3.1664,3.1677,3.1677,3.1677,3.1677,3.1758,3.1664,3.1853,3.2138,3.2583,3.2821,3.337,3.3758,3.4082,3.4283,3.4406,3.4666,3.471,3.471,3.471,3.471,3.471,3.471,3.471,3.471,3.471,3.471,3.471,3.471,3.471,3.471,3.471,3.471,3.471,3.471,3.471,3.471,3.4803,3.56,3.6406,1.8176,1.8176,1.8176,1.8176,1.8176,1.8176,1.8176,1.8176,1.8176,1.8176,1.8176,1.8176,1.8176,1.8176,1.8176,1.8176,1.8176,1.8176,1.8176,1.8176,1.8176,1.8176,1.8176,1.8176,1.8176,1.8176,1.8176,1.8176,1.8176,1.8176,1.8176,1.8176,1.8176,1.8176,1.8176,1.8176,1.8176,1.8176,1.8176,1.8176,1.8176,1.8269,2.001,2.3504,2.515,2.5605,2.5514,2.6423,2.716,2.7895,2.9015,2.998,2.9953,2.994,2.9953,3.002,3.0167,3.0167,3.002,3.0154,3.0274,3.0261,3.0274,3.0368,3.0595,3.0568,3.0608,3.0702,3.0702,3.0822,3.1102,3.1396,3.1557,3.165,3.1677,3.1677,3.1677,3.1677,3.1677,3.1677,3.1677,3.1677,3.1772,3.2043,3.2421,3.2597,3.2974,3.354,3.3822,3.4024,3.4212,3.4414,3.4508,3.4508,3.471,3.471,3.471,3.471,3.471,3.4783,3.4783,3.471,3.471,3.471,3.471,3.471,3.471,3.471,3.471,3.471,3.471,3.471,3.4882,3.5506,3.5786,1.8176,1.8176,1.8176,1.8176,1.8176,1.8176,1.8176,1.8176,1.8176,1.8176,1.8176,1.8176,1.8176,1.8176,1.8176,1.8176,1.8176,1.8176,1.8176,1.8176,1.8176,1.8176,1.8176,1.8176,1.8176,1.8176,1.8176,1.8176,1.8176,1.8176,1.8176,1.8176,1.8176,1.8176,1.8176,1.8176,1.8176,1.8176,1.8176,1.8176,1.8176,1.8269,1.9462,2.2034,2.3677,2.3951,2.4237,2.509,2.6223,2.7457,2.9118,3.0247,3.014,3.0127,3.0181,3.0341,3.0448,3.0501,3.0421,3.0461,3.0568,3.0568,3.0568,3.0648,3.0755,3.0795,3.0875,3.0955,3.1022,3.1116,3.1396,3.153,3.1664,3.1677,3.1677,3.1677,3.1677,3.1677,3.1677,3.1677,3.1677,3.1677,3.1867,3.2043,3.2232,3.2408,3.2502,3.2974,3.3351,3.3648,3.3822,3.4024,3.4212,3.4414,3.4616,3.471,3.471,3.471,3.471,3.4841,3.4958,3.4827,3.471,3.4753,3.4812,3.471,3.471,3.471,3.4724,3.471,3.471,3.471,3.4803,3.5069,3.5163,1.8176,1.8176,1.8176,1.8176,1.8176,1.8176,1.8176,1.8176,1.8176,1.8176,1.8176,1.8176,1.8176,1.8176,1.8176,1.8176,1.8176,1.8184,1.8184,1.8241,1.8192,1.8217,1.8225,1.8208,1.8176,1.8176,1.8176,1.8176,1.8176,1.8176,1.8176,1.8176,1.8176,1.8176,1.8176,1.8176,1.8176,1.8176,1.8176,1.8176,1.8176,1.8176,1.9192,2.0288,2.1455,2.2298,2.3364,2.4323,2.5381,2.6964,2.9148,3.0004,3.0188,3.0448,3.0515,3.0768,3.0808,3.0795,3.0728,3.0795,3.0862,3.0862,3.0862,3.0902,3.0942,3.1009,3.1102,3.1209,3.1303,3.1383,3.1637,3.1664,3.1664,3.1677,3.1677,3.1677,3.1677,3.1677,3.1677,3.1677,3.1677,3.1677,3.1677,3.1867,3.2043,3.2138,3.2219,3.2408,3.288,3.3163,3.3445,3.3822,3.4024,3.445,3.4762,3.4885,3.4871,3.4929,3.4885,3.5031,3.5192,3.5149,3.5061,3.4944,3.4929,3.4841,3.4812,3.4871,3.4841,3.4768,3.471,3.471,3.471,3.471,3.471,1.8176,1.8176,1.8176,1.8176,1.8176,1.8176,1.8176,1.8176,1.8176,1.8176,1.8176,1.8176,1.8176,1.8176,1.8176,1.8176,1.8176,1.82,1.8265,1.8338,1.8282,1.8249,1.8338,1.8233,1.8184,1.8176,1.8176,1.8176,1.8176,1.8176,1.8176,1.8176,1.8176,1.8176,1.8176,1.8176,1.8176,1.8176,1.8176,1.8176,1.82,1.8302,1.8387,1.9142,2.0256,2.1264,2.2162,2.3718,2.4981,2.5357,2.718,2.8152,2.8694,2.9724,3.0531,3.0889,3.1049,3.1089,3.0955,3.1049,3.1129,3.1156,3.1156,3.1289,3.141,3.149,3.1463,3.1503,3.1557,3.161,3.1664,3.1677,3.1677,3.1677,3.1677,3.1677,3.1677,3.1677,3.1677,3.1677,3.1677,3.1677,3.1677,3.1677,3.1853,3.1948,3.1948,3.2138,3.2421,3.2691,3.2974,3.3445,3.3916,3.4494,3.4951,3.509,3.5119,3.528,3.5324,3.5397,3.5514,3.5529,3.547,3.5456,3.5236,3.5046,3.5031,3.5017,3.49,3.4753,3.4724,3.471,3.471,3.471,3.471,1.8176,1.8176,1.8176,1.8176,1.8176,1.8176,1.8176,1.8176,1.8176,1.8176,1.8176,1.8176,1.8176,1.8176,1.8176,1.8176,1.8192,1.829,1.8363,1.842,1.8371,1.8355,1.8436,1.8273,1.8192,1.8176,1.8176,1.8176,1.8176,1.8176,1.8176,1.8176,1.8176,1.8176,1.8176,1.8176,1.8176,1.8176,1.8184,1.8225,1.8306,1.8314,1.8314,1.8723,1.9244,1.9896,2.0494,2.2259,2.331,2.3817,2.5436,2.6416,2.7224,2.8448,3.0178,3.0968,3.1356,3.141,3.1276,3.1396,3.145,3.145,3.145,3.1517,3.1623,3.165,3.1677,3.1677,3.1677,3.1677,3.1677,3.1677,3.1677,3.1677,3.1677,3.1677,3.1677,3.1677,3.1677,3.1677,3.1677,3.1677,3.1677,3.1677,3.1677,3.1677,3.1677,3.1853,3.2043,3.2232,3.2502,3.3257,3.3836,3.4421,3.4951,3.5192,3.5324,3.5514,3.5705,3.5792,3.5807,3.5807,3.5983,3.61,3.5807,3.5266,3.509,3.5002,3.4871,3.4753,3.4724,3.471,3.471,3.471,3.471,1.8176,1.8176,1.8176,1.8176,1.8176,1.8176,1.8176,1.8176,1.8176,1.8176,1.8176,1.8176,1.8176,1.8176,1.8184,1.8192,1.8233,1.849,1.8579,1.8574,1.8533,1.8517,1.8501,1.8347,1.8249,1.8257,1.8184,1.8176,1.8176,1.8176,1.8176,1.8176,1.8176,1.8176,1.8176,1.8176,1.8176,1.8184,1.8225,1.8314,1.8412,1.8452,1.8452,1.8476,1.8517,1.8926,2.001,2.1431,2.2287,2.2829,2.3789,2.4872,2.5173,2.6817,2.8955,3.07,3.1379,3.1677,3.165,3.1637,3.1623,3.1623,3.1664,3.1664,3.1664,3.1677,3.1677,3.1677,3.1677,3.1677,3.1677,3.1677,3.1677,3.1677,3.1677,3.1677,3.1677,3.1677,3.1677,3.1677,3.1677,3.1677,3.1677,3.1677,3.1677,3.1677,3.1677,3.1677,3.1853,3.1867,3.2232,3.3083,3.3756,3.4378,3.4864,3.5251,3.5427,3.5661,3.5924,3.6114,3.61,3.607,3.6261,3.6378,3.5836,3.5339,3.5163,3.5002,3.49,3.4812,3.4739,3.471,3.471,3.471,3.471,1.8176,1.8176,1.8176,1.8176,1.8176,1.8176,1.8176,1.8176,1.8176,1.8176,1.8176,1.8176,1.8176,1.8184,1.8192,1.8273,1.8387,1.8493,1.8639,1.8801,1.8744,1.8761,1.8826,1.8566,1.842,1.8379,1.8265,1.8184,1.82,1.8208,1.8192,1.82,1.8225,1.8192,1.8257,1.8265,1.8176,1.8217,1.8441,1.853,1.8452,1.8468,1.8485,1.8653,1.8912,1.9569,2.0685,2.1615,2.2,2.2116,2.2438,2.275,2.3043,2.4688,2.6817,2.886,3.0509,3.1677,3.1677,3.1677,3.1677,3.1677,3.1677,3.1677,3.1677,3.1677,3.1677,3.1677,3.1677,3.1677,3.1677,3.1677,3.1677,3.1677,3.1677,3.1677,3.1677,3.1677,3.1677,3.1677,3.1677,3.1677,3.1677,3.1677,3.1677,3.1677,3.1677,3.1677,3.1772,3.1772,3.2042,3.291,3.3615,3.4239,3.4849,3.5192,3.5588,3.5822,3.61,3.6363,3.6348,3.6319,3.6392,3.6348,3.5822,3.547,3.5324,3.5149,3.4988,3.4841,3.4739,3.471,3.471,3.471,3.471,1.8176,1.8176,1.8176,1.8176,1.8176,1.8176,1.8176,1.8176,1.8176,1.8176,1.8176,1.8176,1.8176,1.82,1.8273,1.8371,1.8579,1.8647,1.8818,1.8956,1.8915,1.8915,1.8899,1.8728,1.8574,1.8493,1.8468,1.8436,1.8379,1.833,1.833,1.8347,1.8428,1.8501,1.8444,1.8476,1.8493,1.8541,1.8639,1.8639,1.8558,1.8631,1.8744,1.8753,1.8907,1.9598,2.0294,2.0559,2.062,2.062,2.062,2.062,2.1112,2.2466,2.43,2.4979,2.8176,3.0319,3.1474,3.1677,3.1677,3.1677,3.1677,3.1677,3.1677,3.1677,3.1677,3.1677,3.1677,3.1677,3.1677,3.1677,3.1677,3.1677,3.1677,3.1677,3.1677,3.1677,3.1677,3.1677,3.1677,3.1677,3.1677,3.1677,3.1677,3.1677,3.1677,3.169,3.1867,3.2043,3.2355,3.2886,3.3513,3.4045,3.4631,3.5208,3.5517,3.5846,3.6275,3.6495,3.6539,3.6568,3.6553,3.6348,3.588,3.5617,3.547,3.5163,3.4841,3.4753,3.471,3.471,3.471,3.471,3.471,1.8176,1.8176,1.8176,1.8176,1.8184,1.8225,1.8217,1.8184,1.829,1.8265,1.8192,1.8184,1.8217,1.8306,1.842,1.8493,1.8623,1.8866,1.8988,1.9037,1.9053,1.9053,1.9013,1.8874,1.872,1.8574,1.8639,1.8623,1.8574,1.8566,1.8582,1.8525,1.8615,1.8688,1.8696,1.8639,1.8598,1.8688,1.8736,1.8712,1.8671,1.8842,1.8931,1.898,1.9037,1.9118,1.9232,1.9355,1.9454,1.9454,1.9454,1.9553,1.9849,2.1496,2.3141,2.4397,2.7214,2.9721,3.108,3.1677,3.1677,3.1677,3.1677,3.1677,3.1677,3.1677,3.1677,3.1677,3.1677,3.1677,3.1677,3.1677,3.1677,3.1677,3.1677,3.1677,3.1677,3.1677,3.1677,3.1677,3.1677,3.1677,3.1677,3.1677,3.1677,3.1677,3.169,3.1717,3.1947,3.2164,3.2518,3.2928,3.3285,3.3821,3.4403,3.4978,3.5428,3.5909,3.6239,3.6568,3.6597,3.6583,3.6553,3.6261,3.5924,3.5836,3.5749,3.5207,3.471,3.471,3.471,3.471,3.471,3.471,3.471,1.8176,1.8176,1.8176,1.8176,1.8184,1.8457,1.833,1.8233,1.8525,1.846,1.8225,1.82,1.8379,1.8574,1.8566,1.8663,1.8931,1.8964,1.9077,1.9183,1.924,1.9216,1.9151,1.9053,1.8939,1.8883,1.8834,1.8744,1.8736,1.8809,1.8793,1.8744,1.8801,1.8761,1.8728,1.8704,1.8688,1.8736,1.8728,1.8777,1.8842,1.8972,1.8996,1.9037,1.9142,1.9248,1.9264,1.9264,1.9264,1.9264,1.9264,1.9264,1.9651,2.0915,2.2368,2.392,2.5948,2.8272,2.9625,3.1093,3.1677,3.1677,3.1677,3.1569,3.1189,3.1569,3.1677,3.1677,3.1677,3.1677,3.1677,3.1677,3.1677,3.1677,3.1677,3.1677,3.1677,3.1677,3.1677,3.1677,3.1677,3.1677,3.1677,3.1677,3.1677,3.1677,3.181,3.1851,3.2024,3.2297,3.2638,3.298,3.3159,3.3602,3.4143,3.466,3.511,3.5617,3.6071,3.6356,3.6597,3.6583,3.6553,3.6378,3.6114,3.6056,3.5924,3.5397,3.4988,3.4783,3.4724,3.4783,3.4739,3.471,3.471,1.8176,1.8176,1.8176,1.8176,1.8192,1.8371,1.8412,1.8371,1.8493,1.8493,1.8355,1.8363,1.8485,1.8671,1.8801,1.8842,1.8988,1.911,1.9183,1.9232,1.9256,1.9264,1.9224,1.9183,1.9094,1.9004,1.8907,1.8883,1.8899,1.8972,1.9037,1.9029,1.9013,1.8972,1.8907,1.8874,1.8899,1.8874,1.8907,1.8996,1.8948,1.9102,1.9151,1.9167,1.9191,1.9256,1.9264,1.9264,1.9264,1.9264,1.9264,1.9264,1.9264,2.0333,2.1103,2.227,2.4212,2.5561,2.7203,2.9243,3.1093,3.021,3.07,3.1175,3.0306,3.089,3.1569,3.1677,3.1677,3.1677,3.1677,3.1677,3.1677,3.1677,3.1677,3.1677,3.1677,3.1677,3.1677,3.1677,3.1677,3.1677,3.1677,3.1677,3.1677,3.169,3.1851,3.1998,3.2158,3.2318,3.2633,3.2905,3.3084,3.347,3.3932,3.4464,3.4914,3.5352,3.5903,3.6257,3.6513,3.6597,3.6553,3.6407,3.6261,3.6129,3.5895,3.5544,3.528,3.509,3.4958,3.4914,3.4841,3.4753,3.4724,1.8176,1.8184,1.8233,1.8257,1.8282,1.8452,1.8533,1.8558,1.8663,1.8792,1.868,1.8606,1.8671,1.8858,1.8923,1.9021,1.9086,1.9183,1.924,1.9264,1.9264,1.9264,1.9264,1.924,1.9183,1.9077,1.9069,1.9069,1.9069,1.9061,1.9077,1.9134,1.9224,1.9151,1.9118,1.911,1.911,1.9053,1.9077,1.9175,1.9077,1.9175,1.9248,1.9248,1.9256,1.9256,1.9264,1.9264,1.9264,1.9264,1.9264,1.9264,1.9264,1.9355,1.9651,2.0423,2.1397,2.2466,2.4397,2.6431,2.9147,2.808,2.9529,2.9625,2.9529,3.0401,3.1582,3.1677,3.1677,3.1677,3.1677,3.1677,3.1677,3.1677,3.1677,3.1677,3.1677,3.1677,3.1677,3.1677,3.1677,3.1677,3.1677,3.1677,3.169,3.1677,3.173,3.1931,3.2144,3.2318,3.2505,3.279,3.3005,3.3417,3.3833,3.4217,3.4601,3.5125,3.5663,3.6074,3.6414,3.6513,3.6583,3.6495,3.6334,3.6158,3.6056,3.5983,3.569,3.5478,3.528,3.5192,3.5017,3.4929,3.4812,1.8184,1.82,1.8363,1.8444,1.8485,1.8647,1.872,1.8753,1.9013,1.9142,1.9086,1.885,1.8899,1.911,1.9069,1.9102,1.9191,1.924,1.9264,1.9264,1.9264,1.9264,1.9264,1.9248,1.924,1.9256,1.9191,1.9159,1.9224,1.9159,1.9118,1.9118,1.9191,1.9248,1.9232,1.9077,1.8996,1.8988,1.9021,1.911,1.9199,1.9248,1.9256,1.9264,1.9264,1.9264,1.9264,1.9264,1.9264,1.9264,1.9264,1.9264,1.9264,1.9264,2.0038,2.1496,2.1879,2.3043,2.4979,2.5464,2.5464,2.5851,2.7492,2.8272,2.8847,3.0115,3.1569,3.1474,3.1677,3.1677,3.1677,3.1677,3.1677,3.1677,3.1677,3.1677,3.1677,3.1677,3.1677,3.1677,3.1677,3.1677,3.1677,3.1677,3.169,3.169,3.1677,3.1864,3.2185,3.2425,3.2652,3.2879,3.3106,3.3299,3.366,3.3987,3.4399,3.4911,3.5408,3.5805,3.6202,3.6513,3.6484,3.6539,3.648,3.6363,3.6451,3.6539,3.6187,3.5836,3.5713,3.5566,3.5375,3.5119,3.5031,1.8249,1.8363,1.8428,1.859,1.8793,1.8866,1.8899,1.8915,1.9021,1.9077,1.9061,1.8923,1.9021,1.9167,1.9207,1.9191,1.924,1.9264,1.9264,1.9264,1.9264,1.9264,1.9264,1.9264,1.9264,1.9224,1.9175,1.9175,1.9248,1.9183,1.9167,1.9167,1.9207,1.9256,1.9248,1.9183,1.9167,1.9167,1.9175,1.9199,1.9256,1.9264,1.9264,1.9264,1.9264,1.9264,1.9264,1.9264,1.9264,1.9264,1.9264,1.9264,1.9264,1.9264,1.9651,2.0333,2.0423,2.062,2.1299,2.1496,2.2172,2.3531,2.527,2.6528,2.6817,2.8464,3.002,3.1379,3.1677,3.1677,3.1677,3.1677,3.1677,3.1677,3.1677,3.1677,3.1677,3.1677,3.1677,3.1677,3.1677,3.1717,3.1744,3.1864,3.1891,3.1931,3.1957,3.2225,3.2545,3.2719,3.2919,3.3133,3.3307,3.3334,3.3474,3.37,3.3973,3.443,3.4969,3.5408,3.5805,3.6272,3.6498,3.6568,3.6583,3.6612,3.6612,3.6597,3.6524,3.6305,3.6027,3.586,3.5558,3.5522,3.5449,1.8338,1.846,1.859,1.8728,1.8891,1.8956,1.9013,1.9069,1.9077,1.9077,1.9086,1.9086,1.9142,1.9232,1.9264,1.9264,1.9264,1.9264,1.9264,1.9264,1.9264,1.9264,1.9264,1.9264,1.9264,1.9216,1.9167,1.9159,1.9248,1.9142,1.9151,1.9224,1.9264,1.9264,1.9256,1.9248,1.9248,1.924,1.924,1.924,1.9264,1.9264,1.9264,1.9264,1.9264,1.9264,1.9264,1.9264,1.9264,1.9264,1.9264,1.9264,1.9264,1.9264,1.9264,1.9264,1.9256,1.9355,1.9553,1.9553,2.0423,2.1299,2.3238,2.4688,2.5658,2.7696,2.9638,3.0998,3.1569,3.1677,3.169,3.169,3.1704,3.1704,3.1717,3.173,3.173,3.173,3.173,3.173,3.1824,3.1851,3.1917,3.2024,3.2131,3.2198,3.2251,3.2559,3.2812,3.2893,3.3013,3.3213,3.3334,3.3307,3.3334,3.34,3.3746,3.3964,3.4502,3.4955,3.5507,3.5958,3.6228,3.6597,3.6597,3.6612,3.6612,3.6583,3.6553,3.648,3.6319,3.607,3.5851,3.5763,3.569,1.8444,1.8509,1.8818,1.885,1.8769,1.8915,1.9077,1.9232,1.9248,1.9248,1.9248,1.924,1.9248,1.9256,1.9264,1.9264,1.9264,1.9264,1.9264,1.9264,1.9264,1.9264,1.9264,1.9264,1.9264,1.9264,1.924,1.9207,1.9256,1.9224,1.9232,1.9256,1.9264,1.9264,1.9264,1.9264,1.9264,1.9264,1.9264,1.9264,1.9264,1.9264,1.9264,1.9264,1.9264,1.9264,1.9264,1.9264,1.9264,1.9264,1.9264,1.9264,1.9264,1.9264,1.9264,1.9264,1.9264,1.9264,1.9264,1.9264,1.9355,2.0136,2.1585,2.3336,2.5173,2.7021,2.9147,3.0604,3.1284,3.1595,3.1717,3.1744,3.177,3.1784,3.181,3.181,3.181,3.181,3.181,3.1877,3.2038,3.2144,3.2305,3.2398,3.2398,3.2492,3.2572,3.2679,3.2866,3.2772,3.2919,3.312,3.3213,3.3227,3.328,3.3387,3.3474,3.3792,3.4036,3.446,3.5097,3.5689,3.6071,3.6341,3.6484,3.6612,3.6612,3.6612,3.6597,3.6524,3.6436,3.6378,3.6158,3.6129,3.6056,1.833,1.846,1.8661,1.8647,1.8744,1.8907,1.9021,1.9077,1.9191,1.9264,1.9264,1.9264,1.9264,1.9264,1.9264,1.9264,1.9264,1.9264,1.9264,1.9264,1.9264,1.9264,1.9264,1.9264,1.9264,1.9264,1.9264,1.9264,1.9256,1.9264,1.9264,1.9256,1.9264,1.9264,1.9264,1.9264,1.9264,1.9264,1.9264,1.9264,1.9264,1.9264,1.9264,1.9264,1.9264,1.9264,1.9264,1.9264,1.9264,1.9264,1.9264,1.9264,1.9264,1.9264,1.9264,1.9264,1.9264,1.9264,1.9264,1.9264,1.9264,1.975,2.1308,2.227,2.4115,2.6346,2.8764,3.0115,3.1241,3.1675,3.1891,3.1944,3.2024,3.2104,3.2131,3.2131,3.2131,3.2131,3.2144,3.2238,3.2385,3.2465,3.2625,3.2639,3.2652,3.2786,3.2879,3.2959,3.2973,3.2906,3.2919,3.3146,3.3227,3.328,3.332,3.3414,3.3374,3.3533,3.3778,3.4135,3.473,3.5323,3.5845,3.6199,3.6484,3.6513,3.6612,3.6612,3.6612,3.6612,3.6553,3.6524,3.6495,3.6422,3.6334,1.8347,1.8555,1.8533,1.8631,1.8744,1.8907,1.898,1.9021,1.9183,1.9264,1.9264,1.9264,1.9264,1.9264,1.9264,1.9264,1.9264,1.9264,1.9264,1.9264,1.9264,1.9264,1.9264,1.9264,1.9264,1.9264,1.9264,1.9264,1.9264,1.9264,1.9264,1.9264,1.9264,1.9264,1.9264,1.9264,1.9264,1.9264,1.9264,1.9264,1.9264,1.9264,1.9264,1.9264,1.9264,1.9264,1.9264,1.9264,1.9264,1.9264,1.9264,1.9264,1.9264,1.9264,1.9264,1.9264,1.9264,1.9264,1.9264,1.9264,1.9264,2.0063,2.1953,2.2983,2.4207,2.623,2.8416,3.0223,3.1212,3.1917,3.2064,3.2211,3.2358,3.2505,3.2519,3.2616,3.2616,3.2616,3.2585,3.2666,3.2746,3.2799,3.2839,3.2853,3.2919,3.3066,3.316,3.32,3.3227,3.3187,3.3187,3.3293,3.3347,3.3387,3.3414,3.3387,3.3334,3.3407,3.3493,3.3864,3.446,3.4885,3.5309,3.5847,3.64,3.6513,3.6513,3.6612,3.6612,3.6612,3.6612,3.6583,3.6553,3.6553,3.6466,1.8522,1.8436,1.8623,1.8696,1.8744,1.8907,1.8996,1.9021,1.9191,1.9264,1.9264,1.9264,1.9264,1.9264,1.9264,1.9264,1.9264,1.9264,1.9264,1.9264,1.9264,1.9264,1.9264,1.9264,1.9264,1.9264,1.9264,1.9264,1.9264,1.9264,1.9264,1.9264,1.9264,1.9264,1.9264,1.9264,1.9264,1.9264,1.9264,1.9264,1.9264,1.9264,1.9264,1.9264,1.9264,1.9264,1.9264,1.9264,1.9264,1.9264,1.9264,1.9264,1.9264,1.9305,1.9297,1.9305,1.9321,1.9321,1.9305,1.9289,1.9676,2.0995,2.3346,2.4509,2.5864,2.7696,3.0093,3.0395,3.1198,3.2031,3.2385,3.2505,3.2652,3.2786,3.2839,3.2853,3.2853,3.2853,3.2906,3.2973,3.3026,3.308,3.3146,3.316,3.3133,3.332,3.3374,3.3387,3.3374,3.3374,3.3374,3.34,3.34,3.3414,3.3414,3.3374,3.328,3.3253,3.338,3.3579,3.4162,3.4516,3.4698,3.5309,3.6004,3.6301,3.64,3.6513,3.6513,3.6612,3.6612,3.6612,3.6612,3.6612,3.6568,1.8241,1.8257,1.8444,1.8598,1.8736,1.8907,1.9069,1.9191,1.9232,1.9264,1.9264,1.9264,1.9264,1.9264,1.9264,1.9264,1.9264,1.9264,1.9264,1.9264,1.9264,1.9264,1.9264,1.9264,1.9264,1.9264,1.9264,1.9264,1.9264,1.9264,1.9264,1.9264,1.9264,1.9264,1.9264,1.9264,1.9264,1.9264,1.9264,1.9264,1.9264,1.9264,1.9264,1.9264,1.9264,1.9264,1.9264,1.9264,1.9264,1.9264,1.9264,1.9264,1.9264,1.9378,1.9443,1.9451,1.9443,1.9435,1.9419,1.9469,1.9941,2.1884,2.4155,2.6124,2.8159,3.0348,3.1348,3.1056,3.1315,3.2155,3.2692,3.2799,3.2919,3.3053,3.3146,3.3146,3.3146,3.3173,3.32,3.324,3.328,3.3334,3.3387,3.3414,3.3414,3.34,3.34,3.34,3.34,3.3387,3.3387,3.34,3.34,3.3414,3.3414,3.34,3.332,3.3253,3.324,3.3552,3.3964,3.4331,3.4712,3.5011,3.5508,3.5905,3.6202,3.64,3.6498,3.6498,3.6612,3.6612,3.6612,3.6612,3.6612,1.8225,1.833,1.8582,1.8744,1.8866,1.9029,1.9167,1.9248,1.9264,1.9264,1.9264,1.9264,1.9264,1.9264,1.9264,1.9264,1.9264,1.9264,1.9264,1.9264,1.9264,1.9264,1.9264,1.9264,1.9264,1.9264,1.9264,1.9264,1.9264,1.9264,1.9264,1.9264,1.9264,1.9264,1.9264,1.9264,1.9264,1.9264,1.9264,1.9264,1.9264,1.9264,1.9264,1.9264,1.9264,1.9264,1.9264,1.9264,1.9264,1.9264,1.9264,1.9329,1.937,1.9451,1.9549,1.9581,1.9573,1.9549,1.9549,1.9708,2.0158,2.2149,2.4806,2.676,2.7824,2.9823,3.2162,3.2064,3.2091,3.2812,3.2906,3.3013,3.3146,3.3267,3.3293,3.3307,3.3307,3.3307,3.332,3.3334,3.336,3.336,3.3414,3.3414,3.3414,3.3414,3.3414,3.3414,3.3414,3.3414,3.3414,3.3414,3.3414,3.3414,3.3414,3.3414,3.3387,3.332,3.324,3.3393,3.3746,3.4272,3.4712,3.4812,3.511,3.5508,3.5805,3.6103,3.64,3.6498,3.6597,3.6612,3.6612,3.6612,3.6612,1.8282,1.8493,1.8826,1.898,1.9013,1.9175,1.9256,1.9264,1.9264,1.9264,1.9264,1.9264,1.9264,1.9264,1.9264,1.9264,1.9264,1.9264,1.9264,1.9264,1.9264,1.9264,1.9264,1.9264,1.9264,1.9264,1.9264,1.9264,1.9264,1.9264,1.9264,1.9264,1.9264,1.9264,1.9264,1.9264,1.9264,1.9264,1.9264,1.9264,1.9264,1.9264,1.9264,1.9264,1.9264,1.9264,1.9264,1.9264,1.9264,1.9329,1.9362,1.9451,1.954,1.9622,1.9662,1.9719,1.9711,1.9711,1.9711,1.9638,2.0284,2.1801,2.482,2.6743,2.7795,2.9426,3.1685,3.197,3.2095,3.2729,3.2822,3.2689,3.282,3.34,3.34,3.3414,3.3414,3.3414,3.3414,3.3414,3.3414,3.3414,3.3414,3.3414,3.3414,3.3414,3.3414,3.3414,3.3414,3.3414,3.3414,3.3414,3.3414,3.3414,3.3414,3.3414,3.3414,3.3387,3.3334,3.3374,3.3514,3.3914,3.4114,3.4214,3.4499,3.5011,3.5408,3.5805,3.6103,3.6498,3.6597,3.6612,3.6612,3.6612,3.6612,1.8282,1.8579,1.8834,1.8988,1.9013,1.9183,1.9264,1.9264,1.9264,1.9264,1.9264,1.9264,1.9264,1.9264,1.9264,1.9264,1.9264,1.9264,1.9264,1.9264,1.9264,1.9264,1.9264,1.9264,1.9264,1.9264,1.9264,1.9264,1.9264,1.9264,1.9264,1.9264,1.9264,1.9264,1.9264,1.9264,1.9264,1.9264,1.9264,1.9264,1.9264,1.9264,1.9264,1.9264,1.9264,1.9264,1.9264,1.9264,1.9345,1.9459,1.9581,1.9662,1.9743,1.9825,1.9873,2.0077,2.0069,2.0077,2.0053,2.0182,2.0942,2.3209,2.5784,2.6851,2.793,2.9135,3.0008,2.8987,2.9504,3.1441,3.1692,3.1189,3.1265,3.2799,3.3414,3.3414,3.3414,3.3414,3.3414,3.3414,3.3414,3.3414,3.3414,3.3414,3.3414,3.3414,3.3414,3.3414,3.3414,3.3414,3.3414,3.3414,3.3414,3.3414,3.3414,3.3414,3.3414,3.3414,3.3414,3.3414,3.3414,3.3414,3.3614,3.3814,3.4114,3.4513,3.4911,3.5408,3.5905,3.6301,3.6498,3.6612,3.6612,3.6612,3.6612]}]]